[[{"header":{"parameterUnit":"m.s-1","parameterCategory":1,"la1":30.6,"la2":29.2853,"lo1":-89.7004,"lo2":-87.6739,"dy":0.0162,"dx":0.0183,"nx":112,"ny":82,"refTime":"2024-05-16T18:00:00:Z","depth":0,"parameterNumber":2,"parameterNumberName":"U-component_of_WINDS"},"data":[0.0,0.0,0.0,0.0,0.0,0.0,0.0,0.0,0.0,0.0,0.0,0.0,0.0,0.0,0.0,0.0,0.0,0.0,0.0,0.0,0.0,0.0,0.0,0.0,0.0,0.0,0.0,0.0,0.0,0.0,0.0,0.0,0.0,0.0,0.0,0.0,0.0,0.0,0.0,0.0,0.0,0.0,0.0,0.0,0.0,0.0,0.0,0.0,0.0,0.0,0.0,0.0,0.0,0.0,0.0,0.0,0.0,0.0,0.0,0.0,0.0,0.0,0.0,0.0,0.0,0.0,0.0,0.0,0.0,0.0,0.0,0.0,0.0,0.0,0.0,0.0,0.0,0.0,0.0,0.0,0.0,0.0,0.0,0.0,0.0,0.0,0.0,0.0,0.0,0.0,-1.614,-1.777,-2.155,-2.3562,-2.2609,-2.2549,-2.0864,-1.6882,0.0,0.0,0.0,0.0,0.0,0.0,0.0,0.0,0.0,0.0,0.0,0.0,0.0,0.0,0.0,0.0,0.0,0.0,0.0,0.0,0.0,0.0,0.0,0.0,0.0,0.0,0.0,0.0,0.0,0.0,0.0,0.0,0.0,0.0,0.0,0.0,0.0,0.0,0.0,0.0,0.0,0.0,0.0,0.0,0.0,0.0,0.0,0.0,0.0,0.0,0.0,0.0,0.0,0.0,0.0,0.0,0.0,0.0,0.0,0.0,0.0,0.0,0.0,0.0,0.0,0.0,0.0,0.0,0.0,0.0,0.0,0.0,0.0,0.0,0.0,0.0,0.0,0.0,0.0,0.0,0.0,0.0,0.0,0.0,0.0,0.0,0.0,0.0,0.0,0.0,0.0,0.0,0.0,0.0,0.0,0.0,0.0,0.0,0.0,0.0,0.0,0.0,0.0,0.0,-1.6368,-2.0809,-2.33,-2.4358,-2.3636,-2.2823,-2.1278,-1.8728,0.0,0.0,0.0,0.0,0.0,0.0,0.0,0.0,0.0,0.0,0.0,0.0,0.0,0.0,0.0,0.0,0.0,0.0,0.0,0.0,0.0,0.0,0.0,0.0,0.0,0.0,0.0,0.0,0.0,0.0,0.0,0.0,0.0,0.0,0.0,0.0,0.0,0.0,0.0,0.0,0.0,0.0,0.0,0.0,0.0,0.0,0.0,0.0,0.0,0.0,0.0,0.0,0.0,0.0,0.0,0.0,0.0,0.0,0.0,0.0,0.0,0.0,0.0,0.0,0.0,0.0,0.0,0.0,0.0,0.0,0.0,0.0,0.0,0.0,0.0,0.0,0.0,0.0,0.0,0.0,0.0,0.0,0.0,0.0,0.0,0.0,0.0,0.0,0.0,0.0,0.0,0.0,0.0,0.0,0.0,0.0,0.0,0.0,0.0,0.0,0.0,0.0,0.0,-1.584,-1.7763,-2.1483,-2.3548,-2.4286,-2.3431,-2.2715,-2.128,-1.8887,-1.6373,0.0,0.0,0.0,0.0,0.0,0.0,0.0,0.0,0.0,0.0,0.0,0.0,0.0,0.0,0.0,0.0,0.0,0.0,0.0,0.0,0.0,0.0,0.0,0.0,0.0,0.0,0.0,0.0,0.0,0.0,0.0,0.0,0.0,0.0,0.0,0.0,0.0,0.0,0.0,0.0,0.0,0.0,0.0,0.0,0.0,0.0,0.0,0.0,0.0,0.0,0.0,0.0,0.0,0.0,0.0,0.0,0.0,0.0,0.0,0.0,0.0,0.0,0.0,0.0,0.0,0.0,0.0,0.0,0.0,0.0,0.0,0.0,0.0,0.0,0.0,0.0,0.0,0.0,0.0,0.0,0.0,0.0,0.0,0.0,0.0,0.0,0.0,0.0,0.0,0.0,0.0,0.0,0.0,0.0,0.0,0.0,0.0,0.0,0.0,0.0,0.0,0.0,-1.7607,-1.9496,-2.1496,-2.3333,-2.405,-2.3133,-2.2326,-2.0902,-1.8636,-1.6059,0.0,0.0,0.0,0.0,0.0,0.0,0.0,0.0,0.0,0.0,0.0,0.0,0.0,0.0,0.0,0.0,0.0,0.0,0.0,0.0,0.0,0.0,0.0,0.0,0.0,0.0,0.0,0.0,0.0,0.0,0.0,0.0,0.0,0.0,0.0,0.0,0.0,0.0,0.0,0.0,0.0,0.0,0.0,0.0,0.0,0.0,0.0,0.0,0.0,0.0,0.0,0.0,0.0,0.0,0.0,0.0,0.0,0.0,0.0,0.0,0.0,0.0,0.0,0.0,0.0,0.0,0.0,0.0,0.0,0.0,0.0,0.0,0.0,0.0,0.0,0.0,0.0,0.0,0.0,0.0,0.0,0.0,0.0,0.0,0.0,0.0,0.0,0.0,0.0,0.0,0.0,0.0,0.0,0.0,0.0,0.0,0.0,0.0,0.0,0.0,0.0,0.0,-1.8239,-2.1214,-2.1405,-2.3105,-2.3934,-2.3231,-2.1617,-2.0026,-1.8578,-1.5355,0.0,0.0,0.0,0.0,0.0,0.0,0.0,0.0,0.0,0.0,0.0,0.0,0.0,0.0,0.0,0.0,0.0,0.0,0.0,0.0,0.0,0.0,0.0,0.0,0.0,0.0,0.0,0.0,0.0,0.0,0.0,0.0,0.0,0.0,0.0,0.0,0.0,0.0,0.0,0.0,0.0,0.0,0.0,0.0,0.0,0.0,0.0,0.0,0.0,0.0,0.0,0.0,0.0,0.0,0.0,0.0,0.0,0.0,0.0,0.0,0.0,0.0,0.0,0.0,0.0,0.0,0.0,0.0,0.0,0.0,0.0,0.0,0.0,0.0,0.0,0.0,0.0,0.0,0.0,0.0,0.0,0.0,0.0,0.0,0.0,0.0,0.0,0.0,0.0,0.0,0.0,0.0,0.0,0.0,0.0,0.0,0.0,0.0,0.0,0.0,0.0,0.0,-1.7417,-2.0061,0.0,-2.3043,-2.3571,-2.282,-2.1956,-2.0348,-1.7781,0.0,0.0,0.0,0.0,0.0,0.0,0.0,0.0,0.0,0.0,0.0,0.0,0.0,0.0,0.0,0.0,0.0,0.0,0.0,0.0,0.0,0.0,0.0,0.0,0.0,0.0,0.0,0.0,0.0,0.0,0.0,0.0,0.0,0.0,0.0,0.0,0.0,0.0,0.0,0.0,0.0,0.0,0.0,0.0,0.0,0.0,0.0,0.0,0.0,0.0,0.0,0.0,0.0,0.0,0.0,0.0,0.0,0.0,0.0,0.0,0.0,0.0,0.0,0.0,0.0,0.0,0.0,0.0,0.0,0.0,0.0,0.0,0.0,0.0,0.0,0.0,0.0,0.0,0.0,0.0,0.0,0.0,0.0,0.0,0.0,0.0,0.0,0.0,0.0,0.0,0.0,0.0,0.0,0.0,0.0,0.0,0.0,0.0,0.0,0.0,0.0,0.0,-1.4529,-1.7328,-1.9903,0.0,-2.3138,-2.3529,-2.2739,-2.1968,-2.0237,-1.7238,0.0,0.0,0.0,0.0,0.0,0.0,0.0,0.0,0.0,0.0,0.0,0.0,0.0,0.0,0.0,0.0,0.0,0.0,0.0,0.0,0.0,0.0,0.0,0.0,0.0,0.0,0.0,0.0,0.0,0.0,0.0,0.0,0.0,0.0,0.0,0.0,0.0,0.0,0.0,0.0,0.0,0.0,0.0,0.0,0.0,0.0,0.0,0.0,0.0,0.0,0.0,0.0,0.0,0.0,0.0,0.0,0.0,0.0,0.0,0.0,0.0,0.0,0.0,0.0,0.0,0.0,0.0,0.0,0.0,0.0,0.0,0.0,0.0,0.0,0.0,0.0,0.0,0.0,0.0,0.0,0.0,0.0,0.0,0.0,0.0,0.0,0.0,0.0,0.0,0.0,0.0,0.0,0.0,0.0,0.0,0.0,0.0,0.0,0.0,0.0,0.0,0.0,-1.4419,-1.8313,-2.1274,-2.2018,-2.3345,-2.3868,-2.3033,-2.1456,-1.9476,0.0,0.0,0.0,0.0,0.0,0.0,0.0,0.0,0.0,0.0,0.0,0.0,0.0,0.0,0.0,0.0,0.0,0.0,0.0,0.0,0.0,0.0,0.0,0.0,0.0,0.0,0.0,0.0,0.0,0.0,0.0,0.0,0.0,0.0,0.0,0.0,0.0,0.0,0.0,0.0,0.0,0.0,0.0,0.0,0.0,0.0,0.0,0.0,0.0,0.0,0.0,0.0,0.0,0.0,0.0,0.0,0.0,0.0,0.0,0.0,0.0,0.0,0.0,0.0,0.0,0.0,0.0,0.0,0.0,0.0,0.0,0.0,0.0,0.0,0.0,0.0,0.0,0.0,0.0,0.0,0.0,0.0,0.0,0.0,0.0,0.0,0.0,0.0,0.0,0.0,0.0,0.0,0.0,0.0,0.0,0.0,0.0,0.0,0.0,0.0,0.0,0.0,0.0,-1.5105,-1.821,-2.0798,-2.2095,-2.2988,-2.294,-2.1564,-2.1434,-1.9638,-1.5466,0.0,0.0,0.0,0.0,0.0,0.0,0.0,0.0,0.0,0.0,0.0,0.0,0.0,0.0,0.0,0.0,0.0,0.0,0.0,0.0,0.0,0.0,0.0,0.0,0.0,0.0,0.0,0.0,0.0,0.0,0.0,0.0,0.0,0.0,0.0,0.0,0.0,0.0,0.0,0.0,0.0,0.0,0.0,0.0,0.0,0.0,0.0,0.0,0.0,0.0,0.0,0.0,0.0,0.0,0.0,0.0,0.0,0.0,0.0,0.0,0.0,0.0,0.0,0.0,0.0,0.0,0.0,0.0,0.0,0.0,0.0,0.0,0.0,0.0,0.0,0.0,0.0,0.0,0.0,0.0,0.0,0.0,0.0,0.0,0.0,0.0,0.0,0.0,0.0,0.0,0.0,0.0,0.0,0.0,0.0,0.0,0.0,0.0,0.0,0.0,0.0,0.0,-1.5808,-1.8467,-2.0772,-2.231,-2.2903,-2.2728,-2.1587,-2.1546,-1.9845,-1.571,0.0,0.0,0.0,0.0,0.0,0.0,0.0,0.0,0.0,0.0,0.0,0.0,0.0,0.0,0.0,0.0,0.0,0.0,0.0,0.0,0.0,0.0,0.0,0.0,0.0,0.0,0.0,0.0,0.0,0.0,0.0,0.0,0.0,0.0,0.0,0.0,0.0,0.0,0.0,0.0,0.0,0.0,0.0,0.0,0.0,0.0,0.0,0.0,0.0,0.0,0.0,0.0,0.0,0.0,0.0,0.0,0.0,0.0,0.0,0.0,0.0,0.0,0.0,0.0,0.0,0.0,0.0,0.0,0.0,0.0,0.0,0.0,0.0,0.0,0.0,0.0,0.0,0.0,0.0,0.0,0.0,0.0,0.0,0.0,0.0,0.0,0.0,0.0,0.0,0.0,0.0,0.0,0.0,0.0,0.0,0.0,0.0,0.0,0.0,0.0,0.0,0.0,-1.6428,-1.8909,-2.1025,-2.2501,-2.296,-2.2946,-2.2439,-2.17,-2.0002,-1.7036,0.0,0.0,0.0,0.0,0.0,0.0,0.0,0.0,0.0,0.0,0.0,0.0,0.0,0.0,0.0,0.0,0.0,0.0,0.0,0.0,0.0,0.0,0.0,0.0,0.0,0.0,0.0,0.0,0.0,0.0,0.0,0.0,0.0,0.0,0.0,0.0,0.0,0.0,0.0,0.0,0.0,0.0,0.0,0.0,0.0,0.0,0.0,0.0,0.0,0.0,0.0,0.0,0.0,0.0,0.0,0.0,0.0,0.0,0.0,0.0,-1.1595,0.0,0.0,0.0,0.0,0.0,0.0,0.0,0.0,0.0,0.0,0.0,0.0,0.0,0.0,0.0,0.0,0.0,0.0,0.0,0.0,0.0,0.0,0.0,0.0,0.0,0.0,0.0,0.0,0.0,0.0,0.0,0.0,0.0,0.0,0.0,0.0,0.0,0.0,0.0,0.0,0.0,-1.6428,-1.8681,-2.0688,-2.2218,-2.2639,-2.2509,-2.1789,-2.1264,-1.9707,-1.6702,-1.5051,0.0,0.0,0.0,0.0,0.0,0.0,0.0,0.0,0.0,0.0,0.0,0.0,0.0,0.0,0.0,0.0,0.0,0.0,0.0,0.0,0.0,0.0,0.0,0.0,0.0,0.0,0.0,0.0,0.0,0.0,0.0,0.0,0.0,0.0,0.0,0.0,0.0,0.0,0.0,0.0,0.0,0.0,0.0,0.0,0.0,0.0,0.0,0.0,0.0,0.0,0.0,0.0,0.0,0.0,0.0,0.0,0.0,0.0,0.0,0.0,-1.308,0.0,0.0,0.0,0.0,0.0,0.0,0.0,0.0,0.0,0.0,0.0,0.0,0.0,0.0,0.0,0.0,0.0,0.0,0.0,0.0,0.0,0.0,0.0,0.0,0.0,0.0,0.0,0.0,0.0,0.0,0.0,0.0,0.0,0.0,0.0,0.0,0.0,0.0,0.0,0.0,-1.6931,-1.9198,-2.1025,-2.2178,-2.2426,-2.2396,-2.2107,-2.1202,-1.9893,-1.8092,-1.5808,0.0,0.0,0.0,0.0,0.0,0.0,0.0,0.0,0.0,0.0,0.0,0.0,0.0,0.0,0.0,0.0,0.0,0.0,0.0,0.0,0.0,0.0,0.0,0.0,0.0,0.0,0.0,0.0,0.0,0.0,0.0,0.0,0.0,0.0,0.0,0.0,0.0,0.0,0.0,0.0,0.0,0.0,0.0,0.0,0.0,0.0,0.0,0.0,0.0,0.0,0.0,0.0,0.0,-1.5949,-1.6293,-1.6833,-1.6833,-1.7401,-1.8311,-1.6697,-1.6323,-1.6741,-1.5009,0.0,0.0,0.0,0.0,0.0,0.0,0.0,0.0,0.0,0.0,0.0,0.0,0.0,0.0,0.0,0.0,0.0,0.0,0.0,0.0,0.0,0.0,0.0,0.0,-1.886,-1.8623,-1.6194,0.0,0.0,0.0,0.0,0.0,0.0,0.0,0.0,0.0,0.0,0.0,-1.7698,-1.9858,-2.1478,-2.2212,-2.2296,-2.2402,-2.2612,-2.1342,-2.0275,-1.9647,-1.6923,-1.5017,0.0,0.0,0.0,0.0,0.0,0.0,0.0,0.0,0.0,0.0,0.0,0.0,0.0,0.0,0.0,0.0,0.0,0.0,0.0,0.0,0.0,0.0,0.0,0.0,0.0,0.0,0.0,0.0,0.0,0.0,0.0,0.0,-1.1555,-1.2125,0.0,0.0,0.0,0.0,0.0,0.0,0.0,0.0,0.0,0.0,0.0,0.0,0.0,-1.5381,-1.7175,-1.7758,-1.8687,-1.9926,-2.0513,-2.0827,-2.0917,-2.0917,-2.1006,-2.1156,-2.0902,0.0,-1.7488,-1.6667,0.0,0.0,0.0,0.0,0.0,0.0,0.0,0.0,0.0,0.0,0.0,0.0,0.0,0.0,0.0,0.0,0.0,0.0,0.0,0.0,0.0,0.0,-2.1431,-2.0886,-2.0835,-2.0784,0.0,-1.8262,-1.6164,-1.5325,-1.4648,0.0,0.0,0.0,0.0,0.0,0.0,0.0,-1.8471,-2.0192,-2.1478,-2.2212,-2.2296,-2.2307,-2.2349,-2.1583,-2.0564,-1.9343,-1.7614,-1.6112,-1.4926,-1.3292,0.0,0.0,0.0,0.0,0.0,0.0,0.0,0.0,0.0,0.0,0.0,0.0,0.0,0.0,0.0,0.0,0.0,0.0,0.0,0.0,0.0,0.0,0.0,0.0,0.0,0.0,0.0,0.0,0.0,-1.1834,-1.2821,-1.3141,-1.2839,-1.2478,0.0,0.0,0.0,0.0,0.0,0.0,0.0,0.0,0.0,-1.6967,-1.773,-1.8717,-1.9944,-2.0243,-2.0677,-2.1276,-2.156,-2.1695,-2.1695,-2.1695,-2.2084,-2.2727,-2.2009,-2.144,-2.0868,-1.9104,-1.7849,-1.6922,0.0,0.0,0.0,0.0,-1.5666,-1.6054,-1.6413,-1.6955,-1.7333,-1.6553,0.0,0.0,0.0,0.0,0.0,0.0,0.0,-1.7798,0.0,0.0,-2.1314,-2.1397,-2.1633,-2.182,-2.182,-2.0771,-1.9367,0.0,-1.7185,-1.6238,-1.3929,0.0,0.0,0.0,0.0,-1.7946,-1.9338,-2.0856,-2.1938,-2.2262,-2.2296,-2.2296,-2.2296,-2.1617,-2.0755,-1.9721,-1.8245,-1.7021,-1.6157,-1.4629,-1.3444,0.0,0.0,0.0,0.0,0.0,0.0,0.0,0.0,0.0,0.0,0.0,0.0,0.0,0.0,0.0,0.0,0.0,0.0,0.0,0.0,0.0,0.0,0.0,0.0,0.0,0.0,0.0,0.0,-1.3256,-1.4308,-1.466,-1.4791,-1.4595,0.0,0.0,0.0,0.0,0.0,0.0,-1.6743,-1.7864,-1.8775,-1.945,-2.0602,-2.153,-2.2173,-2.2353,-2.2532,-2.2697,-2.2697,-2.2697,-2.2697,-2.2697,-2.3221,-2.4059,-2.3116,-2.3236,-2.3909,-2.1276,-1.9914,-1.9375,-1.8371,-1.7699,-1.7357,-1.7818,-1.8311,-1.879,-1.9301,-1.9998,-2.0492,-1.9377,-1.8622,-1.8014,-1.7311,0.0,0.0,0.0,0.0,-1.9055,-1.9851,-2.0671,-2.148,-2.2193,-2.2465,-2.2581,-2.2581,-2.2431,-2.1738,0.0,-1.9498,-1.8674,-1.6059,0.0,0.0,0.0,0.0,-1.9452,-2.0217,-2.1468,-2.2296,-2.2296,-2.2296,-2.2296,-2.2296,-2.1803,-2.1059,-2.0052,-1.8966,-1.8014,-1.725,-1.5972,-1.4856,-1.3918,0.0,0.0,0.0,0.0,0.0,0.0,0.0,0.0,0.0,0.0,0.0,0.0,0.0,0.0,0.0,0.0,0.0,0.0,0.0,0.0,0.0,0.0,0.0,0.0,0.0,0.0,0.0,0.0,0.0,-1.7551,-1.7754,0.0,0.0,0.0,0.0,-1.6563,-1.719,-1.8117,-1.9438,-2.0168,-2.0872,-2.153,-2.2239,-2.2897,-2.349,-2.4141,-2.4769,-2.5405,-2.5405,-2.5405,-2.5405,-2.5405,-2.545,-2.551,-2.5435,-2.545,-2.53,-2.2682,-2.1575,-2.1545,-2.147,-2.1425,-2.1395,-2.144,-2.147,-2.15,-2.153,-2.158,-2.1614,-2.1535,-2.0907,-2.0226,-2.0542,-2.0515,0.0,0.0,-2.1771,-2.2522,-2.326,-2.349,-2.3687,-2.4216,-2.3849,-2.3342,-2.3342,-2.2801,-2.2073,0.0,-2.1072,-2.0564,-1.8973,0.0,-1.8724,-1.8674,-1.9406,-2.0234,-2.1038,-2.182,-2.2296,-2.2296,-2.2296,-2.2296,-2.2296,-2.2262,-2.1603,-2.0086,-1.9934,-1.9253,-1.7822,-1.7202,-1.6117,-1.4488,-1.3121,0.0,0.0,0.0,0.0,0.0,0.0,0.0,0.0,0.0,0.0,0.0,0.0,0.0,0.0,0.0,0.0,0.0,0.0,0.0,0.0,0.0,0.0,0.0,0.0,0.0,0.0,0.0,0.0,-1.9591,-1.9999,0.0,-1.8934,-1.9028,-1.9204,-1.9268,-1.9896,-2.0662,-2.158,-2.2218,-2.2877,-2.3543,-2.4223,-2.4672,-2.4881,-2.5113,-2.5352,-2.5615,-2.5615,-2.5615,-2.5615,-2.5615,-2.5839,-2.6213,-2.5794,-2.5854,-2.6138,-2.4777,-2.3969,-2.3513,-2.3086,-2.2921,-2.2877,-2.2493,-2.2598,-2.2849,-2.2335,-2.2436,-2.277,-2.2683,-2.2628,-2.252,-2.2022,-2.2038,-2.2198,-2.2099,-2.2267,-2.2611,-2.3215,-2.3603,-2.3885,-2.4065,-2.4102,-2.4118,-2.4118,-2.3898,-2.3509,-2.2764,-2.2226,-2.1414,-1.9862,-2.042,-2.0741,-1.9761,-2.0673,-2.1586,-2.187,-2.2127,-2.2296,-2.2296,-2.2296,-2.2296,-2.2296,-2.2296,-2.1637,-2.0103,-2.0002,-1.9343,-1.7867,-1.7617,-1.6795,-1.524,-1.427,-1.2766,0.0,0.0,0.0,0.0,0.0,0.0,0.0,0.0,0.0,0.0,0.0,0.0,0.0,0.0,0.0,0.0,0.0,0.0,0.0,0.0,0.0,0.0,0.0,0.0,0.0,0.0,-2.0823,-2.1081,-2.194,-2.2102,-2.1,-2.1477,-2.1793,-2.1684,-2.2308,-2.2877,-2.331,-2.3924,-2.4492,-2.4918,-2.56,-2.5944,-2.5944,-2.6153,-2.6273,-2.6273,-2.6273,-2.6273,-2.6273,-2.6273,-2.6512,-2.6926,-2.6452,-2.6512,-2.6911,-2.6452,-2.6019,-2.5525,-2.4627,-2.4268,-2.4223,-2.3841,-2.3924,-2.4192,-2.3671,-2.3764,-2.4128,-2.3985,-2.4106,-2.4166,-2.3431,-2.3563,-2.3842,-2.3351,-2.3417,-2.3699,-2.4058,-2.4373,-2.4645,-2.4797,-2.4858,-2.488,-2.488,-2.4677,-2.4355,-2.3864,-2.3173,-2.2262,-2.0995,-2.162,-2.1941,-2.0931,-2.1654,-2.2296,-2.2296,-2.2296,-2.2296,-2.2296,-2.2296,-2.2296,-2.2296,-2.2073,-2.1366,-2.0086,-1.9778,-1.9084,-1.785,-1.7557,-1.6847,-1.5612,-1.4394,-1.3084,-1.1705,0.0,0.0,0.0,0.0,0.0,0.0,0.0,0.0,0.0,0.0,0.0,0.0,0.0,0.0,0.0,0.0,0.0,0.0,0.0,0.0,0.0,0.0,0.0,-2.0069,-2.0805,-2.1568,-2.2166,-2.3634,-2.3885,-2.2041,-2.3273,-2.403,-2.3696,-2.4261,-2.4649,-2.4664,-2.5277,-2.5644,-2.5674,-2.6303,-2.6632,-2.6617,-2.733,-2.7645,-2.763,-2.7645,-2.766,-2.766,-2.766,-2.766,-2.766,-2.7645,-2.763,-2.763,-2.76,-2.76,-2.7465,-2.6168,-2.5674,-2.5674,-2.5644,-2.5653,-2.5646,-2.5638,-2.5646,-2.5642,-2.5512,-2.5335,-2.5154,-2.4942,-2.5246,-2.5579,-2.5009,-2.5433,-2.603,-2.6013,-2.6031,-2.6138,-2.659,-2.615,-2.5626,-2.5626,-2.5067,-2.4558,-2.4541,-2.3966,-2.3224,-2.2465,-2.2313,-2.2296,-2.2296,-2.2296,0.0,-2.2296,-2.2296,-2.2296,-2.2296,-2.2296,-2.2296,-2.2296,-2.1647,-2.0873,-2.0052,-1.9333,-1.8589,-1.7834,-1.7111,-1.6384,-1.5646,-1.3481,-1.2556,-1.2953,0.0,0.0,0.0,0.0,0.0,0.0,0.0,0.0,0.0,0.0,0.0,0.0,0.0,0.0,0.0,0.0,0.0,0.0,0.0,0.0,0.0,0.0,-2.1671,-2.1671,-2.3241,-2.4651,-2.5347,-2.6012,-2.6208,-2.5792,-2.5806,-2.5626,-2.5092,-2.5217,-2.5555,-2.6019,-2.6213,-2.6542,-2.7046,-2.7694,-2.7814,-2.733,-2.8483,-2.8813,-2.8323,-2.8828,-2.9052,-2.9052,-2.9052,-2.9052,-2.9022,-2.8558,-2.8323,-2.8278,-2.7809,-2.76,-2.7555,-2.7195,-2.7061,-2.7001,-2.6497,-2.6535,-2.6763,-2.6332,-2.6714,-2.7341,-2.6857,-2.6956,-2.7183,-2.6739,-2.7022,-2.7336,-2.6658,-2.6621,-2.6763,-2.6569,-2.6505,-2.6556,-2.6674,-2.6539,-2.6404,-2.6404,-2.6251,-2.593,-2.5406,-2.5135,-2.4594,-2.3325,-2.2649,-2.2296,-2.2296,-2.2296,0.0,-2.2296,-2.2296,-2.2296,-2.2296,-2.2296,-2.2296,-2.2296,-2.2124,-2.1417,-2.0086,-1.9811,-1.9135,-1.785,-1.7597,-1.7151,-1.64,-1.4749,-1.3952,0.0,0.0,0.0,0.0,0.0,0.0,0.0,0.0,0.0,0.0,0.0,0.0,0.0,0.0,0.0,0.0,0.0,0.0,0.0,0.0,0.0,0.0,-2.2279,-2.3799,-2.4103,-2.5253,-2.6269,-2.6804,-2.7485,-2.775,-2.7428,-2.7518,-2.7312,-2.6504,-2.6687,-2.6981,-2.7376,-2.7698,-2.8033,-2.8379,-2.9073,-2.9126,-2.8438,-2.9217,-2.9412,-2.9011,-2.9427,-2.9606,-2.9606,-2.9606,-2.9606,-2.9592,-2.9175,-2.9011,-2.8966,-2.8304,-2.8184,-2.8378,0.0,0.0,0.0,0.0,-2.7181,-2.7371,-2.7018,-2.7484,-2.8207,-2.7796,-2.8056,-2.8451,-2.7822,-2.8056,-2.8396,-2.7717,-2.7696,-2.7871,-2.7704,-2.7402,-2.7165,-2.7165,-2.6911,-2.6691,-2.6691,-2.6691,-2.6573,-2.615,-2.5812,0.0,-2.4475,-2.346,-2.2665,-2.2347,-2.2296,-2.2296,-2.2296,-2.2296,-2.2296,-2.2296,-2.2296,-2.2296,-2.2296,-2.2023,0.0,0.0,0.0,-1.8882,-1.7405,-1.7337,0.0,0.0,0.0,0.0,0.0,0.0,0.0,0.0,-1.3121,-1.2803,0.0,0.0,0.0,0.0,0.0,0.0,0.0,0.0,0.0,0.0,0.0,0.0,0.0,0.0,0.0,0.0,-2.3951,-2.6015,-2.6826,-2.7029,-2.7178,-2.7415,-2.8433,-2.878,-2.7897,-2.8726,-2.8947,-2.8005,-2.8427,-2.877,-2.8848,0.0,0.0,0.0,0.0,-3.0334,-2.9606,-2.9729,-2.9786,-2.9711,-2.9786,-2.9804,-2.9804,-2.9804,-2.9804,-2.9804,-2.9714,-2.9711,-2.9666,-2.8981,-2.9056,-2.9472,-2.8214,-2.766,-2.7625,-2.7675,-2.7735,-2.7795,-2.7795,0.0,0.0,-2.8472,-2.8785,-2.9124,-2.854,-2.8765,-2.9121,-2.8511,-2.8705,-2.9111,-2.9027,-2.8467,-2.7942,-2.7942,-2.7368,-2.6826,-2.6826,-2.6759,-2.6691,-2.6691,-2.6167,-2.571,-2.5609,-2.4374,-2.3173,-2.2516,-2.2347,-2.2296,-2.2296,-2.2296,-2.2296,-2.2296,-2.2296,0.0,-2.2296,-2.1701,-2.1292,-2.1207,-1.9836,-1.8448,-1.7128,-1.7061,-1.7061,-1.7061,-1.6424,-1.6741,-1.8051,-1.7316,-1.6952,-1.6894,-1.4478,-1.3957,0.0,0.0,0.0,0.0,0.0,0.0,0.0,0.0,0.0,0.0,0.0,0.0,0.0,0.0,0.0,-2.4357,-2.5727,-2.6962,-2.8367,-2.9059,-2.9462,-2.9503,-2.9747,-2.9853,-2.9765,-2.9953,-3.0038,-2.9942,-3.0036,-3.0361,-3.0959,-3.1142,-3.0956,-3.04,-3.1058,-3.0814,-2.9606,-3.0627,-3.0853,-3.0328,0.0,0.0,-3.1122,-3.1122,-3.1122,-3.1092,-3.0567,-3.0328,-3.0283,-2.9654,-2.946,-2.9532,-2.8712,-2.8094,-2.766,-2.814,-2.8638,-2.9065,-2.9065,-2.9134,-2.9232,-2.9201,-2.9265,-2.9425,-2.9768,-3.0302,0.0,-2.9907,-2.9812,-2.9753,-2.9162,-2.8891,-2.8773,-2.8773,-2.8163,-2.7587,-2.7587,-2.7131,-2.6691,-2.6691,-2.6573,-2.6302,-2.5694,-2.4374,-2.3342,-2.3207,-2.2682,-2.2296,-2.2296,-2.2296,-2.2296,-2.2296,-2.2296,-2.2296,-2.2296,-2.2161,-2.1837,-2.1241,-2.0314,-1.9659,-1.9372,-1.9355,-1.9355,-1.9355,-1.9208,-1.9281,-1.9575,-1.8822,-1.8457,-1.844,-1.7304,-1.6607,0.0,0.0,0.0,0.0,0.0,0.0,0.0,0.0,0.0,0.0,0.0,-1.9959,0.0,0.0,-2.4425,-2.5913,-2.7114,-2.8248,-2.9381,-2.9871,-3.0108,-3.0108,-3.0429,-3.0552,-3.0302,-3.0912,-3.1092,-3.0537,-3.1121,-3.1655,-3.2029,-3.2394,-3.2281,-3.1558,-3.2236,-3.1931,-3.0552,-3.1548,-3.17,-3.1002,-3.1715,-3.1853,-3.1511,-3.1511,-3.1511,-3.1481,-3.1137,-3.1199,-3.1543,-3.1597,-3.1004,-3.0105,-3.0094,-2.9489,-2.8584,-2.8571,-2.8744,-2.9,-2.8959,-2.9157,-2.9451,-2.9761,-3.0043,-3.0293,-3.0293,-3.072,-3.1047,-3.0403,-3.0418,-3.0565,-3.0211,-2.9839,-2.955,-2.955,-2.8958,-2.8298,-2.7891,-2.7503,-2.7148,-2.6776,-2.6691,-2.6573,-2.6201,-2.5236,-2.4255,-2.3511,-2.3088,-2.2733,-2.2347,-2.2296,-2.2296,-2.2296,-2.2296,-2.2296,-2.2296,-2.2296,-2.1989,-2.1241,-2.0822,-2.042,-2.0018,-2.0002,-1.9908,-1.9697,-1.9895,-1.9989,-1.9944,-1.977,-1.9672,-1.9594,-1.9192,-1.8529,0.0,0.0,0.0,0.0,0.0,0.0,0.0,0.0,-1.9084,-2.0572,-2.138,-2.229,-2.3765,-2.549,-2.6843,-2.7283,-2.8399,-2.9465,-3.0209,-3.0311,-3.0311,-3.0311,-3.0835,-3.1015,-3.0518,-3.1573,-3.196,-3.1144,-3.2192,-3.2956,-3.3106,-3.3676,-3.3649,-3.294,-3.3471,-3.3193,-3.1923,-3.2504,-3.2504,-3.1923,-3.2504,-3.2477,-3.1879,-3.1768,-3.171,-3.1726,-3.1553,-3.1938,-3.2641,-3.3198,-3.2519,-3.1242,-3.1769,-3.1334,-3.0251,-2.932,-2.9044,-2.9185,-2.9245,-2.95,-2.992,-3.0662,-3.1053,-3.1177,-3.0796,-3.0918,-3.1112,-3.0617,-3.0821,-3.119,-3.119,-3.0768,-3.0311,-3.0311,-2.9753,-2.9025,-2.8382,-2.801,-2.7621,-2.7029,-2.6793,-2.6691,-2.6691,-2.6201,-2.5372,-2.4036,-2.3579,-2.319,-2.2584,-2.2381,-2.2296,-2.2296,-2.2296,-2.2296,-2.2296,-2.2296,-2.2057,-2.1461,-2.141,-2.1126,-2.0475,-2.0454,-2.0293,-1.9968,-2.0184,-2.0276,-2.0236,-2.0401,-2.0399,-2.0297,-2.0212,-1.9728,-1.915,-1.8639,-1.8567,-1.9438,-1.9159,-1.9379,0.0,0.0,-2.2226,-2.3695,-2.4068,-2.4575,-2.6048,-2.6522,-2.7351,-2.9397,-2.9871,-3.0226,-3.097,-3.1072,-3.1072,-3.1072,-3.114,-3.1171,-3.1112,-3.183,-3.2519,-3.3051,-3.3818,-3.457,-3.5223,-3.5324,-3.5067,-3.4388,-3.4446,-3.4137,-3.3375,-3.3469,-3.3469,-3.3375,-3.3469,-3.3427,-3.3323,-3.2761,-3.2492,-3.2437,-3.1796,-3.1938,-3.2629,-3.2668,-3.2919,-3.3281,-3.3335,-3.3268,-3.2917,-3.1,-3.0654,-3.1262,-3.1781,-3.1656,-3.1459,-3.2655,-3.2285,-3.1464,-3.1916,-3.1658,-3.119,-3.1131,-3.1151,-3.119,-3.119,-3.114,-3.1072,-3.1072,-3.0514,-2.9956,-2.9871,-2.877,-2.7773,-2.7689,-2.7165,-2.6691,-2.6691,-2.6623,-2.6302,-2.549,-2.4239,-2.3359,-2.3291,-2.2716,-2.2296,-2.2296,-2.2296,-2.2296,-2.2296,-2.2296,-2.2262,-2.2178,-2.2192,-2.2127,-2.2043,-2.2043,-2.2029,-2.1987,-2.162,-2.1414,-2.1406,-2.0686,-2.0321,-2.0297,-1.9929,-1.9702,-2.1644,-2.1398,-2.1341,0.0,-2.2057,-2.2494,-2.3746,-2.3814,-2.3866,-2.4915,-2.5135,-2.5592,-2.7063,-2.7723,-2.8484,0.0,-3.0463,-3.0852,-3.1157,-3.119,-3.119,-3.119,-3.119,-3.119,-3.119,-3.2256,-3.3068,-3.3389,-3.4489,-3.5261,-3.5583,-3.56,-3.5276,-3.4624,-3.46,-3.4284,-3.3608,-3.3987,-3.3987,-3.3608,-3.3987,-3.3987,-3.3582,-3.3313,-3.3198,-3.3156,-3.2853,-3.313,-3.3761,-3.3761,-3.3937,-3.4186,-3.4186,-3.4186,-3.3982,-3.2313,-3.1913,-3.2103,-3.1941,-3.1976,-3.2161,-3.2646,-3.2705,-3.2521,-3.235,-3.209,-3.1752,-3.1309,-3.119,-3.119,-3.119,-3.119,-3.119,-3.119,-3.0954,-3.0632,-3.0192,-2.9582,-2.8872,-2.7976,-2.7553,-2.7199,-2.6776,-2.6691,-2.659,-2.6285,-2.4983,-2.3898,-2.346,-2.2767,-2.2296,-2.2296,-2.2296,-2.2296,-2.2296,-2.2296,-2.2296,-2.2296,-2.2296,-2.2296,-2.2296,-2.2296,-2.218,-2.1899,-2.1974,-2.1749,-2.1244,-2.1118,-2.0797,-2.0297,-2.0124,-1.9912,-2.3464,0.0,0.0,-2.3653,-2.4101,-2.4541,-2.4762,-2.4795,-2.5015,-2.5744,-2.5913,-2.6285,-2.757,-2.8467,-2.9247,-2.9989,-3.0717,-3.119,-3.119,-3.119,-3.119,-3.119,-3.119,-3.119,-3.119,-3.2341,-3.3186,-3.3389,-3.4568,-3.538,-3.5583,-3.56,-3.5385,-3.4894,-3.4894,-3.464,-3.4178,-3.464,-3.464,-3.4178,-3.464,-3.4616,-3.4153,-3.3962,-3.3761,-3.3582,-3.3582,-3.3987,-3.46,-3.46,-3.4712,-3.4894,-3.4894,-3.4894,-3.4757,-3.3785,-3.3324,-3.3072,-3.2555,-3.2662,-3.3112,-3.3237,-3.3478,-3.3592,-3.3072,-3.2615,-3.2192,-3.1667,-3.136,-3.119,-3.119,-3.119,-3.119,-3.119,-3.119,-3.1055,-3.0531,-3.0243,-2.9768,-2.8652,-2.8094,-2.7621,-2.7097,-2.6826,-2.6691,-2.6691,-2.5625,-2.4541,-2.3814,-2.2885,-2.2296,-2.2296,-2.2296,-2.2296,-2.2296,-2.2296,-2.2296,-2.2296,-2.2296,-2.2296,-2.2296,-2.2296,-2.2135,-2.1794,-2.2003,-2.1751,-2.0991,-2.1149,-2.0846,-2.0141,-2.0141,-1.9982,0.0,0.0,-2.43,-2.4435,-2.4474,-2.4694,-2.5406,-2.5575,-2.5778,-2.6505,-2.6657,-2.6894,-2.7655,-2.8467,-2.9247,-2.9989,-3.0717,-3.119,-3.119,-3.119,-3.119,-3.119,-3.119,-3.119,0.0,-3.1904,-3.2632,-3.3355,-3.41,-3.4844,-3.5566,-3.56,-3.56,-3.5577,-3.5577,-3.5577,-3.5554,-3.5577,-3.5577,-3.5554,-3.5577,-3.5577,-3.5515,-3.4871,-3.4211,-3.3582,-3.3582,-3.3987,-3.46,-3.46,-3.4988,-3.5577,-3.5577,-3.5577,-3.556,-3.5521,-3.5105,-3.4543,-3.451,-3.451,-3.4646,-3.5295,-3.5025,-3.4455,-3.4438,-3.3444,-3.2293,-3.2276,-3.1752,-3.119,-3.119,-3.119,-3.119,-3.119,-3.119,-3.119,-3.1157,-3.0598,-3.0091,-3.0038,-2.8821,-2.779,-2.7773,-2.7182,-2.6691,-2.6691,-2.6048,-2.5304,-2.4558,-2.319,-2.2296,-2.2296,-2.2296,-2.2296,-2.2296,-2.2296,-2.2296,-2.2296,-2.2296,-2.2296,-2.2296,-2.2296,-2.2296,-2.2282,-2.1838,-2.1414,-2.0991,-2.055,-2.0124,-1.9711,-1.9711,-1.9711,-2.4755,0.0,-2.586,-2.5668,-2.6157,-2.664,-2.6387,-2.6725,-2.6979,-2.6742,-2.6302,-2.6353,-2.757,-2.7621,-2.8044,-2.982,-3.0311,-3.0649,-3.1123,-3.1633,-3.1752,-3.1258,-3.1613,0.0,0.0,0.0,0.0,-3.3339,-3.4083,-3.481,-3.5549,-3.56,-3.56,-3.56,-3.56,-3.56,-3.56,-3.56,-3.56,-3.56,-3.6146,-3.64,-3.6383,-3.6142,-3.5937,-3.5673,-3.4685,-3.4945,-3.5974,-3.4998,-3.5005,-3.56,-3.56,-3.56,-3.56,-3.56,-3.547,-3.5207,-3.4759,-3.4894,-3.523,-3.5005,-3.5063,-3.5148,-3.4641,-3.415,-3.3563,-3.2581,-3.2124,-3.1819,-3.1326,-3.119,-3.119,-3.119,-3.119,-3.119,-3.119,-3.1004,-3.0683,-3.0192,-2.9296,-2.8433,-2.7891,-2.7199,-2.6691,-2.6691,-2.6065,-2.5338,-2.4592,-2.3644,-2.3038,-2.3038,-2.2584,-2.2296,-2.2296,-2.2296,-2.2296,-2.2296,-2.2296,-2.2296,-2.2296,-2.2296,-2.2296,-2.2296,-2.2135,-2.184,-2.1399,-2.0959,-2.0533,-2.0089,-1.9821,-1.9708,-2.5847,-2.6499,-2.7112,-2.7192,-2.7726,-2.8044,-2.7266,-2.7452,-2.7519,-2.6505,-2.593,-2.5812,-2.6505,-2.6454,-2.6962,-2.8939,-2.9734,-3.0446,-3.1444,-3.2005,-3.2226,-3.2002,-3.2175,-3.2226,0.0,0.0,0.0,-3.3372,-3.4083,-3.481,-3.5549,-3.56,-3.56,-3.56,-3.56,-3.56,-3.56,-3.5893,-3.6163,-3.6428,-3.6941,-3.7178,-3.7178,-3.7178,-3.7178,-3.7121,-3.6188,-3.6319,-3.7087,-3.5904,-3.5633,-3.6011,-3.5701,-3.56,-3.56,-3.56,-3.56,-3.5554,-3.5098,-3.523,-3.5515,-3.5098,-3.5253,-3.5498,-3.5047,-3.4709,-3.4286,-3.3359,-3.2716,-3.2192,-3.1718,-3.1393,-3.119,-3.119,-3.119,-3.119,-3.119,-3.119,-3.1055,-3.0581,-2.9888,-2.9144,-2.8366,-2.7385,-2.6691,-2.6691,-2.6302,-2.5727,-2.4983,-2.4254,-2.3695,-2.3427,-2.2987,-2.2584,-2.2313,-2.2296,-2.2296,-2.2296,-2.2296,-2.2296,-2.2296,-2.2296,-2.2296,-2.2296,-2.2135,-2.184,-2.1384,-2.1118,-2.0682,-2.0072,-1.9965,-1.9839,-2.746,-2.7893,-2.811,-2.8869,-2.9029,-2.879,-2.7976,-2.7773,-2.7334,-2.5913,-2.5541,-2.5303,0.0,0.0,-2.6065,-2.7553,-2.9058,-3.0565,-3.209,-3.2327,-3.2632,0.0,0.0,0.0,0.0,0.0,0.0,-3.3457,0.0,-3.481,-3.5549,-3.56,-3.56,-3.56,-3.5633,-3.565,-3.565,-3.6451,-3.7212,-3.7973,-3.7973,-3.7973,-3.7973,-3.7973,-3.7973,-3.7956,-3.7922,-3.7922,-3.7905,-3.7144,-3.6829,-3.6728,-3.596,-3.5633,-3.56,-3.56,-3.56,-3.56,-3.56,-3.56,-3.56,-3.56,-3.56,-3.56,-3.56,-3.5115,-3.4539,-3.4506,-3.3495,-3.2395,-3.2327,-3.1785,-3.1241,-3.1207,-3.119,-3.119,-3.119,-3.119,-3.119,-3.119,-3.0598,-2.9854,-2.9077,-2.774,-2.6742,-2.6725,-2.6691,-2.6437,-2.5761,-2.5015,-2.4271,-2.3543,-2.341,-2.3105,-2.2347,-2.2296,-2.2296,-2.2296,-2.2296,-2.2296,-2.2296,-2.2296,-2.2296,-2.2296,-2.1853,-2.143,-2.1023,-2.1023,-2.0582,-1.9729,-2.0124,-2.0072,-2.8573,-2.9129,-2.9644,-2.9844,-2.9438,-2.879,-2.7976,-2.7367,-2.6725,-2.5778,-2.4927,-2.4362,0.0,0.0,0.0,-2.7521,-2.8636,0.0,-3.2022,-3.2763,0.0,-3.3389,0.0,-3.3795,-3.344,-3.3897,0.0,0.0,-3.4387,-3.481,-3.5549,-3.56,-3.56,-3.56,-3.618,-3.6485,-3.6485,-3.7246,-3.799,-3.8717,-3.8717,-3.8717,-3.8717,-3.8717,-3.8717,-3.8684,-3.8142,-3.821,-3.865,-3.7922,-3.7297,-3.6778,-3.6552,-3.6129,-3.56,-3.56,-3.56,-3.56,-3.56,-3.56,-3.56,-3.56,-3.56,-3.56,-3.56,-3.5464,-3.5194,-3.4641,-3.4218,-3.3698,-3.2598,-3.2158,-3.1887,-3.1326,-3.119,-3.119,-3.119,-3.119,-3.119,-3.119,-3.0598,-2.9666,-2.8331,-2.7773,-2.7317,-2.6776,-2.6691,-2.6623,-2.6437,-2.5778,-2.5033,-2.4305,-2.3729,-2.3105,-2.2347,-2.2296,-2.2296,-2.2296,-2.2296,-2.2296,-2.2296,-2.2296,-2.2296,-2.2296,-2.218,-2.1899,-2.1445,-2.1445,-2.1007,-2.0158,-2.0246,-2.0072,-3.0073,-3.0662,-3.0897,-3.0504,-3.0092,-2.9313,-2.769,-2.7097,-2.6428,-2.4688,-2.4107,0.0,-2.2853,0.0,0.0,0.0,0.0,0.0,-3.1989,-3.2933,-3.3643,0.0,-3.4455,0.0,-3.4366,-3.4742,-3.4979,0.0,-3.4979,-3.5165,-3.5583,-3.56,-3.5752,-3.6129,-3.6575,-3.7117,-3.7777,-3.8176,-3.8751,-3.9486,-3.9486,-3.9486,-3.9486,-3.9486,-3.9486,-3.9469,-3.9039,-3.9089,-3.9436,-3.8684,-3.8142,-3.7709,-3.7049,-3.6502,-3.6079,-3.5718,-3.56,-3.56,-3.56,-3.56,-3.56,-3.56,-3.56,-3.56,-3.56,-3.56,-3.5515,-3.5115,-3.4742,-3.4303,-3.3495,-3.2801,-3.2192,-3.1785,-3.1427,-3.119,-3.119,-3.119,-3.119,-3.119,-3.0598,-2.9736,-2.8535,-2.8027,-2.7553,-2.681,-2.6691,-2.6691,-2.6691,-2.6336,-2.5795,-2.5066,-2.4611,-2.4069,-2.3325,-2.297,-2.2784,-2.2784,-2.2482,-2.2296,-2.2296,-2.2296,-2.2296,-2.2296,-2.2106,-2.1853,-2.1597,-2.1597,-2.1149,-2.0299,-2.0516,-2.0278,-3.1574,-3.213,-3.1942,-3.109,-3.0646,-2.9782,-2.74,-2.6696,-2.5818,-2.3275,0.0,-2.2911,-2.0903,-2.2089,-2.3665,-2.4642,0.0,-2.9687,-3.2107,-3.3,-3.3964,-3.5414,-3.5047,-3.4895,-3.5532,-3.56,-3.56,-3.56,-3.56,-3.56,-3.56,-3.56,-3.6011,-3.6931,-3.7049,-3.776,-3.9123,-3.914,-3.9486,-4.0096,-4.0096,-4.0096,-4.0096,-4.0096,-4.0096,-4.0096,-4.0096,-4.0096,-4.0045,-3.9419,-3.9089,-3.8853,-3.7489,-3.6897,-3.6711,-3.591,-3.56,-3.56,-3.56,-3.56,-3.56,-3.56,-3.56,-3.56,-3.56,-3.56,-3.56,-3.56,-3.5148,-3.4624,-3.4523,-3.3495,-3.2429,-3.2327,-3.1752,-3.119,-3.119,-3.119,-3.119,-3.119,-3.0683,-3.0006,-2.9281,-2.8484,-2.7705,-2.6962,-2.6759,-2.6691,-2.6691,-2.6691,-2.642,-2.5693,-2.5592,-2.5304,-2.4558,-2.3831,-2.3393,-2.3393,-2.2716,-2.2296,-2.2296,-2.2296,-2.2296,-2.2296,-2.1899,-2.1643,-2.1521,-2.1567,-2.1134,-2.0229,-2.0682,-2.0465,-3.2224,-3.2742,-3.2793,-3.1978,-3.0315,-2.8665,-2.7805,-2.5308,0.0,0.0,-2.216,-2.1393,-2.1319,-2.2327,-2.3854,-2.5976,0.0,0.0,0.0,0.0,-3.3964,0.0,0.0,0.0,0.0,0.0,0.0,0.0,-3.56,-3.56,-3.56,-3.56,-3.6242,-3.7669,-3.8294,-3.9022,-3.991,-3.991,-3.9977,-4.0096,-4.0096,-4.0096,-4.0096,-4.0096,-4.0096,-4.0096,-4.0096,0.0,-4.0096,-3.996,-3.9554,-3.8903,-3.8058,-3.733,-3.6711,-3.591,-3.56,-3.56,-3.56,-3.56,-3.56,-3.56,-3.56,-3.56,-3.56,-3.56,-3.56,-3.56,-3.5498,-3.5261,-3.4658,-3.3863,-3.3051,-3.2446,-3.1752,-3.119,-3.119,-3.119,-3.119,-3.119,-3.1089,-3.0768,-3.004,-2.9279,-2.8518,-2.7722,-2.7097,-2.6691,-2.6691,-2.6691,-2.642,-2.5693,-2.5592,-2.5304,-2.4558,-2.3831,-2.3393,-2.3393,-2.2716,-2.2296,-2.2296,-2.2296,-2.2296,-2.2296,-2.2223,-2.1825,-2.1102,-2.143,-2.0975,-1.9803,-2.0227,-2.0158,-3.2381,-3.3049,-3.3174,-3.1779,-3.0238,-2.8649,-2.6985,0.0,0.0,0.0,-2.16,-2.0919,-2.0308,0.0,0.0,0.0,0.0,0.0,0.0,0.0,0.0,0.0,0.0,0.0,0.0,0.0,0.0,0.0,-3.56,-3.56,-3.56,-3.636,-3.7121,-3.7889,-3.8988,-3.974,-4.0096,-4.0096,-4.0096,-4.0096,-4.0096,-4.0096,-4.0096,-4.0096,-4.0096,-4.0096,-4.0096,-4.0096,-4.0096,-4.0096,-3.9893,-3.9469,-3.8345,-3.7686,-3.7229,-3.6039,-3.56,-3.56,-3.56,-3.56,-3.56,-3.56,-3.56,-3.56,-3.56,-3.56,-3.56,-3.56,-3.56,-3.5515,-3.5165,-3.4252,-3.3322,-3.2949,-3.2019,-3.119,-3.119,-3.119,-3.119,-3.119,-3.119,-3.097,-3.0243,-2.9482,-2.8739,-2.7925,-2.7182,-2.6691,-2.6691,-2.6691,-2.6556,-2.6201,-2.6167,-2.6031,-2.5675,-2.4966,-2.4374,-2.4,-2.3274,-2.2699,-2.2313,-2.2296,-2.2296,-2.2296,-2.2296,-2.2092,-2.1691,-2.1628,-2.1291,-2.0682,-2.0433,-2.021,-3.2326,-3.3201,-3.335,-3.1474,-3.0193,-2.8719,-2.6292,-2.4336,0.0,0.0,-2.1095,-2.0498,-1.9434,0.0,0.0,0.0,0.0,0.0,0.0,0.0,0.0,0.0,0.0,0.0,0.0,0.0,0.0,0.0,-3.56,-3.56,-3.56,-3.7053,-3.7905,-3.7905,-3.9326,-4.0096,-4.0096,-4.0096,-4.0096,-4.0096,-4.0096,-4.0096,-4.0096,-4.0096,-4.0096,-4.0096,-4.0096,-4.0096,-4.0096,-4.0096,-4.0096,-3.996,-3.8481,-3.7905,-3.7719,-3.6157,-3.56,-3.56,-3.56,-3.56,-3.56,-3.56,-3.56,-3.56,-3.56,-3.56,-3.56,-3.56,-3.56,-3.56,-3.56,-3.4501,-3.3322,-3.3,-3.2036,-3.119,-3.119,-3.119,-3.119,-3.119,-3.119,-3.1021,-3.0446,-2.9583,-2.879,-2.8145,-2.7283,-2.6691,-2.6691,-2.6691,-2.6691,-2.6691,-2.6691,-2.6691,-2.6691,-2.6031,-2.5355,-2.4778,-2.4051,-2.3291,-2.2567,-2.2533,-2.2448,-2.2296,-2.2296,-2.2237,-2.2149,-2.1779,-2.1568,-2.1445,-2.0764,-2.0399,-3.2179,-3.3201,-3.3421,-3.1763,-2.997,-2.8239,-2.683,0.0,0.0,-2.1671,-2.0407,-1.938,-1.9903,-1.9978,0.0,0.0,0.0,-2.5862,0.0,0.0,0.0,0.0,0.0,0.0,0.0,0.0,0.0,-3.56,-3.56,-3.56,-3.56,-3.7053,-3.7905,-3.7905,-3.9326,-4.0096,-4.0096,-4.0096,-4.0096,-4.0096,-4.0096,-4.0096,-4.0096,-4.0096,-4.0096,-4.0096,-4.0096,-4.0096,0.0,-4.0096,-4.0096,-3.996,-3.8481,-3.7905,-3.7719,-3.6157,-3.56,-3.56,-3.56,-3.56,-3.56,-3.56,-3.56,-3.56,-3.56,-3.56,-3.56,-3.56,-3.56,-3.56,-3.56,-3.4501,-3.3068,-3.1715,-3.1292,-3.119,-3.119,-3.119,-3.119,-3.119,-3.119,-3.1173,-3.1106,-2.9941,-2.8976,-2.8908,-2.7639,-2.6691,-2.6691,-2.6691,-2.6691,-2.6691,-2.6691,-2.6691,-2.6691,-2.6031,-2.5575,-2.5507,-2.4812,-2.4068,-2.3325,-2.3291,-2.2987,-2.2313,-2.2296,-2.2092,-2.1658,-2.1612,-2.1414,-2.1039,-2.0975,-2.0715,-3.1439,-3.21,-3.2192,-3.1562,-2.9734,-2.7828,-2.6819,0.0,-2.1516,-2.1759,-2.0406,-1.9273,-1.9567,-1.9804,-2.0385,-2.1779,-2.2393,-2.3716,-2.661,0.0,0.0,0.0,0.0,0.0,0.0,0.0,0.0,-3.56,-3.56,-3.5802,-3.6299,-3.733,-3.8108,-3.8548,-3.9571,-4.0096,-4.0096,-4.0096,-4.0096,-4.0096,-4.0096,-4.0096,-4.0096,-4.0096,-4.0096,-4.0096,-4.0096,-4.0096,0.0,-3.9622,-3.9453,-3.93,-3.7804,-3.7229,-3.7094,-3.5988,-3.56,-3.56,-3.56,-3.56,-3.56,-3.56,-3.56,-3.56,-3.56,-3.56,-3.56,-3.56,-3.56,-3.5498,-3.5064,-3.3829,-3.2476,-3.1444,-3.119,-3.119,-3.119,-3.119,-3.119,-3.119,-3.119,-3.119,-3.119,-2.9991,-2.8993,-2.8993,-2.769,-2.6691,-2.6691,-2.6691,-2.6691,-2.6691,-2.6691,-2.6691,-2.6691,-2.642,-2.6065,-2.5626,-2.5321,-2.4831,-2.4085,-2.4068,-2.3932,-2.363,-2.319,-2.288,-2.2685,-2.1948,-2.1521,-2.1353,-2.1102,-2.0969,-3.032,-3.1035,-3.1342,-3.1103,-2.9402,-2.7541,0.0,-2.3942,-2.1721,-2.1482,-2.0288,-1.9297,-1.9297,-1.9753,-2.0305,-2.0858,-2.1539,-2.2815,-2.5178,-2.6482,0.0,0.0,0.0,0.0,0.0,0.0,-3.56,-3.56,-3.56,-3.596,-3.6761,-3.728,-3.8007,-3.8954,-3.9723,-4.0096,-4.0096,-4.0096,-4.0096,-4.0096,-3.9893,-3.9893,-4.0096,-3.9876,-3.9893,-4.0096,-3.9876,-3.9774,0.0,-3.8971,-3.8667,-3.8548,-3.7303,-3.6795,-3.6711,-3.591,-3.56,-3.56,-3.56,-3.56,-3.56,-3.56,-3.56,-3.56,-3.56,-3.56,-3.56,-3.56,-3.56,-3.538,-3.4421,-3.3389,-3.2395,-3.1427,-3.119,-3.119,-3.119,-3.119,-3.119,-3.119,-3.119,-3.119,-3.119,-2.9991,-2.8993,-2.8993,-2.769,-2.6691,-2.6691,-2.6691,-2.6691,-2.6691,-2.6691,-2.6691,-2.6691,-2.6691,-2.6471,-2.5964,-2.593,-2.5592,-2.4863,-2.4829,-2.4728,-2.4491,-2.4,-2.3729,-2.3714,-2.2872,-2.2455,-2.2455,-2.2161,-2.197,-2.8803,-3.0191,-3.1213,-3.0411,-2.8998,-2.7376,0.0,-2.3538,-2.1555,-2.0694,-1.9877,-1.9297,-1.9297,-1.9779,-2.0436,-2.1173,-2.2364,-2.4008,-2.6356,-2.76,0.0,0.0,0.0,0.0,0.0,0.0,-3.56,-3.56,-3.56,0.0,-3.6761,-3.6812,-3.7489,-3.8937,-3.9723,-4.0096,-4.0096,-4.0096,-4.0096,-4.0096,-3.9343,-3.9402,-4.0079,-3.9326,-3.9419,-4.0062,-3.9326,-3.9005,0.0,-3.8227,-3.7922,-3.7838,-3.71,-3.6795,-3.6711,-3.591,-3.56,-3.56,-3.56,-3.56,-3.56,-3.56,-3.56,-3.56,-3.56,-3.56,-3.56,-3.56,-3.56,-3.5261,-3.3795,-3.3406,-3.3017,-3.1546,-3.119,-3.119,-3.119,-3.119,-3.119,-3.119,-3.119,-3.119,-3.119,-2.9991,-2.8993,-2.8993,-2.769,-2.6691,-2.6691,-2.6691,-2.6691,-2.6691,-2.6691,-2.6691,-2.6691,-2.6691,-2.6691,-2.6691,-2.6691,-2.6353,-2.5625,-2.5592,-2.5253,-2.4508,-2.4491,-2.4491,-2.4491,-2.4474,-2.4474,-2.4474,-2.4474,-2.3966,-2.6987,-2.7732,-2.8062,-2.7805,-2.6943,-2.5888,-2.4824,-2.3134,-2.1555,-2.0676,-1.9858,-1.9297,-1.9297,-1.9463,-2.0141,-2.1834,-2.2452,0.0,0.0,0.0,0.0,0.0,0.0,0.0,0.0,0.0,-3.56,-3.56,-3.56,-3.596,-3.6761,-3.6795,-3.7489,-3.8937,-3.8734,-3.8836,-3.9326,-3.8853,-3.8599,-3.8582,-3.8362,-3.8379,-3.8582,-3.8345,-3.8379,-3.8582,-3.8345,-3.8261,-3.8193,-3.7449,-3.7168,-3.706,-3.6299,-3.5994,-3.596,-3.5684,-3.56,-3.56,-3.56,-3.56,-3.56,-3.56,-3.56,-3.56,-3.56,-3.56,-3.56,-3.56,-3.525,-3.4624,-3.366,-3.3034,-3.2412,-3.1427,-3.119,-3.119,-3.119,-3.119,-3.119,-3.119,-3.119,-3.119,-3.119,-3.0395,-2.9583,-2.9077,-2.8112,-2.7283,-2.6759,-2.6691,-2.6691,-2.6691,-2.6691,-2.6691,-2.6691,-2.6691,-2.6691,-2.6691,-2.6691,-2.659,-2.6353,-2.6353,-2.6234,-2.6014,-2.5507,-2.5253,-2.5253,-2.4745,-2.4491,-2.4492,-2.4364,-2.4112,0.0,-2.5915,-2.6227,-2.6521,-2.5768,-2.475,-2.3933,-2.2483,-2.107,-2.0217,-1.9656,-1.9297,-1.9297,-1.9554,-2.0305,-2.197,-2.2486,-2.349,0.0,0.0,0.0,0.0,0.0,0.0,0.0,-3.5727,-3.581,-3.5622,-3.56,-3.5802,-3.6315,-3.6349,-3.6907,-3.8125,-3.799,-3.8125,-3.8582,-3.8142,-3.7905,-3.7905,-3.7618,-3.7635,-3.7889,-3.7618,-3.7635,-3.7889,-3.7601,-3.7483,0.0,-3.6654,-3.6349,-3.6299,-3.5785,-3.56,-3.56,-3.56,-3.56,-3.56,-3.56,-3.56,-3.56,-3.56,-3.56,-3.56,-3.56,-3.56,-3.56,-3.56,-3.5261,-3.4675,-3.366,-3.3051,-3.2459,-3.1427,-3.119,-3.119,-3.119,-3.119,-3.119,-3.119,-3.119,-3.119,-3.119,-3.0598,-2.9939,-2.9482,-2.8483,-2.7621,-2.7182,-2.686,-2.6691,-2.6691,-2.6691,-2.6691,-2.6691,-2.6691,-2.6691,-2.6691,-2.6691,-2.6691,-2.6691,-2.6691,-2.6691,-2.6691,-2.6251,-2.6031,-2.6015,-2.5557,-2.5337,-2.5321,-2.502,-2.4747,0.0,0.0,0.0,0.0,-2.5089,-2.3823,-2.3006,-2.163,0.0,-1.9481,-1.9297,-1.9315,-1.937,-2.0005,-2.0823,-2.1812,-2.2648,0.0,0.0,0.0,0.0,0.0,0.0,0.0,-3.5412,-3.6044,-3.6228,-3.5694,-3.5667,-3.5644,-3.56,-3.56,-3.5943,-3.6694,-3.7381,-3.777,-3.7821,-3.777,-3.7753,-3.7736,-3.7026,-3.706,-3.7719,-3.7026,-3.7077,0.0,-3.7009,-3.6711,-3.666,-3.591,-3.56,-3.56,-3.56,-3.56,-3.56,-3.56,-3.56,-3.56,-3.56,-3.56,-3.56,-3.56,-3.56,-3.56,-3.56,-3.56,-3.56,-3.56,-3.56,-3.5261,-3.3774,-3.3406,-3.3034,-3.1546,-3.119,-3.119,-3.119,-3.119,-3.119,-3.119,-3.119,-3.119,-3.119,-3.0632,-3.0176,-3.0125,-2.8872,-2.7925,-2.7824,-2.7199,-2.6759,-2.6725,-2.6691,-2.6691,-2.6691,-2.6691,-2.6691,-2.6691,-2.6691,-2.6691,-2.6691,-2.6691,-2.6691,-2.6691,-2.6691,-2.6691,-2.6691,-2.6691,-2.6691,-2.6691,-2.6262,-2.5762,-2.1043,0.0,-2.2528,-2.2052,-2.2152,-2.2143,0.0,-2.0778,-2.0272,0.0,0.0,0.0,-2.0107,-2.0364,-2.119,-2.329,-2.4309,-2.5436,0.0,0.0,0.0,0.0,0.0,-3.6676,-3.6757,-3.6895,-3.6783,-3.6249,-3.6224,-3.6032,-3.5622,-3.56,-3.5684,-3.5893,-3.6039,-3.6451,-3.7066,-3.6451,-3.614,-3.614,-3.5955,-3.5955,-3.6124,-3.5955,-3.5971,-3.6124,-3.5955,-3.5893,-3.5876,-3.5667,-3.56,-3.56,-3.56,-3.56,-3.56,-3.56,-3.56,-3.56,-3.56,-3.56,-3.56,-3.56,-3.56,-3.56,-3.56,-3.56,-3.56,-3.56,-3.56,-3.5261,-3.3774,-3.3406,-3.3034,-3.1546,-3.119,-3.119,-3.119,-3.119,-3.119,-3.119,-3.119,-3.119,-3.119,-3.1055,-3.0751,-3.0173,-2.9785,-2.9125,-2.7959,-2.7655,-2.7317,-2.6759,-2.6691,-2.6691,-2.6691,-2.6691,-2.6691,-2.6691,-2.6691,-2.6691,-2.6691,-2.6691,-2.6691,-2.6691,-2.6691,-2.6691,-2.6691,-2.6691,-2.6691,-2.6691,-2.659,-2.6279,-1.984,-2.0858,-2.1776,-2.1667,-2.1712,-2.1684,-2.1198,0.0,0.0,0.0,0.0,0.0,0.0,0.0,0.0,0.0,-2.4566,0.0,0.0,0.0,0.0,0.0,0.0,-3.7791,0.0,-3.7524,-3.7304,-3.6803,-3.6764,-3.6522,-3.6006,-3.5963,-3.5854,-3.5622,-3.56,-3.5825,-3.6248,-3.5802,-3.56,-3.56,-3.56,-3.56,-3.56,-3.56,-3.56,-3.56,-3.56,-3.56,-3.56,-3.56,-3.56,-3.56,-3.56,-3.56,-3.56,-3.56,-3.56,-3.56,-3.56,-3.56,-3.56,-3.56,-3.56,-3.56,-3.56,-3.56,-3.56,-3.56,-3.56,-3.5329,-3.4201,-3.366,-3.3119,-3.1968,-3.1464,-3.119,-3.119,-3.119,-3.119,-3.119,-3.119,-3.119,-3.119,-3.119,-3.1055,-3.0666,-3.0328,-2.9785,-2.8956,-2.8551,-2.8061,-2.73,-2.7199,-2.7063,-2.6725,-2.6691,-2.6691,-2.6691,-2.6691,-2.6691,-2.6691,-2.6691,-2.6691,-2.6691,-2.6691,-2.6691,-2.6691,-2.6691,-2.6691,-2.6691,-2.6691,-2.6436,-1.9444,-2.0619,-2.1923,-2.2474,-2.2208,-2.1794,0.0,0.0,0.0,0.0,0.0,0.0,0.0,0.0,0.0,0.0,0.0,0.0,0.0,0.0,0.0,0.0,-3.8707,0.0,-3.8065,-3.8013,-3.7825,-3.7341,-3.7304,-3.7078,-3.656,-3.6519,-3.6312,-3.5854,-3.5744,-3.5717,-3.5717,-3.5644,-3.56,-3.56,-3.56,-3.56,-3.56,-3.56,-3.56,-3.56,-3.56,-3.56,-3.56,-3.56,-3.56,-3.56,-3.56,-3.56,-3.56,-3.56,-3.56,-3.56,-3.56,-3.56,-3.5622,-3.5694,-3.5667,-3.5622,-3.5694,-3.565,-3.56,-3.56,-3.565,-3.5547,-3.4805,-3.4058,-3.3328,-3.2584,-3.1794,-3.121,-3.1271,-3.1291,-3.1291,-3.1291,-3.1291,-3.1271,-3.121,-3.119,-3.119,-3.119,-3.0666,-3.0243,-3.0106,-2.955,-2.8856,-2.806,-2.7976,-2.7672,-2.6928,-2.686,-2.6826,-2.6725,-2.6691,-2.6691,-2.6691,-2.6691,-2.6691,-2.6691,-2.6691,-2.6691,-2.6691,-2.6691,-2.6691,-2.6691,-2.6691,-2.6487,-2.0126,-2.1033,-2.1647,-2.1043,-2.1345,-2.1794,-2.1794,0.0,0.0,0.0,0.0,0.0,0.0,0.0,0.0,0.0,0.0,0.0,0.0,0.0,-3.5864,-3.8398,0.0,-3.8658,-3.8596,-3.8596,-3.8366,-3.7825,-3.779,-3.7578,-3.7097,-3.7095,-3.7057,-3.6962,-3.6501,-3.6287,-3.6287,-3.5827,-3.56,-3.56,-3.56,-3.56,-3.56,-3.56,-3.56,-3.56,-3.56,-3.56,-3.56,-3.56,-3.56,-3.56,-3.56,-3.56,-3.56,-3.56,-3.56,-3.56,-3.56,-3.56,-3.5672,-3.6139,-3.5985,-3.5672,-3.6139,-3.5963,-3.56,-3.56,-3.592,-3.6098,-3.5379,-3.4619,-3.3896,-3.3156,-3.207,-3.1291,-3.1623,-3.175,-3.1785,-3.1715,-3.1715,-3.1603,-3.1252,-3.119,-3.119,-3.119,-3.1106,-3.0801,-3.0192,-3.0006,-2.9651,-2.8908,-2.8824,-2.8484,-2.7705,-2.7621,-2.735,-2.6742,-2.6691,-2.6691,-2.6691,-2.6691,-2.6691,-2.6691,-2.6691,-2.6691,-2.6691,-2.6691,-2.6691,-2.6691,-2.6691,-2.6657,-1.9748,-2.0821,-2.1702,-2.129,-2.1822,-2.2446,-2.2446,0.0,0.0,0.0,0.0,0.0,0.0,0.0,0.0,0.0,0.0,-3.2981,-3.5367,-3.6083,-3.6945,0.0,0.0,-3.8707,-3.8707,-3.8707,-3.8611,-3.835,-3.8316,-3.8117,-3.7596,-3.7578,-3.747,-3.7209,-3.696,-3.6843,-3.6843,-3.6583,-3.6165,-3.56,-3.56,-3.56,-3.56,-3.56,-3.56,-3.56,-3.56,-3.56,-3.56,-3.56,-3.56,-3.56,-3.56,-3.56,-3.56,-3.56,-3.56,-3.56,-3.56,-3.56,-3.5694,-3.6224,-3.6049,-3.5694,-3.6245,-3.6028,-3.56,-3.56,-3.5985,-3.6309,-3.5983,-3.505,-3.4098,-3.3771,-3.2419,-3.131,-3.1697,-3.186,-3.1949,-3.2144,-3.1969,-3.1734,-3.1564,-3.1351,-3.119,-3.119,-3.1389,-3.1312,-3.0772,-3.0878,-3.0663,-2.9705,-2.9583,-2.911,-2.7908,-2.7807,-2.7486,-2.6742,-2.6691,-2.6691,-2.6691,-2.6691,-2.6691,-2.6691,-2.6691,-2.6691,-2.6691,-2.6691,-2.6691,-2.6691,-2.6691,-2.6691,-1.9473,-2.0527,-2.1592,-2.1978,0.0,-2.3318,-2.3529,0.0,0.0,0.0,0.0,0.0,0.0,0.0,0.0,-3.021,-3.2632,-3.4669,-3.634,-3.7107,-3.7804,-3.8597,-3.8707,-3.8707,-3.8707,-3.8707,-3.8707,-3.8707,-3.8707,-3.853,-3.8099,-3.8082,-3.7911,-3.756,-3.7415,-3.736,-3.736,-3.7248,-3.6726,-3.5805,-3.5902,-3.5832,-3.56,-3.5739,-3.5717,-3.56,-3.56,-3.56,-3.56,-3.56,-3.56,-3.56,-3.56,-3.56,-3.56,-3.56,-3.56,-3.56,-3.56,-3.5672,-3.5876,-3.6416,-3.6312,-3.6054,-3.646,-3.6207,-3.5783,-3.5783,-3.6165,-3.6548,-3.6336,-3.5172,-3.4078,-3.4078,-3.2676,-3.1468,-3.1879,-3.2092,-3.23,-3.2599,-3.2281,-3.1915,-3.1825,-3.1468,-3.119,-3.119,-3.1528,-3.1641,-3.1252,-3.1547,-3.1434,-3.047,-3.0362,-2.982,-2.8449,-2.8179,-2.7756,-2.7012,-2.6793,-2.6691,-2.6691,-2.6691,-2.6691,-2.6691,-2.6691,-2.6691,-2.6691,-2.6691,-2.6691,-2.6691,-2.6691,-2.6691,-2.0016,-2.0511,-2.097,-2.2529,-2.3529,0.0,-2.5062,-2.575,0.0,-2.6264,0.0,0.0,0.0,0.0,0.0,-3.2142,-3.383,-3.55,-3.718,0.0,-3.7804,-3.8597,-3.8707,-3.8707,-3.8707,-3.8707,-3.8707,-3.8707,-3.8707,-3.8673,-3.8643,-3.8643,-3.8627,-3.8596,-3.8117,-3.7842,-3.7842,-3.7415,-3.6921,-3.6333,-3.6862,-3.6545,-3.5622,-3.6118,-3.6075,-3.56,-3.56,-3.56,-3.56,-3.56,-3.56,-3.56,-3.56,-3.56,-3.56,-3.56,-3.56,-3.56,-3.56,-3.592,-3.6437,-3.698,-3.7133,-3.7078,-3.7133,-3.6764,-3.6333,-3.6333,-3.6724,-3.6957,-3.6159,-3.4853,-3.3739,-3.3739,-3.2721,-3.1897,-3.235,-3.2811,-3.3124,-3.3136,-3.2761,-3.2316,-3.1879,-3.1468,-3.119,-3.119,-3.1528,-3.1641,-3.1252,-3.1547,-3.1624,-3.1164,-3.1123,-3.0801,-3.0006,-2.9313,-2.8569,-2.7773,-2.708,-2.6691,-2.6691,-2.6691,-2.6691,-2.6691,-2.6691,-2.6691,-2.6691,-2.6691,-2.6691,-2.6691,-2.6691,-2.6691,-1.9493,-2.0501,-2.1455,-2.2097,0.0,0.0,0.0,-2.6025,-2.6741,-2.7236,-2.7989,0.0,0.0,0.0,-3.1311,-3.2417,-3.4399,-3.6193,-3.7345,-3.7933,-3.8358,-3.867,-3.8707,-3.8707,-3.8707,-3.8707,-3.8707,-3.8707,-3.8707,-3.8707,-3.8707,-3.8707,-3.8707,-3.8707,-3.8496,-3.8399,-3.8399,-3.8218,-3.7861,-3.7323,-3.7248,-3.6805,-3.6097,-3.6291,-3.6097,-3.56,-3.56,-3.56,-3.56,-3.56,-3.56,-3.56,-3.56,-3.56,-3.56,-3.56,-3.56,-3.5667,-3.5985,-3.6224,-3.6539,-3.7378,-3.7433,-3.7209,-3.7209,-3.6667,-3.6031,-3.5746,-3.5888,-3.6182,-3.6343,-3.5437,-3.4321,-3.3825,-3.2739,-3.1915,-3.2401,-3.2874,-3.3273,-3.3522,-3.2981,-3.2534,-3.2647,-3.2074,-3.1677,-3.1968,-3.2401,-3.24,-3.1677,-3.195,-3.1986,-3.1271,-3.0784,-3.0412,-3.0125,-2.9414,-2.8653,-2.7858,-2.7536,-2.7182,-2.6708,-2.6691,-2.6691,-2.6691,-2.6691,-2.6691,-2.6691,-2.6691,-2.6691,-2.6691,-2.6691,-2.6691,-1.9203,-2.0527,-2.1923,0.0,0.0,0.0,0.0,0.0,-2.7897,-2.8448,-2.8998,0.0,0.0,0.0,0.0,0.0,-3.4853,-3.6593,-3.7382,-3.8193,-3.8707,-3.8707,-3.8707,-3.8707,-3.8707,-3.8707,-3.8707,-3.8707,-3.8707,-3.8707,-3.8707,-3.8707,-3.8707,-3.8707,-3.8707,-3.8707,-3.8707,-3.8707,-3.853,-3.815,-3.7826,-3.7322,-3.6643,-3.6643,-3.6354,-3.5854,-3.5854,-3.5761,-3.5622,-3.5968,-3.6011,-3.5854,-3.5854,-3.5761,-3.56,-3.56,-3.56,-3.5689,-3.6224,-3.6519,-3.6751,-3.7345,-3.7593,-3.7542,-3.6881,-3.6417,-3.6043,-3.5464,-3.5385,-3.5602,-3.6055,-3.5352,-3.4356,-3.3709,-3.2771,-3.2144,-3.2632,-3.3075,-3.348,-3.3748,-3.3087,-3.2648,-3.3105,-3.2433,-3.1951,-3.2434,-3.2905,-3.2856,-3.1915,-3.2196,-3.2179,-3.1291,-3.0751,-3.0446,-3.0446,-2.9973,-2.9364,-2.8584,-2.8534,-2.7976,-2.6742,-2.6691,-2.6691,-2.6691,-2.6691,-2.6691,-2.6691,-2.6691,-2.6691,-2.6691,-2.6691,-2.6691,-1.9376,-2.0535,-2.218,0.0,0.0,0.0,0.0,0.0,0.0,-3.0228,0.0,-3.0467,-3.1256,0.0,0.0,-3.3532,-3.5183,-3.656,-3.7364,-3.8175,-3.8689,-3.8689,-3.8689,-3.8689,-3.8689,-3.8689,-3.8689,-3.8689,-3.8689,-3.8689,-3.8689,-3.8689,-3.8689,-3.8689,-3.8689,-3.8689,-3.8689,-3.8689,-3.8689,-3.8689,-3.8689,-3.815,-3.7209,-3.7209,-3.6902,-3.6395,-3.6395,-3.6097,-3.5694,-3.6746,-3.6882,-3.6395,-3.6395,-3.6075,-3.56,-3.56,-3.56,-3.5672,-3.6207,-3.6746,-3.7125,-3.6804,-3.7578,-3.8282,-3.6148,-3.6056,-3.6525,-3.5714,-3.5497,-3.5413,-3.5074,-3.4354,-3.3625,-3.3288,-3.284,-3.2632,-3.309,-3.3522,-3.3807,-3.3807,-3.3087,-3.2648,-3.3121,-3.2433,-3.1969,-3.2451,-3.2921,-3.2872,-3.1915,-3.2213,-3.2162,-3.1291,-3.119,-3.119,-3.121,-3.121,-3.0886,-3.0159,-3.0108,-2.9093,-2.6793,-2.6708,-2.6725,-2.6691,-2.6691,-2.6691,-2.6691,-2.6691,-2.6691,-2.6691,-2.6691,-2.6691,-2.0289,-2.1135,0.0,0.0,0.0,0.0,0.0,0.0,0.0,0.0,0.0,-3.1959,-3.2197,0.0,0.0,-3.2876,-3.4307,-3.5463,-3.5701,-3.6468,-3.7019,-3.7019,-3.7019,-3.7019,-3.7019,-3.7019,-3.7019,-3.7019,-3.7019,-3.7019,-3.7019,-3.7019,-3.7019,-3.7019,-3.7019,-3.7019,-3.7019,-3.7019,-3.7019,-3.7019,-3.7019,-3.708,-3.7209,-3.7209,-3.6686,-3.5854,-3.6245,-3.6291,-3.6224,-3.6904,-3.7114,-3.6941,-3.656,-3.6291,-3.6118,-3.5739,-3.5487,-3.5394,-3.5885,-3.6024,-3.6048,-3.6321,-3.6677,-3.6816,-3.5822,-3.5504,-3.5399,-3.4821,-3.4888,-3.4994,-3.4335,-3.4171,-3.4033,-3.3349,-3.309,-3.3029,-3.3184,-3.3522,-3.3807,-3.3807,-3.3361,-3.3121,-3.355,-3.3166,-3.2934,-3.3343,-3.3536,-3.3299,-3.2417,-3.1878,-3.1504,-3.123,-3.119,-3.1329,-3.1673,-3.1387,-3.1006,-3.0556,-3.0263,-2.9311,-2.7536,-2.7469,-2.7232,-2.6708,-2.6691,-2.6691,-2.6691,-2.6691,-2.6691,-2.6691,-2.6691,-2.6691,-2.1056,0.0,0.0,0.0,0.0,0.0,0.0,0.0,0.0,0.0,0.0,-3.2693,-3.3023,-3.2821,0.0,-3.3023,-3.416,-3.5004,-3.5004,-3.5752,-3.6303,-3.6303,-3.6303,-3.6303,-3.6303,-3.6303,-3.6303,-3.6303,-3.6303,-3.6303,-3.6303,-3.6303,-3.6303,-3.6303,-3.6303,-3.6303,-3.6303,-3.6303,-3.6303,-3.6303,-3.6303,-3.6378,-3.6542,-3.6845,-3.6834,-3.649,-3.6295,-3.6271,-3.638,-3.647,-3.6524,-3.647,-3.5953,-3.5741,-3.568,-3.5183,-3.4998,-3.5062,-3.5563,-3.5643,-3.5525,-3.5733,-3.6028,-3.6113,-3.5117,-3.4896,-3.4875,-3.4266,-3.4308,-3.4399,-3.3935,-3.3972,-3.4036,-3.356,-3.3317,-3.3243,-3.339,-3.3638,-3.3807,-3.3807,-3.348,-3.3332,-3.3734,-3.3465,-3.3332,-3.3734,-3.3666,-3.3299,-3.2599,-3.1878,-3.1389,-3.121,-3.1332,-3.1545,-3.1841,-3.1601,-3.1358,-3.1149,-3.0764,-2.9989,-2.8753,-2.8128,-2.7452,-2.6708,-2.6691,-2.6691,-2.6691,-2.6691,-2.6691,-2.6691,-2.6691,-2.6691,-2.1686,0.0,0.0,0.0,0.0,0.0,0.0,0.0,0.0,-3.3642,0.0,-3.2931,-3.3678,-3.3201,-3.2949,-3.3678,-3.4399,-3.4894,-3.4894,-3.5569,-3.6064,-3.6064,-3.6064,-3.6064,-3.6064,-3.6064,-3.6064,-3.6064,-3.6064,-3.6064,-3.6064,-3.6064,-3.6064,-3.6064,-3.6064,-3.6064,-3.6064,-3.6064,-3.6064,-3.6064,-3.6064,-3.5856,-3.5473,-3.6235,-3.6992,-3.7607,-3.6381,-3.6032,-3.6256,-3.5755,-3.558,-3.5532,-3.5044,-3.4836,-3.473,-3.4303,-3.4383,-3.473,-3.5225,-3.5369,-3.5299,-3.4987,-3.5426,-3.5789,-3.4266,-3.4307,-3.4747,-3.4009,-3.3807,-3.3807,-3.3807,-3.3807,-3.3807,-3.3807,-3.3522,-3.3346,-3.3721,-3.3807,-3.3807,-3.3807,-3.3508,-3.3361,-3.3734,-3.3494,-3.3375,-3.3734,-3.3465,-3.3029,-3.2567,-3.2092,-3.166,-3.1291,-3.1584,-3.1826,-3.1915,-3.1861,-3.1825,-3.1861,-3.1449,-3.0869,-3.0123,-2.8686,-2.7553,-2.681,-2.6725,-2.6691,-2.6691,-2.6691,-2.6691,-2.6691,-2.6691,-2.6691,0.0,-2.3383,0.0,0.0,0.0,0.0,0.0,0.0,0.0,-3.3805,-3.366,-3.3587,-3.377,-3.366,-3.3605,-3.377,-3.3954,-3.4064,-3.4064,-3.4229,-3.4339,-3.4339,-3.4339,-3.4339,-3.4339,-3.4339,-3.4339,-3.4339,-3.4339,-3.4339,-3.4339,-3.4339,-3.4339,-3.4339,-3.4339,-3.4339,-3.4339,-3.4339,-3.4339,-3.4339,-3.4339,-3.4596,-3.5119,-3.555,-3.5858,-3.6002,-3.5723,-3.5856,-3.6285,-3.6179,-3.6117,-3.6072,-3.5546,-3.5332,-3.5266,-3.4747,-3.4499,-3.4401,-3.4515,-3.438,-3.4142,-3.4092,-3.4174,-3.4266,-3.3917,-3.3917,-3.4027,-3.3844,-3.3807,-3.3807,-3.3807,-3.3807,-3.3807,-3.3807,-3.3734,-3.3694,-3.3775,-3.3807,-3.3807,-3.3807,-3.3734,-3.3694,-3.3793,-3.3721,-3.3707,-3.3793,-3.3465,-3.3029,-3.2567,-3.2092,-3.1771,-3.1678,-3.1752,-3.2109,-3.284,-3.223,-3.1968,-3.2333,-3.162,-3.0869,-3.0123,-2.9228,-2.8366,-2.757,-2.6996,-2.6691,-2.6691,-2.6691,-2.6691,-2.6691,-2.6691,-2.6691,0.0,0.0,0.0,0.0,0.0,0.0,0.0,0.0,0.0,-3.4056,-3.3889,-3.3807,-3.3807,-3.3807,-3.3807,-3.3807,-3.3807,-3.3807,-3.3807,-3.3807,-3.3807,-3.3807,-3.3807,-3.3807,-3.3807,-3.3807,-3.3807,-3.3807,-3.3807,-3.3807,-3.3807,-3.3807,-3.3807,-3.3807,-3.3807,-3.3807,-3.3807,-3.3807,-3.3807,-3.3807,-3.3807,-3.4027,-3.4454,-3.5443,-3.5666,-3.5251,-3.5251,-3.5203,-3.5092,-3.5092,-3.5092,-3.505,-3.4582,-3.4519,-3.4624,-3.4169,-3.4013,-3.4069,-3.4069,-3.3958,-3.3807,-3.3807,-3.3807,-3.3807,-3.3807,-3.3807,-3.3807,-3.3807,-3.3807,-3.3807,-3.3807,-3.3807,-3.3807,-3.3807,-3.3807,-3.3807,-3.3807,-3.3807,-3.3807,-3.3807,-3.3807,-3.3807,-3.3807,-3.3807,-3.3807,-3.3807,-3.3606,-3.3332,-3.2887,-3.2614,-3.2383,-3.2161,-3.2332,-3.2663,-3.3169,-3.2567,-3.223,-3.2484,-3.1675,-3.1021,-3.0649,-2.9922,-2.8991,-2.7824,-2.7418,-2.7046,-2.6691,-2.6691,-2.6691,-2.6691,-2.6691,-2.6691,0.0,0.0,0.0,0.0,0.0,0.0,0.0,0.0,0.0,-3.4357,-3.4056,-3.385,-3.382,-3.3807,-3.3807,-3.3807,-3.3807,-3.3807,-3.3807,-3.3807,-3.3807,-3.3807,-3.3807,-3.3807,-3.3807,-3.3807,-3.3807,-3.3807,-3.3807,-3.3807,-3.3807,-3.3807,-3.3807,-3.3807,-3.3807,-3.3807,-3.3807,-3.3807,-3.3807,-3.3807,-3.3807,-3.3807,-3.3844,-3.5238,-3.5477,-3.4784,-3.4784,-3.4417,-3.3807,-3.3807,-3.3807,-3.378,-3.3419,-3.3508,-3.3762,-3.3437,-3.3508,-3.3807,-3.3807,-3.3807,-3.3807,-3.3807,-3.3807,-3.3807,-3.3807,-3.3807,-3.3807,-3.3807,-3.3807,-3.3807,-3.3807,-3.3807,-3.3807,-3.3807,-3.3807,-3.3807,-3.3807,-3.3807,-3.3807,-3.3807,-3.3807,-3.3807,-3.3807,-3.3807,-3.3807,-3.3807,-3.3807,-3.3648,-3.3258,-3.3199,-3.3045,-3.2665,-3.2968,-3.3229,-3.3302,-3.2809,-3.2501,-3.2501,-3.1675,-3.119,-3.119,-3.0615,-2.9583,-2.8043,-2.7874,-2.7503,-2.6894,-2.6759,-2.6691,-2.6691,-2.6691,-2.6691,0.0,0.0,0.0,0.0,0.0,0.0,0.0,0.0,0.0,0.0,-3.4368,-3.408,-3.3842,-3.3807,-3.3807,-3.3807,-3.3807,-3.3807,-3.3807,-3.3807,-3.3807,-3.3807,-3.3807,-3.3807,-3.3807,-3.3807,-3.3807,-3.3807,-3.3807,-3.3807,-3.3807,-3.3807,-3.3807,-3.3807,-3.3807,-3.3807,-3.3807,-3.3807,-3.3807,-3.3807,-3.3807,-3.3807,-3.3807,-3.4027,-3.4064,-3.3972,-3.3972,-3.3899,-3.3807,-3.3807,-3.3807,-3.3788,-3.3734,-3.3748,-3.3775,-3.3734,-3.3748,-3.3807,-3.3807,-3.3807,-3.3807,-3.3807,-3.3807,-3.3807,-3.3807,-3.3807,-3.3807,-3.3807,-3.3807,-3.3807,-3.3807,-3.3807,-3.3807,-3.3807,-3.3807,-3.3807,-3.3807,-3.3807,-3.3807,-3.3807,-3.3807,-3.3807,-3.3807,-3.3807,-3.3807,-3.3807,-3.3807,-3.3648,-3.3258,-3.3199,-3.3184,-3.3105,-3.3169,-3.3332,-3.3694,-3.2965,-3.2501,-3.2501,-3.1675,-3.119,-3.119,-3.1106,-3.0345,-2.8874,-2.8145,-2.7756,-2.7655,-2.7012,-2.6691,-2.6691,-2.6691,-2.6691,0.0,0.0,0.0,0.0,0.0,0.0,0.0,0.0,-3.4672,-3.4886,-3.4803,-3.4555,-3.4117,-3.4018,-3.3974,-3.3815,-3.3807,-3.3807,-3.3807,-3.3807,-3.3807,-3.3807,-3.3807,-3.3807,-3.3807,-3.3807,-3.3807,-3.3807,-3.3807,-3.3807,-3.3807,-3.3807,-3.3807,-3.3807,-3.3807,-3.3807,-3.3807,-3.3807,-3.3807,-3.3807,-3.3807,-3.3807,-3.3807,-3.3807,-3.3807,-3.3807,-3.3807,-3.3807,-3.3807,-3.3807,-3.3807,-3.3807,-3.3807,-3.3807,-3.3807,-3.3807,-3.3807,-3.3807,-3.3807,-3.3807,-3.3807,-3.3807,-3.3807,-3.3807,-3.3807,-3.3807,-3.3807,-3.3807,-3.3807,-3.3807,-3.3807,-3.3807,-3.3807,-3.3807,-3.3807,-3.3807,-3.3807,-3.3807,-3.3807,-3.3807,-3.3807,-3.3807,-3.3807,-3.3807,-3.3807,-3.3807,-3.3807,-3.3734,-3.3564,-3.3536,-3.3536,-3.3536,-3.3536,-3.3606,-3.3775,-3.2996,-3.2501,-3.2501,-3.1675,-3.119,-3.119,-3.119,-3.0886,-3.0262,-2.9076,-2.8044,-2.7182,-2.686,-2.6911,-2.7334,-2.7334,-2.7334,0.0,0.0,0.0,0.0,0.0,0.0,0.0,0.0,-3.4338,0.0,-3.5054,-3.5043,-3.4524,-3.436,-3.4253,-3.4049,-3.403,-3.4005,-3.3915,-3.3902,-3.3876,-3.382,-3.3807,-3.3807,-3.3807,-3.3807,-3.3807,-3.3807,-3.3807,-3.3807,-3.3807,-3.3807,-3.3807,-3.3807,-3.3807,-3.3807,-3.3807,-3.3807,-3.3807,-3.3807,-3.3807,-3.3807,-3.3807,-3.3807,-3.3807,-3.3807,-3.3807,-3.3807,-3.3807,-3.3807,-3.3807,-3.3807,-3.3807,-3.3807,-3.3807,-3.3807,-3.3807,-3.3807,-3.3807,-3.3807,-3.3807,-3.3807,-3.3807,-3.3807,-3.3807,-3.3807,-3.3807,-3.3807,-3.3807,-3.3807,-3.3807,-3.3807,-3.3807,-3.3807,-3.3807,-3.3807,-3.3807,-3.3807,-3.3807,-3.3807,-3.3807,-3.3807,-3.3807,-3.3807,-3.3807,-3.3807,-3.3807,-3.3807,-3.3807,-3.3807,-3.3807,-3.3807,-3.3807,-3.3807,-3.3807,-3.2996,-3.2501,-3.2501,-3.1675,-3.119,-3.119,-3.131,-3.1266,-3.1081,-2.9991,-2.8813,-2.7554,-2.7165,-2.7368,-2.8094,-2.8094,-2.8094,0.0,0.0,0.0,0.0,0.0,0.0,0.0,0.0,0.0,-3.425,-3.4897,-3.5383,-3.5113,-3.486,-3.4663,-3.4653,-3.4653,-3.454,-3.4211,-3.4183,-3.4074,-3.3829,-3.3807,-3.3807,-3.3807,-3.3807,-3.3807,-3.3807,-3.3807,-3.3807,-3.3807,-3.3807,-3.3807,-3.3807,-3.3807,-3.3807,-3.3807,-3.3807,-3.3807,-3.3807,-3.3807,-3.3807,-3.3807,-3.3807,-3.3807,-3.3807,-3.3807,-3.3807,-3.3807,-3.3807,-3.3807,-3.3807,-3.3807,-3.3807,-3.3807,-3.3807,-3.3807,-3.3807,-3.3807,-3.3807,-3.3807,-3.3807,-3.3807,-3.3807,-3.3807,-3.3807,-3.3807,-3.3807,-3.3807,-3.3807,-3.3807,-3.3807,-3.3807,-3.3807,-3.3807,-3.3807,-3.3807,-3.3807,-3.3807,-3.3807,-3.3807,-3.3807,-3.3807,-3.3807,-3.3807,-3.3807,-3.3807,-3.3807,-3.3807,-3.3807,-3.3807,-3.3807,-3.3807,-3.3807,-3.3807,-3.2996,-3.2501,-3.2501,-3.1675,-3.119,-3.119,-3.1565,-3.1443,-3.0751,-3.0647,-3.0365,-2.9922,-2.8466,-2.8163,-2.8942,-2.8942,-2.8942,0.0,0.0,0.0,0.0,0.0,0.0,0.0,-3.0698,-3.1929,-3.2487,-3.3256,-3.3795,-3.3707,-3.4386,-3.4908,-3.4724,-3.4694,-3.4663,-3.454,-3.4529,-3.4486,-3.4375,-3.4383,-3.4284,-3.408,-3.4056,-3.3999,-3.3802,-3.3807,-3.3807,-3.3807,-3.3311,-3.3036,-3.3036,-3.3036,-3.3293,-3.3788,-3.3807,-3.3807,-3.3807,-3.3807,-3.3807,-3.3807,-3.3807,-3.3807,-3.3807,-3.3807,-3.3807,-3.3807,-3.3807,-3.3807,-3.3807,-3.3807,-3.3807,-3.3807,-3.3807,-3.3807,-3.3807,-3.3807,-3.3807,-3.3807,-3.3807,-3.3807,-3.3807,-3.3807,-3.3807,-3.3807,-3.3807,-3.3807,-3.3807,-3.3807,-3.3807,-3.3807,-3.3807,-3.3807,-3.3807,-3.3807,-3.3807,-3.3807,-3.3807,-3.3807,-3.3807,-3.3807,-3.3807,-3.3807,-3.3807,-3.3807,-3.3807,-3.3807,-3.3807,-3.3807,-3.3807,-3.3807,-3.3807,-3.3807,-3.2996,-3.2632,-3.2937,-3.2092,-3.1732,-3.2021,-3.2179,-3.2124,-3.186,-3.108,-3.0404,-2.9781,-2.8967,-2.8958,-2.9702,-2.9702,-2.9702,-1.7295,0.0,0.0,0.0,0.0,0.0,0.0,0.0,-2.9885,-3.1019,-3.1929,-3.2583,-3.2852,-3.3712,-3.4399,-3.4514,-3.4782,-3.4935,-3.486,-3.4822,-3.4793,-3.4704,-3.4694,-3.4603,-3.439,-3.4368,-3.4242,-3.3948,-3.3683,-3.3484,-3.3403,-3.2632,-3.221,-3.221,-3.221,-3.2449,-3.2981,-3.2981,-3.2981,-3.2999,-3.3275,-3.3403,-3.3421,-3.3678,-3.3807,-3.3807,-3.3807,-3.3807,-3.3807,-3.3807,-3.3807,-3.3807,-3.3807,-3.3807,-3.3807,-3.3807,-3.3807,-3.3807,-3.3807,-3.3807,-3.3807,-3.3807,-3.3807,-3.3807,-3.3807,-3.3807,-3.3807,-3.3807,-3.3807,-3.3807,-3.3807,-3.3807,-3.3807,-3.3807,-3.3807,-3.3807,-3.3807,-3.3807,-3.3807,-3.3807,-3.3807,-3.3807,-3.3807,-3.3807,-3.3807,-3.3807,-3.3807,-3.3807,-3.3807,-3.3807,-3.3807,-3.3807,-3.3807,-3.3807,-3.3807,-3.3151,-3.2874,-3.3184,-3.2466,-3.2161,-3.2484,-3.2648,-3.2729,-3.2729,-3.1788,-3.0939,-3.0203,-2.9383,-2.9517,-3.0463,-3.0226,-3.0243,0.0,0.0,0.0,0.0,0.0,0.0,0.0,0.0,-2.8255,-2.9942,-3.0981,-3.1833,-3.2641,-3.2833,-3.3141,-3.3994,-3.4853,-3.5321,-3.5062,-3.5037,-3.4931,-3.4669,-3.4658,-3.4639,-3.4648,-3.4648,-3.4496,-3.4149,-3.3399,-3.285,-3.2585,-3.1806,-3.136,-3.136,-3.136,-3.1378,-3.1397,-3.1397,-3.1397,-3.1415,-3.2192,-3.2564,-3.2583,-3.3366,-3.3733,-3.3752,-3.3752,-3.377,-3.3807,-3.3807,-3.3807,-3.3807,-3.3807,-3.3807,-3.3807,-3.3807,-3.3807,-3.3807,-3.3807,-3.3807,-3.3807,-3.3807,-3.3807,-3.3807,-3.3807,-3.3807,-3.3807,-3.3807,-3.3807,-3.3807,-3.3807,-3.3807,-3.3807,-3.3807,-3.3807,-3.3807,-3.3807,-3.3807,-3.3807,-3.3807,-3.3807,-3.3807,-3.3807,-3.3807,-3.3807,-3.3807,-3.3807,-3.3807,-3.3807,-3.3807,-3.3807,-3.3807,-3.3807,-3.3807,-3.3807,-3.3419,-3.3214,-3.3214,-3.2777,-3.2534,-3.2534,-3.2983,-3.3214,-3.3214,-3.2761,-3.2162,-3.1432,-2.9851,-2.9788,-3.114,-3.0463,-3.0531,-1.7718,0.0,0.0,0.0,0.0,0.0,0.0,0.0,0.0,-2.7313,-2.8332,-2.9198,-3.0012,-3.1179,-3.2102,-3.2352,-3.3083,-3.3583,-3.351,-3.3503,-3.3482,-3.3412,-3.3405,-3.3326,-3.3118,-3.3109,-3.2985,0.0,-3.2331,-3.2095,-3.2034,-3.1065,-3.0522,-3.0522,-3.0522,-3.0797,-3.1397,-3.1397,-3.1397,-3.1397,-3.1635,-3.1733,-3.1733,-3.1953,-3.2375,-3.2931,-3.2931,-3.3256,-3.3807,-3.3807,-3.3807,-3.3807,-3.3807,-3.3807,-3.3807,-3.3807,-3.3807,-3.3807,-3.3807,-3.3807,-3.3807,-3.3807,-3.3807,-3.3807,-3.3807,-3.3807,-3.3807,-3.3807,-3.3807,-3.3807,-3.3807,-3.3807,-3.3807,-3.3807,-3.3807,-3.3807,-3.3807,-3.3807,-3.3807,-3.3807,-3.3807,-3.3807,-3.3807,-3.3807,-3.3807,-3.3807,-3.3807,-3.3807,-3.3807,-3.3807,-3.3807,-3.3807,-3.3807,-3.3807,-3.3807,-3.3419,-3.3317,-3.3625,-3.3243,-3.3136,-3.3433,-3.3564,-3.362,-3.362,-3.3211,-3.2733,-3.2181,-3.1123,-3.0531,-3.0412,-3.0734,-3.1004,0.0,0.0,0.0,0.0,0.0,0.0,-2.299,-2.3451,0.0,0.0,-2.7005,-2.7601,-2.8453,-2.9429,-3.0217,-3.0564,-3.1006,-3.1679,-3.2756,-3.2891,-3.2891,-3.2891,-3.2891,-3.2852,-3.2678,-3.2663,-3.2523,-3.2166,-3.171,-3.1219,-3.0672,-3.0047,-2.9702,-2.9702,-2.9702,-2.9922,-3.0393,-3.0393,-3.0393,-3.0393,-3.0742,-3.0889,-3.0907,-3.125,-3.1843,-3.2601,-3.2601,-3.3073,-3.3807,-3.3807,-3.3807,-3.3807,-3.3807,-3.3807,-3.3807,-3.3807,-3.3807,-3.3807,-3.3807,-3.3807,-3.3807,-3.3807,-3.3807,-3.3807,-3.3807,-3.3807,-3.3807,-3.3807,-3.3807,-3.3807,-3.3807,-3.3807,-3.3807,-3.3807,-3.3807,-3.3807,-3.3807,-3.3807,-3.3807,-3.3807,-3.3807,-3.3807,-3.3807,-3.3807,-3.3807,-3.3807,-3.3807,-3.3807,-3.3807,-3.3807,-3.3807,-3.3807,-3.3807,-3.3807,-3.3807,-3.3578,-3.355,-3.3793,-3.3578,-3.355,-3.3775,-3.3807,-3.3807,-3.3807,-3.339,-3.2968,-3.2501,-3.1495,-3.0767,-3.0374,-3.1126,-3.1449,0.0,0.0,0.0,0.0,0.0,0.0,-2.3336,-2.3297,-2.3451,0.0,-2.6178,-2.6447,-2.7318,-2.7626,-2.7992,-2.8703,-2.8896,-2.9819,-3.2275,-3.2622,-3.2622,-3.2622,-3.2622,-3.2622,-3.2622,-3.2622,-3.245,-3.203,-3.1287,-3.0311,-2.9076,-2.9005,-2.9005,-2.9005,-2.9005,-2.9005,-2.9005,-2.9005,-2.9005,-2.9005,-2.9721,-3.0081,-3.0099,-3.0797,-3.1568,-3.2326,-3.2326,-3.2852,-3.3678,-3.3678,-3.3715,-3.3807,-3.3807,-3.3807,-3.3807,-3.3807,-3.3807,-3.3807,-3.3807,-3.3807,-3.3807,-3.3807,-3.3807,-3.3807,-3.3807,-3.3807,-3.3807,-3.3807,-3.3807,-3.3807,-3.3807,-3.3807,-3.3807,-3.3807,-3.3807,-3.3807,-3.3807,-3.3807,-3.3807,-3.3807,-3.3807,-3.3807,-3.3807,-3.3807,-3.3807,-3.3807,-3.3807,-3.3807,-3.3807,-3.3807,-3.3807,-3.3807,-3.3807,-3.3807,-3.3807,-3.3807,-3.3807,-3.3807,-3.3807,-3.3807,-3.3807,-3.3807,-3.3807,-3.3807,-3.339,-3.2999,-3.2583,-3.1374,-3.082,-3.0924,-3.1567,-3.1861,-2.2547,0.0,0.0,0.0,0.0,0.0,-2.2216,-2.2427,-2.2932,0.0,-2.3548,-2.3817,-2.4683,-2.5933,-2.6909,-2.7063,-2.7678,-2.8775,-3.0635,-3.0885,-3.0885,-3.0885,-3.0885,-3.0885,-3.0885,-3.0885,-3.086,-3.0765,-3.0254,-2.9663,-2.904,-2.9005,-2.9005,-2.9005,-2.9005,-2.9005,-2.9005,-2.9005,-2.9005,-2.9005,-2.9152,-2.9225,-2.9244,-2.939,-2.9904,-3.0668,-3.0668,-3.1494,-3.2821,-3.2821,-3.322,-3.3807,-3.3807,-3.3807,-3.3807,-3.3807,-3.3807,-3.3807,-3.3807,-3.3807,-3.3807,-3.3807,-3.3807,-3.3807,-3.3807,-3.3807,-3.3807,-3.3807,-3.3807,-3.3807,-3.3807,-3.3807,-3.3807,-3.3807,-3.3807,-3.3807,-3.3807,-3.3807,-3.3807,-3.3807,-3.3807,-3.3807,-3.3807,-3.3807,-3.3807,-3.3807,-3.3807,-3.3807,-3.3807,-3.3807,-3.3807,-3.3807,-3.3807,-3.3807,-3.3807,-3.3807,-3.3807,-3.3807,-3.3807,-3.3807,-3.3807,-3.3807,-3.3807,-3.3807,-3.339,-3.3136,-3.306,-3.1849,-3.157,-3.2155,-3.2296,-3.2161,-2.4274,0.0,0.0,-2.3615,0.0,0.0,0.0,-2.3081,-2.3047,-2.387,-2.337,-2.3067,-2.3937,-2.4798,-2.5486,-2.5885,-2.6678,-2.7698,-2.8967,-2.9159,-2.9159,-2.9159,-2.9159,-2.9313,-2.9717,-2.9756,-2.9874,-3.019,-2.9896,-2.9542,-2.9214,-2.9192,-2.9145,-2.9005,-2.9005,-2.9005,-2.9005,-2.9005,-2.9005,-2.9005,-2.9005,-2.9005,-2.9005,-2.9005,-2.9445,-3.021,-3.021,-3.0889,-3.2027,-3.2417,-3.2839,-3.3238,-3.3642,-3.3807,-3.3807,-3.3807,-3.3807,-3.3807,-3.3807,-3.3807,-3.3807,-3.3807,-3.3807,-3.3807,-3.3807,-3.3807,-3.3807,-3.3807,-3.3807,-3.3807,-3.3807,-3.3807,-3.3807,-3.3807,-3.3807,-3.3807,-3.3807,-3.3807,-3.3807,-3.3807,-3.3807,-3.3807,-3.3807,-3.3807,-3.3807,-3.3807,-3.3807,-3.3807,-3.3807,-3.3807,-3.3807,-3.3807,-3.3807,-3.3807,-3.3807,-3.3807,-3.3807,-3.3807,-3.3807,-3.3807,-3.3807,-3.3807,-3.3807,-3.3807,-3.3592,-3.3508,-3.3508,-3.2886,-3.2676,-3.284,-3.284,-3.2599,0.0,0.0,0.0,0.0,0.0,-2.4875,0.0,0.0,0.0,0.0,0.0,0.0,0.0,0.0,0.0,0.0,0.0,0.0,0.0,-2.7068,0.0,-2.7838,-2.7895,-2.8165,-2.8819,-2.8723,-2.8865,-2.946,-2.9219,-2.9087,-2.9212,-2.9211,-2.9165,-2.9078,-2.9078,-2.9044,-2.9005,-2.9005,-2.9005,-2.9005,-2.9005,-2.9005,-2.9005,-2.9005,-2.9354,-2.9971,-2.9971,-3.043,-3.1231,-3.1867,-3.2326,-3.2674,-3.3495,-3.3807,-3.3807,-3.3807,-3.3807,-3.3807,-3.3807,-3.3807,-3.3807,-3.3807,-3.3807,-3.3807,-3.3807,-3.3807,-3.3807,-3.3807,-3.3807,-3.3807,-3.3807,-3.3807,-3.3807,-3.3807,-3.3807,-3.3807,-3.3807,-3.3807,-3.3807,-3.3807,-3.3807,-3.3807,-3.3807,-3.3807,-3.3807,-3.3807,-3.3807,-3.3807,-3.3807,-3.3807,-3.3807,-3.3807,-3.3807,-3.3807,-3.3807,-3.3807,-3.3807,-3.3807,-3.3807,-3.3807,-3.3807,-3.3807,-3.3807,-3.3807,-3.3807,-3.3807,-3.3807,-3.3807,-3.362,-3.3317,-3.3317,-3.3029,0.0,0.0,0.0,0.0,-2.6967,-2.6895,0.0,0.0,-2.4654,-2.3351,0.0,0.0,0.0,0.0,0.0,0.0,0.0,0.0,-2.3471,-2.4048,-2.5375,-2.7626,-2.7895,-2.7934,-2.803,-2.7332,-2.7132,-2.7738,-2.7106,-2.7209,-2.8455,-2.8503,-2.8773,-2.9343,-2.9351,-2.9235,-2.9005,-2.9005,-2.9005,-2.9005,-2.9005,-2.9005,-2.9005,-2.9005,-2.906,-2.9133,-2.9133,-2.9592,-3.0338,-3.043,-3.1298,-3.2674,-3.3495,-3.3807,-3.3807,-3.3807,-3.3807,-3.3807,-3.3807,-3.3807,-3.3807,-3.3807,-3.3807,-3.3807,-3.3807,-3.3807,-3.3807,-3.3807,-3.3807,-3.3807,-3.3807,-3.3807,-3.3807,-3.3807,-3.3807,-3.3807,-3.3807,-3.3807,-3.3807,-3.3807,-3.3807,-3.3807,-3.3807,-3.3807,-3.3807,-3.3807,-3.3807,-3.3807,-3.3807,-3.3807,-3.3807,-3.3807,-3.3807,-3.3807,-3.3807,-3.3807,-3.3807,-3.3807,-3.3807,-3.3807,-3.3807,-3.3807,-3.3807,-3.3807,-3.3807,-3.3807,-3.3807,-3.3807,-3.3793,-3.3734,-3.3734,-3.3284,0.0,0.0,0.0,0.0,0.0,0.0,-2.5914,-2.5063,-2.4543,0.0,0.0,0.0,0.0,0.0,0.0,0.0,-2.3105,0.0,0.0,0.0,-2.374,0.0,0.0,0.0,-2.6294,-2.6524,-2.6921,-2.7679,-2.6939,-2.688,-2.782,-2.8351,-2.8693,-2.882,-2.9308,-2.9523,-2.9407,-2.9407,-2.9345,-2.9225,-2.9225,-2.9156,-2.9005,-2.9005,-2.9005,-2.9005,-2.9005,-2.9189,-2.9537,-3.0008,-3.0595,-3.1329,-3.2601,-3.3385,-3.3807,-3.3807,-3.3807,-3.3807,-3.3807,-3.3807,-3.3807,-3.3807,-3.3807,-3.3807,-3.3807,-3.3807,-3.3807,-3.3807,-3.3807,-3.3807,-3.3807,-3.3807,-3.3807,-3.3807,-3.3807,-3.3807,-3.3807,-3.3807,-3.3807,-3.3807,-3.3807,-3.3807,-3.3807,-3.3807,-3.3807,-3.3807,-3.3807,-3.3807,-3.3807,-3.3807,-3.3807,-3.3807,-3.3807,-3.3807,-3.3807,-3.3807,-3.3807,-3.3807,-3.3807,-3.3807,-3.3807,-3.3807,-3.3807,-3.3807,-3.3807,-3.3807,-3.3807,-3.3807,-3.3807,-3.3807,-3.3807,-3.3328,-2.9011,0.0,-2.9672,-2.828,-2.7959,-2.7687,-2.6502,-2.5486,-2.4875,-2.5231,0.0,0.0,0.0,0.0,0.0,0.0,0.0,-2.2643,0.0,-2.2293,0.0,0.0,0.0,0.0,0.0,-2.4962,-2.5659,-2.678,-2.6043,-2.6049,-2.7192,-2.7842,-2.8296,-2.8493,-2.9109,-2.9538,-2.9705,-2.9705,-2.9635,-2.9474,-2.9474,-2.9375,-2.9195,-2.9195,-2.9195,-2.9195,-2.9195,-2.9195,-2.9251,-2.9824,-3.0194,-3.0528,-3.1934,-3.2945,-3.3613,-3.3742,-3.3807,-3.3807,-3.3807,-3.3807,-3.3807,-3.3807,-3.3807,-3.3807,-3.3807,-3.3807,-3.3807,-3.3807,-3.3807,-3.3807,-3.3807,-3.3807,-3.3807,-3.3807,-3.3807,-3.3807,-3.3807,-3.3807,-3.3807,-3.3807,-3.3807,-3.3807,-3.3807,-3.3807,-3.3807,-3.3807,-3.3807,-3.3807,-3.3807,-3.3807,-3.3807,-3.3807,-3.3807,-3.3807,-3.3807,-3.3807,-3.3807,-3.3807,-3.3807,-3.3807,-3.3807,-3.3807,-3.3807,-3.3807,-3.3807,-3.3807,-3.3807,-3.3807,-3.3807,-3.3807,-3.3807,-3.3404,-3.0995,-3.115,-3.1197,-2.8636,-2.8008,-2.7539,-2.5746,-2.5942,-2.6294,-2.5462,-2.5923,-2.6236,0.0,0.0,0.0,0.0,0.0,0.0,0.0,0.0,0.0,0.0,0.0,0.0,0.0,-2.2139,-2.237,-2.4091,-2.3413,-2.4005,-2.6495,-2.6668,-2.7326,-2.8748,-2.8817,-2.9103,-2.9686,-2.9705,-2.9696,-2.9696,-2.9696,-2.9687,-2.9678,-2.9678,-2.9678,-2.9678,-2.9678,-2.9678,-2.9678,-2.9716,-3.0159,-3.096,-3.1855,-3.2552,-3.3089,-3.36,-3.3807,-3.3807,-3.3807,-3.3807,-3.3807,-3.3807,-3.3807,-3.3807,-3.3807,-3.3807,-3.3807,-3.3807,-3.3807,-3.3807,-3.3807,-3.3807,-3.3807,-3.3807,-3.3807,-3.3807,-3.3807,-3.3807,-3.3807,-3.3807,-3.3807,-3.3807,-3.3807,-3.3807,-3.3807,-3.3807,-3.3807,-3.3807,-3.3807,-3.3807,-3.3807,-3.3807,-3.3807,-3.3807,-3.3807,-3.3807,-3.3807,-3.3807,-3.3807,-3.3807,-3.3807,-3.3807,-3.3807,-3.3807,-3.3807,-3.3807,-3.3807,-3.3807,-3.3807,-3.3807,-3.3807,-3.3578,-3.2555,-3.3019,-3.3067,-3.0447,-2.9824,-2.9238,-2.6844,-2.6961,-2.7175,-2.5725,-2.6556,-2.7078,-2.563,0.0,0.0,0.0,0.0,0.0,0.0,0.0,0.0,0.0,0.0,0.0,0.0,0.0,-2.1985,-2.3144,-2.297,-2.3658,-2.5635,-2.6288,-2.7094,-2.8163,-2.8719,-2.9379,-3.0155,-3.0155,-3.0073,-2.9901,-2.9901,-2.9829,-2.9705,-2.9705,-2.9705,-2.9705,-2.9705,-2.9705,-2.9705,-2.9705,-2.9856,-3.0186,-3.1016,-3.1699,-3.2367,-3.3604,-3.3948,-3.3807,-3.3807,-3.3807,-3.3807,-3.3807,-3.3807,-3.3829,-3.4006,-3.3935,-3.3842,-3.4006,-3.3954,-3.3807,-3.3807,-3.3807,-3.3807,-3.3807,-3.3807,-3.3807,-3.3807,-3.3807,-3.3807,-3.3807,-3.3807,-3.3807,-3.3807,-3.3807,-3.3807,-3.3807,-3.3807,-3.3807,-3.3807,-3.3807,-3.3807,-3.3807,-3.3807,-3.3807,-3.3807,-3.3807,-3.3807,-3.3807,-3.3807,-3.3807,-3.3807,-3.3807,-3.3807,-3.3807,-3.3807,-3.3807,-3.3807,-3.3807,-3.3807,-3.3807,-3.3807,-3.3578,-3.3505,-3.3974,-3.4086,-3.1765,-3.1232,-3.0558,-2.7875,-2.7936,-2.817,-2.6724,-2.7037,-2.743,-2.6913,0.0,0.0,0.0,0.0,0.0,0.0,-1.9138,0.0,0.0,0.0,0.0,0.0,0.0,-2.122,-2.2682,-2.2509,0.0,0.0,-2.5827,-2.6544,-2.7409,-2.8242,-2.9083,-2.9929,-3.025,-3.0311,-3.0143,-3.0143,-3.0061,-2.9954,-2.9954,-2.9954,-2.9954,-2.9954,-2.9954,-2.9954,-2.9954,-2.9954,-3.0049,-3.117,-3.1785,-3.2198,-3.3362,-3.3778,-3.3802,-3.3915,-3.3935,-3.3961,-3.4074,-3.4123,-3.416,-3.4323,-3.426,-3.4136,-3.4183,-3.408,-3.3928,-3.3815,-3.3807,-3.3807,-3.3807,-3.3807,-3.3807,-3.3807,-3.3807,-3.3829,-3.391,-3.3935,-3.3974,-3.4099,-3.4012,-3.3915,-3.3802,-3.3807,-3.3807,-3.3807,-3.3807,-3.3807,-3.3807,-3.3807,-3.3807,-3.3807,-3.3807,-3.3807,-3.3807,-3.3807,-3.3807,-3.3807,-3.3807,-3.3807,-3.3807,-3.3807,-3.3807,-3.3807,-3.3807,-3.3807,-3.3807,-3.3807,-3.3666]},{"header":{"parameterUnit":"m.s-1","parameterCategory":1,"la1":30.6,"la2":29.2853,"lo1":-89.7004,"lo2":-87.6739,"dy":0.0162,"dx":0.0183,"nx":112,"ny":82,"refTime":"2024-05-16T18:00:00:Z","depth":0,"parameterNumber":3,"parameterNumberName":"V-component_of_WINDS"},"data":[0.0,0.0,0.0,0.0,0.0,0.0,0.0,0.0,0.0,0.0,0.0,0.0,0.0,0.0,0.0,0.0,0.0,0.0,0.0,0.0,0.0,0.0,0.0,0.0,0.0,0.0,0.0,0.0,0.0,0.0,0.0,0.0,0.0,0.0,0.0,0.0,0.0,0.0,0.0,0.0,0.0,0.0,0.0,0.0,0.0,0.0,0.0,0.0,0.0,0.0,0.0,0.0,0.0,0.0,0.0,0.0,0.0,0.0,0.0,0.0,0.0,0.0,0.0,0.0,0.0,0.0,0.0,0.0,0.0,0.0,0.0,0.0,0.0,0.0,0.0,0.0,0.0,0.0,0.0,0.0,0.0,0.0,0.0,0.0,0.0,0.0,0.0,0.0,0.0,0.0,-0.5617,-0.5539,-0.5523,-0.5602,-0.5873,-0.5387,-0.4697,-0.3801,0.0,0.0,0.0,0.0,0.0,0.0,0.0,0.0,0.0,0.0,0.0,0.0,0.0,0.0,0.0,0.0,0.0,0.0,0.0,0.0,0.0,0.0,0.0,0.0,0.0,0.0,0.0,0.0,0.0,0.0,0.0,0.0,0.0,0.0,0.0,0.0,0.0,0.0,0.0,0.0,0.0,0.0,0.0,0.0,0.0,0.0,0.0,0.0,0.0,0.0,0.0,0.0,0.0,0.0,0.0,0.0,0.0,0.0,0.0,0.0,0.0,0.0,0.0,0.0,0.0,0.0,0.0,0.0,0.0,0.0,0.0,0.0,0.0,0.0,0.0,0.0,0.0,0.0,0.0,0.0,0.0,0.0,0.0,0.0,0.0,0.0,0.0,0.0,0.0,0.0,0.0,0.0,0.0,0.0,0.0,0.0,0.0,0.0,0.0,0.0,0.0,0.0,0.0,0.0,-0.5676,-0.6486,-0.6462,-0.613,-0.5457,-0.5664,-0.5158,-0.3556,0.0,0.0,0.0,0.0,0.0,0.0,0.0,0.0,0.0,0.0,0.0,0.0,0.0,0.0,0.0,0.0,0.0,0.0,0.0,0.0,0.0,0.0,0.0,0.0,0.0,0.0,0.0,0.0,0.0,0.0,0.0,0.0,0.0,0.0,0.0,0.0,0.0,0.0,0.0,0.0,0.0,0.0,0.0,0.0,0.0,0.0,0.0,0.0,0.0,0.0,0.0,0.0,0.0,0.0,0.0,0.0,0.0,0.0,0.0,0.0,0.0,0.0,0.0,0.0,0.0,0.0,0.0,0.0,0.0,0.0,0.0,0.0,0.0,0.0,0.0,0.0,0.0,0.0,0.0,0.0,0.0,0.0,0.0,0.0,0.0,0.0,0.0,0.0,0.0,0.0,0.0,0.0,0.0,0.0,0.0,0.0,0.0,0.0,0.0,0.0,0.0,0.0,0.0,-0.6041,-0.6531,-0.7319,-0.7284,-0.7136,-0.6996,-0.638,-0.5553,-0.4491,-0.3836,0.0,0.0,0.0,0.0,0.0,0.0,0.0,0.0,0.0,0.0,0.0,0.0,0.0,0.0,0.0,0.0,0.0,0.0,0.0,0.0,0.0,0.0,0.0,0.0,0.0,0.0,0.0,0.0,0.0,0.0,0.0,0.0,0.0,0.0,0.0,0.0,0.0,0.0,0.0,0.0,0.0,0.0,0.0,0.0,0.0,0.0,0.0,0.0,0.0,0.0,0.0,0.0,0.0,0.0,0.0,0.0,0.0,0.0,0.0,0.0,0.0,0.0,0.0,0.0,0.0,0.0,0.0,0.0,0.0,0.0,0.0,0.0,0.0,0.0,0.0,0.0,0.0,0.0,0.0,0.0,0.0,0.0,0.0,0.0,0.0,0.0,0.0,0.0,0.0,0.0,0.0,0.0,0.0,0.0,0.0,0.0,0.0,0.0,0.0,0.0,0.0,0.0,-0.7047,-0.7581,-0.8037,-0.8006,-0.8018,-0.8163,-0.7066,-0.6043,-0.53,-0.4284,0.0,0.0,0.0,0.0,0.0,0.0,0.0,0.0,0.0,0.0,0.0,0.0,0.0,0.0,0.0,0.0,0.0,0.0,0.0,0.0,0.0,0.0,0.0,0.0,0.0,0.0,0.0,0.0,0.0,0.0,0.0,0.0,0.0,0.0,0.0,0.0,0.0,0.0,0.0,0.0,0.0,0.0,0.0,0.0,0.0,0.0,0.0,0.0,0.0,0.0,0.0,0.0,0.0,0.0,0.0,0.0,0.0,0.0,0.0,0.0,0.0,0.0,0.0,0.0,0.0,0.0,0.0,0.0,0.0,0.0,0.0,0.0,0.0,0.0,0.0,0.0,0.0,0.0,0.0,0.0,0.0,0.0,0.0,0.0,0.0,0.0,0.0,0.0,0.0,0.0,0.0,0.0,0.0,0.0,0.0,0.0,0.0,0.0,0.0,0.0,0.0,0.0,-0.7718,-0.8598,-0.8648,-0.8696,-0.8417,-0.7632,-0.747,-0.6749,-0.5218,-0.4621,0.0,0.0,0.0,0.0,0.0,0.0,0.0,0.0,0.0,0.0,0.0,0.0,0.0,0.0,0.0,0.0,0.0,0.0,0.0,0.0,0.0,0.0,0.0,0.0,0.0,0.0,0.0,0.0,0.0,0.0,0.0,0.0,0.0,0.0,0.0,0.0,0.0,0.0,0.0,0.0,0.0,0.0,0.0,0.0,0.0,0.0,0.0,0.0,0.0,0.0,0.0,0.0,0.0,0.0,0.0,0.0,0.0,0.0,0.0,0.0,0.0,0.0,0.0,0.0,0.0,0.0,0.0,0.0,0.0,0.0,0.0,0.0,0.0,0.0,0.0,0.0,0.0,0.0,0.0,0.0,0.0,0.0,0.0,0.0,0.0,0.0,0.0,0.0,0.0,0.0,0.0,0.0,0.0,0.0,0.0,0.0,0.0,0.0,0.0,0.0,0.0,0.0,-0.8261,-0.9248,0.0,-0.9545,-0.9226,-0.8731,-0.7802,-0.671,-0.5436,0.0,0.0,0.0,0.0,0.0,0.0,0.0,0.0,0.0,0.0,0.0,0.0,0.0,0.0,0.0,0.0,0.0,0.0,0.0,0.0,0.0,0.0,0.0,0.0,0.0,0.0,0.0,0.0,0.0,0.0,0.0,0.0,0.0,0.0,0.0,0.0,0.0,0.0,0.0,0.0,0.0,0.0,0.0,0.0,0.0,0.0,0.0,0.0,0.0,0.0,0.0,0.0,0.0,0.0,0.0,0.0,0.0,0.0,0.0,0.0,0.0,0.0,0.0,0.0,0.0,0.0,0.0,0.0,0.0,0.0,0.0,0.0,0.0,0.0,0.0,0.0,0.0,0.0,0.0,0.0,0.0,0.0,0.0,0.0,0.0,0.0,0.0,0.0,0.0,0.0,0.0,0.0,0.0,0.0,0.0,0.0,0.0,0.0,0.0,0.0,0.0,0.0,-0.7705,-0.8711,-0.9627,0.0,-0.9822,-0.9387,-0.9101,-0.7941,-0.6796,-0.5789,0.0,0.0,0.0,0.0,0.0,0.0,0.0,0.0,0.0,0.0,0.0,0.0,0.0,0.0,0.0,0.0,0.0,0.0,0.0,0.0,0.0,0.0,0.0,0.0,0.0,0.0,0.0,0.0,0.0,0.0,0.0,0.0,0.0,0.0,0.0,0.0,0.0,0.0,0.0,0.0,0.0,0.0,0.0,0.0,0.0,0.0,0.0,0.0,0.0,0.0,0.0,0.0,0.0,0.0,0.0,0.0,0.0,0.0,0.0,0.0,0.0,0.0,0.0,0.0,0.0,0.0,0.0,0.0,0.0,0.0,0.0,0.0,0.0,0.0,0.0,0.0,0.0,0.0,0.0,0.0,0.0,0.0,0.0,0.0,0.0,0.0,0.0,0.0,0.0,0.0,0.0,0.0,0.0,0.0,0.0,0.0,0.0,0.0,0.0,0.0,0.0,0.0,-0.8346,-0.9056,-0.9695,-1.018,-0.9373,-0.8717,-0.844,-0.7863,-0.7137,0.0,0.0,0.0,0.0,0.0,0.0,0.0,0.0,0.0,0.0,0.0,0.0,0.0,0.0,0.0,0.0,0.0,0.0,0.0,0.0,0.0,0.0,0.0,0.0,0.0,0.0,0.0,0.0,0.0,0.0,0.0,0.0,0.0,0.0,0.0,0.0,0.0,0.0,0.0,0.0,0.0,0.0,0.0,0.0,0.0,0.0,0.0,0.0,0.0,0.0,0.0,0.0,0.0,0.0,0.0,0.0,0.0,0.0,0.0,0.0,0.0,0.0,0.0,0.0,0.0,0.0,0.0,0.0,0.0,0.0,0.0,0.0,0.0,0.0,0.0,0.0,0.0,0.0,0.0,0.0,0.0,0.0,0.0,0.0,0.0,0.0,0.0,0.0,0.0,0.0,0.0,0.0,0.0,0.0,0.0,0.0,0.0,0.0,0.0,0.0,0.0,0.0,0.0,-0.8721,-1.0094,-1.1263,-1.2028,-1.0965,-1.0034,-0.9573,-0.847,-0.7148,-0.5648,0.0,0.0,0.0,0.0,0.0,0.0,0.0,0.0,0.0,0.0,0.0,0.0,0.0,0.0,0.0,0.0,0.0,0.0,0.0,0.0,0.0,0.0,0.0,0.0,0.0,0.0,0.0,0.0,0.0,0.0,0.0,0.0,0.0,0.0,0.0,0.0,0.0,0.0,0.0,0.0,0.0,0.0,0.0,0.0,0.0,0.0,0.0,0.0,0.0,0.0,0.0,0.0,0.0,0.0,0.0,0.0,0.0,0.0,0.0,0.0,0.0,0.0,0.0,0.0,0.0,0.0,0.0,0.0,0.0,0.0,0.0,0.0,0.0,0.0,0.0,0.0,0.0,0.0,0.0,0.0,0.0,0.0,0.0,0.0,0.0,0.0,0.0,0.0,0.0,0.0,0.0,0.0,0.0,0.0,0.0,0.0,0.0,0.0,0.0,0.0,0.0,0.0,-0.9104,-1.0395,-1.1514,-1.2366,-1.145,-1.0508,-0.9809,-0.887,-0.7543,-0.5776,0.0,0.0,0.0,0.0,0.0,0.0,0.0,0.0,0.0,0.0,0.0,0.0,0.0,0.0,0.0,0.0,0.0,0.0,0.0,0.0,0.0,0.0,0.0,0.0,0.0,0.0,0.0,0.0,0.0,0.0,0.0,0.0,0.0,0.0,0.0,0.0,0.0,0.0,0.0,0.0,0.0,0.0,0.0,0.0,0.0,0.0,0.0,0.0,0.0,0.0,0.0,0.0,0.0,0.0,0.0,0.0,0.0,0.0,0.0,0.0,0.0,0.0,0.0,0.0,0.0,0.0,0.0,0.0,0.0,0.0,0.0,0.0,0.0,0.0,0.0,0.0,0.0,0.0,0.0,0.0,0.0,0.0,0.0,0.0,0.0,0.0,0.0,0.0,0.0,0.0,0.0,0.0,0.0,0.0,0.0,0.0,0.0,0.0,0.0,0.0,0.0,0.0,-0.9437,-1.024,-1.1003,-1.1807,-1.1291,-1.0548,-0.9669,-0.9211,-0.8209,-0.6412,0.0,0.0,0.0,0.0,0.0,0.0,0.0,0.0,0.0,0.0,0.0,0.0,0.0,0.0,0.0,0.0,0.0,0.0,0.0,0.0,0.0,0.0,0.0,0.0,0.0,0.0,0.0,0.0,0.0,0.0,0.0,0.0,0.0,0.0,0.0,0.0,0.0,0.0,0.0,0.0,0.0,0.0,0.0,0.0,0.0,0.0,0.0,0.0,0.0,0.0,0.0,0.0,0.0,0.0,0.0,0.0,0.0,0.0,0.0,0.0,-0.973,0.0,0.0,0.0,0.0,0.0,0.0,0.0,0.0,0.0,0.0,0.0,0.0,0.0,0.0,0.0,0.0,0.0,0.0,0.0,0.0,0.0,0.0,0.0,0.0,0.0,0.0,0.0,0.0,0.0,0.0,0.0,0.0,0.0,0.0,0.0,0.0,0.0,0.0,0.0,0.0,0.0,-0.9437,-1.065,-1.1705,-1.257,-1.2005,-1.1407,-1.1012,-1.0086,-0.88,-0.709,-0.6331,0.0,0.0,0.0,0.0,0.0,0.0,0.0,0.0,0.0,0.0,0.0,0.0,0.0,0.0,0.0,0.0,0.0,0.0,0.0,0.0,0.0,0.0,0.0,0.0,0.0,0.0,0.0,0.0,0.0,0.0,0.0,0.0,0.0,0.0,0.0,0.0,0.0,0.0,0.0,0.0,0.0,0.0,0.0,0.0,0.0,0.0,0.0,0.0,0.0,0.0,0.0,0.0,0.0,0.0,0.0,0.0,0.0,0.0,0.0,0.0,-1.0999,0.0,0.0,0.0,0.0,0.0,0.0,0.0,0.0,0.0,0.0,0.0,0.0,0.0,0.0,0.0,0.0,0.0,0.0,0.0,0.0,0.0,0.0,0.0,0.0,0.0,0.0,0.0,0.0,0.0,0.0,0.0,0.0,0.0,0.0,0.0,0.0,0.0,0.0,0.0,0.0,-0.9775,-1.1084,-1.2139,-1.2837,-1.2559,-1.2128,-1.1631,-1.0745,-0.9649,-0.8293,-0.7183,0.0,0.0,0.0,0.0,0.0,0.0,0.0,0.0,0.0,0.0,0.0,0.0,0.0,0.0,0.0,0.0,0.0,0.0,0.0,0.0,0.0,0.0,0.0,0.0,0.0,0.0,0.0,0.0,0.0,0.0,0.0,0.0,0.0,0.0,0.0,0.0,0.0,0.0,0.0,0.0,0.0,0.0,0.0,0.0,0.0,0.0,0.0,0.0,0.0,0.0,0.0,0.0,0.0,-1.3383,-1.3641,-1.4062,-1.4062,-1.4601,-1.5399,-1.4011,-1.3727,-1.411,-1.265,0.0,0.0,0.0,0.0,0.0,0.0,0.0,0.0,0.0,0.0,0.0,0.0,0.0,0.0,0.0,0.0,0.0,0.0,0.0,0.0,0.0,0.0,0.0,0.0,-1.0889,-1.0752,-0.9373,0.0,0.0,0.0,0.0,0.0,0.0,0.0,0.0,0.0,0.0,0.0,-1.0244,-1.1465,-1.2369,-1.2856,-1.2905,-1.2642,-1.2055,-1.1407,-1.0583,-0.9529,-0.8208,-0.7123,0.0,0.0,0.0,0.0,0.0,0.0,0.0,0.0,0.0,0.0,0.0,0.0,0.0,0.0,0.0,0.0,0.0,0.0,0.0,0.0,0.0,0.0,0.0,0.0,0.0,0.0,0.0,0.0,0.0,0.0,0.0,0.0,-0.7702,-0.8392,0.0,0.0,0.0,0.0,0.0,0.0,0.0,0.0,0.0,0.0,0.0,0.0,0.0,-1.2906,-1.4444,-1.4934,-1.568,-1.6757,-1.7212,-1.7476,-1.7551,-1.7551,-1.7626,-1.7752,-1.7539,0.0,-1.4739,-1.4047,0.0,0.0,0.0,0.0,0.0,0.0,0.0,0.0,0.0,0.0,0.0,0.0,0.0,0.0,0.0,0.0,0.0,0.0,0.0,0.0,0.0,0.0,-1.2373,-1.2028,-1.1999,-1.1969,0.0,-1.0517,-0.9309,-0.8848,-0.8457,0.0,0.0,0.0,0.0,0.0,0.0,0.0,-1.0664,-1.1628,-1.2369,-1.2856,-1.2905,-1.2847,-1.2774,-1.2304,-1.1487,-1.0258,-0.939,-0.8387,-0.7179,-0.634,0.0,0.0,0.0,0.0,0.0,0.0,0.0,0.0,0.0,0.0,0.0,0.0,0.0,0.0,0.0,0.0,0.0,0.0,0.0,0.0,0.0,0.0,0.0,0.0,0.0,0.0,0.0,0.0,0.0,-0.774,-0.8999,-0.9223,-0.9897,-1.0195,0.0,0.0,0.0,0.0,0.0,0.0,0.0,0.0,0.0,-1.4237,-1.4877,-1.5706,-1.6735,-1.6986,-1.735,-1.7852,-1.8091,-1.8204,-1.8204,-1.8204,-1.853,-1.907,-1.8468,-1.799,-1.7549,-1.6065,-1.4977,-1.4199,0.0,0.0,0.0,0.0,-1.3204,-1.3501,-1.3803,-1.3884,-1.3757,-1.3137,0.0,0.0,0.0,0.0,0.0,0.0,0.0,-1.1752,0.0,0.0,-1.3029,-1.308,-1.2839,-1.2598,-1.2598,-1.1992,-1.1182,0.0,-0.9922,-0.9375,-0.8062,0.0,0.0,0.0,0.0,-1.0361,-1.1193,-1.2041,-1.2666,-1.2886,-1.2905,-1.2905,-1.2905,-1.248,-1.1863,-1.1073,-1.027,-0.9338,-0.8299,-0.7555,-0.6998,0.0,0.0,0.0,0.0,0.0,0.0,0.0,0.0,0.0,0.0,0.0,0.0,0.0,0.0,0.0,0.0,0.0,0.0,0.0,0.0,0.0,0.0,0.0,0.0,0.0,0.0,0.0,0.0,-0.867,-1.0042,-1.0289,-1.1171,-1.1583,0.0,0.0,0.0,0.0,0.0,0.0,-1.4018,-1.499,-1.5789,-1.6321,-1.7287,-1.8066,-1.8606,-1.8756,-1.8907,-1.9045,-1.9045,-1.9045,-1.9045,-1.9045,-1.9484,-2.0188,-1.9397,-1.9497,-2.0062,-1.7852,-1.671,-1.6258,-1.5449,-1.4884,-1.4532,-1.4984,-1.5399,-1.5801,-1.6195,-1.6302,-1.6154,-1.5517,-1.4582,-1.3513,-1.2291,0.0,0.0,0.0,0.0,-1.3342,-1.3771,-1.3747,-1.3684,-1.3834,-1.3465,-1.3037,-1.3037,-1.2983,-1.2582,0.0,-1.1229,-1.0781,-0.9295,0.0,0.0,0.0,0.0,-1.123,-1.1702,-1.2426,-1.2905,-1.2905,-1.2905,-1.2905,-1.2905,-1.2588,-1.2158,-1.1636,-1.0978,-1.0244,-0.9366,-0.865,-0.8003,-0.7439,0.0,0.0,0.0,0.0,0.0,0.0,0.0,0.0,0.0,0.0,0.0,0.0,0.0,0.0,0.0,0.0,0.0,0.0,0.0,0.0,0.0,0.0,0.0,0.0,0.0,0.0,0.0,0.0,0.0,-1.2119,-1.2202,0.0,0.0,0.0,0.0,-1.3867,-1.4456,-1.5236,-1.6274,-1.6923,-1.7513,-1.8066,-1.8619,-1.9171,-1.971,-2.0302,-2.083,-2.1317,-2.1317,-2.1317,-2.1317,-2.1317,-2.1355,-2.1405,-2.1343,-2.1355,-2.123,-1.9032,-1.8103,-1.8078,-1.8016,-1.7978,-1.7953,-1.799,-1.8016,-1.8041,-1.8066,-1.8067,-1.8056,-1.803,-1.6855,-1.5381,-1.4856,-1.3838,0.0,0.0,-1.4206,-1.4591,-1.4997,-1.5109,-1.4909,-1.4265,-1.3769,-1.3477,-1.3477,-1.3164,-1.2744,0.0,-1.2135,-1.1843,-1.0927,0.0,-1.0811,-1.0781,-1.1232,-1.1712,-1.2116,-1.2598,-1.2905,-1.2905,-1.2905,-1.2905,-1.2905,-1.2886,-1.2504,-1.1655,-1.1567,-1.1144,-1.0264,-0.9413,-0.8751,-0.8344,-0.7106,0.0,0.0,0.0,0.0,0.0,0.0,0.0,0.0,0.0,0.0,0.0,0.0,0.0,0.0,0.0,0.0,0.0,0.0,0.0,0.0,0.0,0.0,0.0,0.0,0.0,0.0,0.0,0.0,-1.2722,-1.4003,0.0,-1.4627,-1.5203,-1.5761,-1.6204,-1.6732,-1.7338,-1.8067,-1.8643,-1.9196,-1.9799,-2.0326,-2.0702,-2.0878,-2.1119,-2.132,-2.1493,-2.1493,-2.1493,-2.1493,-2.1493,-2.1681,-2.1995,-2.1644,-2.1694,-2.1933,-2.079,-2.0112,-1.9774,-1.9371,-1.9233,-1.9196,-1.8832,-1.892,-1.9046,-1.7885,-1.7727,-1.787,-1.7054,-1.6103,-1.5405,-1.611,-1.572,-1.5185,-1.5836,-1.6104,-1.6128,-1.5807,-1.5438,-1.507,-1.4819,-1.4304,-1.389,-1.389,-1.3763,-1.3539,-1.311,-1.2832,-1.2363,-1.1496,-1.1819,-1.2005,-1.1438,-1.1966,-1.2494,-1.2627,-1.2807,-1.2905,-1.2905,-1.2905,-1.2905,-1.2905,-1.2905,-1.2524,-1.1665,-1.1606,-1.1224,-1.0342,-0.9993,-0.9502,-0.8799,-0.8094,-0.7223,0.0,0.0,0.0,0.0,0.0,0.0,0.0,0.0,0.0,0.0,0.0,0.0,0.0,0.0,0.0,0.0,0.0,0.0,0.0,0.0,0.0,0.0,0.0,0.0,0.0,0.0,-1.3043,-1.369,-1.4834,-1.5765,-1.6297,-1.6893,-1.753,-1.8155,-1.8719,-1.9196,-1.956,-2.0075,-2.0552,-2.0955,-2.1481,-2.1769,-2.1769,-2.1945,-2.2046,-2.2046,-2.2046,-2.2046,-2.2046,-2.2046,-2.2246,-2.2543,-2.2196,-2.2246,-2.2531,-2.2196,-2.1832,-2.1418,-2.0665,-2.0363,-2.0326,-1.9961,-2.0075,-2.021,-1.8998,-1.8818,-1.8893,-1.7627,-1.6684,-1.6109,-1.6559,-1.6232,-1.5856,-1.6503,-1.678,-1.6788,-1.6304,-1.5866,-1.5513,-1.527,-1.4752,-1.4328,-1.4328,-1.4211,-1.4026,-1.3743,-1.3379,-1.2886,-1.2152,-1.2514,-1.27,-1.2145,-1.2533,-1.2905,-1.2905,-1.2905,-1.2905,-1.2905,-1.2905,-1.2905,-1.2905,-1.2744,-1.2367,-1.1655,-1.1447,-1.1046,-1.0332,-1.0137,-0.9727,-0.9014,-0.8311,-0.7688,-0.7103,0.0,0.0,0.0,0.0,0.0,0.0,0.0,0.0,0.0,0.0,0.0,0.0,0.0,0.0,0.0,0.0,0.0,0.0,0.0,0.0,0.0,0.0,0.0,-1.1645,-1.2012,-1.3024,-1.5057,-1.4661,-1.5253,-1.7968,-1.7537,-1.7862,-1.9708,-2.0402,-2.0729,-2.0742,-2.1257,-2.1518,-2.1543,-2.2071,-2.2347,-2.2334,-2.2882,-2.3145,-2.3133,-2.3145,-2.3158,-2.3158,-2.3158,-2.3158,-2.3158,-2.3145,-2.3133,-2.3133,-2.3108,-2.3108,-2.2995,-2.1958,-2.1543,-2.1543,-2.1518,-2.1478,-2.1425,-2.1465,-2.1425,-2.1185,-1.9977,-1.879,-1.7572,-1.6352,-1.5471,-1.503,-1.5741,-1.6203,-1.6503,-1.6492,-1.6464,-1.6293,-1.5584,-1.5098,-1.4833,-1.4833,-1.4473,-1.4143,-1.4133,-1.3802,-1.3408,-1.3003,-1.2915,-1.2905,-1.2905,-1.2905,0.0,-1.2905,-1.2905,-1.2905,-1.2905,-1.2905,-1.2905,-1.2905,-1.2467,-1.2051,-1.1636,-1.1162,-1.0732,-1.0322,-0.9854,-0.9435,-0.9033,-0.7783,-0.7582,-0.8492,0.0,0.0,0.0,0.0,0.0,0.0,0.0,0.0,0.0,0.0,0.0,0.0,0.0,0.0,0.0,0.0,0.0,0.0,0.0,0.0,0.0,0.0,-1.2543,-1.2543,-1.3418,-1.4412,-1.5268,-1.594,-1.702,-1.8696,-1.9139,-1.9797,-2.0961,-2.1207,-2.1443,-2.1832,-2.1995,-2.2272,-2.2644,-2.3238,-2.3339,-2.2882,-2.3847,-2.4123,-2.3766,-2.4136,-2.4324,-2.4324,-2.4324,-2.4324,-2.4299,-2.391,-2.3766,-2.3728,-2.3283,-2.3108,-2.307,-2.2769,-2.2656,-2.2606,-2.2234,-2.1107,-1.9849,-2.0481,-1.9948,-1.9011,-1.929,-1.8744,-1.7992,-1.8163,-1.7632,-1.6957,-1.6861,-1.6919,-1.6805,-1.5925,-1.569,-1.5642,-1.5439,-1.5322,-1.5244,-1.5244,-1.5118,-1.4971,-1.4668,-1.4512,-1.4199,-1.3467,-1.3076,-1.2905,-1.2905,-1.2905,0.0,-1.2905,-1.2905,-1.2905,-1.2905,-1.2905,-1.2905,-1.2905,-1.2773,-1.2396,-1.1655,-1.1467,-1.1076,-1.0332,-1.0185,-0.9902,-0.9445,-0.8516,-0.8177,0.0,0.0,0.0,0.0,0.0,0.0,0.0,0.0,0.0,0.0,0.0,0.0,0.0,0.0,0.0,0.0,0.0,0.0,0.0,0.0,0.0,0.0,-1.2895,-1.374,-1.3916,-1.458,-1.532,-1.6066,-1.6638,-1.7764,-1.97,-1.9674,-2.0256,-2.2043,-2.1852,-2.18,-2.2119,-2.228,-2.2549,-2.2929,-2.3438,-2.3744,-2.381,-2.4462,-2.4625,-2.4343,-2.4637,-2.4788,-2.4788,-2.4788,-2.4788,-2.4775,-2.4481,-2.4343,-2.4305,-2.3697,-2.3597,-2.376,0.0,0.0,0.0,0.0,-2.1864,-2.086,-2.1347,-2.0711,-1.9613,-1.9553,-1.8969,-1.83,-1.8546,-1.8047,-1.7358,-1.7488,-1.7265,-1.683,-1.6116,-1.582,-1.5684,-1.5684,-1.5537,-1.541,-1.541,-1.541,-1.5342,-1.5098,-1.4902,0.0,-1.4131,-1.3545,-1.3086,-1.2935,-1.2905,-1.2905,-1.2905,-1.2905,-1.2905,-1.2905,-1.2905,-1.2905,-1.2905,-1.2715,0.0,0.0,0.0,-1.0929,-1.0049,-1.001,0.0,0.0,0.0,0.0,0.0,0.0,0.0,0.0,-1.0673,-1.0507,0.0,0.0,0.0,0.0,0.0,0.0,0.0,0.0,0.0,0.0,0.0,0.0,0.0,0.0,0.0,0.0,-1.3828,-1.5019,-1.5488,-1.5605,-1.6009,-1.7089,-1.6958,-1.7853,-2.0549,-1.9513,-1.9848,-2.2678,-2.2209,-2.1828,-2.1887,0.0,0.0,0.0,0.0,-2.386,-2.4788,-2.4946,-2.4938,-2.4876,-2.4938,-2.5008,-2.5008,-2.5008,-2.5008,-2.5008,-2.4933,-2.4876,-2.4838,-2.4318,-2.4381,-2.4675,-2.3622,-2.3158,-2.3078,-2.3017,-2.2914,-2.2811,-2.2811,0.0,0.0,-2.0356,-1.9461,-1.8733,-1.827,-1.7541,-1.6983,-1.7729,-1.7376,-1.6765,-1.6716,-1.6436,-1.6173,-1.6173,-1.5801,-1.5488,-1.5488,-1.5449,-1.541,-1.541,-1.5107,-1.4844,-1.4823,-1.4072,-1.3379,-1.3032,-1.2935,-1.2905,-1.2905,-1.2905,-1.2905,-1.2905,-1.2905,0.0,-1.2905,-1.2529,-1.2262,-1.2213,-1.1424,-1.0624,-0.9864,-0.9825,-0.9825,-0.9825,-0.9482,-1.036,-1.2493,-1.2181,-1.2716,-1.3957,-1.2068,-1.1685,0.0,0.0,0.0,0.0,0.0,0.0,0.0,0.0,0.0,0.0,0.0,0.0,0.0,0.0,0.0,-1.4062,-1.4853,-1.5566,-1.6336,-1.6777,-1.7096,-1.7335,-1.7304,-1.7893,-1.9468,-1.9359,-1.9835,-2.1456,-2.1425,-2.1507,-2.188,-2.1958,-2.2388,-2.3169,-2.3724,-2.4292,-2.4788,-2.5699,-2.5946,-2.5448,0.0,0.0,-2.6172,-2.6172,-2.6172,-2.6147,-2.5649,-2.5448,-2.541,-2.4883,-2.472,-2.4725,-2.4092,-2.3521,-2.3005,-2.2384,-2.1678,-2.1069,-2.1069,-2.0974,-2.0803,-2.0542,-2.0349,-2.0082,-1.9285,-1.8433,0.0,-1.7573,-1.7386,-1.7178,-1.6794,-1.6638,-1.657,-1.657,-1.626,-1.5968,-1.5968,-1.5664,-1.541,-1.541,-1.5342,-1.5186,-1.4872,-1.4072,-1.3477,-1.3398,-1.3096,-1.2905,-1.2905,-1.2905,-1.2905,-1.2905,-1.2905,-1.2905,-1.2905,-1.2827,-1.2607,-1.2233,-1.1728,-1.1379,-1.1213,-1.1203,-1.1203,-1.1203,-1.1145,-1.1329,-1.1791,-1.2576,-1.3105,-1.3397,-1.3857,-1.3966,0.0,0.0,0.0,0.0,0.0,0.0,0.0,0.0,0.0,0.0,0.0,-1.1523,0.0,0.0,-1.4102,-1.4961,-1.5615,-1.6268,-1.6963,-1.7246,-1.7383,-1.7383,-1.7568,-1.8132,-1.9212,-1.9083,-1.957,-2.1086,-2.0992,-2.1002,-2.125,-2.1441,-2.2031,-2.3087,-2.3583,-2.4446,-2.5636,-2.5719,-2.5842,-2.6072,-2.5854,-2.6025,-2.6499,-2.6499,-2.6499,-2.6474,-2.6185,-2.5775,-2.5259,-2.4465,-2.4114,-2.4054,-2.4099,-2.404,-2.3879,-2.3188,-2.266,-2.2202,-2.1478,-2.0942,-2.0526,-2.0074,-1.965,-1.9299,-1.9299,-1.8687,-1.8061,-1.8268,-1.8052,-1.7646,-1.7399,-1.7184,-1.7061,-1.7061,-1.6719,-1.6338,-1.6144,-1.5919,-1.5674,-1.5459,-1.541,-1.5342,-1.5127,-1.457,-1.4004,-1.3574,-1.333,-1.3125,-1.2935,-1.2905,-1.2905,-1.2905,-1.2905,-1.2905,-1.2905,-1.2905,-1.2695,-1.2233,-1.2021,-1.1819,-1.1616,-1.1606,-1.1727,-1.2041,-1.1749,-1.2011,-1.2859,-1.3055,-1.3584,-1.44,-1.4995,-1.5105,0.0,0.0,0.0,0.0,0.0,0.0,0.0,0.0,-1.1046,-1.1907,-1.2344,-1.2837,-1.3721,-1.4717,-1.5498,-1.5752,-1.6396,-1.7012,-1.7441,-1.75,-1.75,-1.75,-1.7803,-1.8269,-1.8977,-1.8784,-1.9203,-2.0712,-2.0607,-2.0494,-2.0586,-2.089,-2.1592,-2.2692,-2.3058,-2.4061,-2.5908,-2.5111,-2.5111,-2.5908,-2.5111,-2.5146,-2.5931,-2.6129,-2.6198,-2.6211,-2.6418,-2.5921,-2.4933,-2.412,-2.3626,-2.3383,-2.3885,-2.4261,-2.4497,-2.4062,-2.3783,-2.3423,-2.2138,-2.1335,-2.0708,-1.9628,-1.889,-1.8456,-1.9011,-1.8623,-1.8144,-1.8854,-1.8519,-1.8008,-1.8008,-1.7764,-1.75,-1.75,-1.7178,-1.6758,-1.6427,-1.6212,-1.5987,-1.5605,-1.5469,-1.541,-1.541,-1.5127,-1.4648,-1.3877,-1.3613,-1.3389,-1.3071,-1.2954,-1.2905,-1.2905,-1.2905,-1.2905,-1.2905,-1.2905,-1.2734,-1.2359,-1.233,-1.2197,-1.1881,-1.1839,-1.2073,-1.2568,-1.2218,-1.2701,-1.4038,-1.3728,-1.4283,-1.561,-1.572,-1.5798,-0.6946,-0.7673,-0.8981,-1.0858,-1.1034,-1.116,0.0,0.0,-1.2832,-1.3646,-1.386,-1.4153,-1.5039,-1.5312,-1.5791,-1.6973,-1.7246,-1.7451,-1.7881,-1.7939,-1.7939,-1.7939,-1.7978,-1.8042,-1.8144,-1.8423,-1.887,-1.9469,-1.9821,-2.0161,-2.0593,-2.0652,-2.1123,-2.2066,-2.2157,-2.2702,-2.3806,-2.3708,-2.3708,-2.3806,-2.3708,-2.3734,-2.3879,-2.4743,-2.5158,-2.5229,-2.6094,-2.5921,-2.4981,-2.4898,-2.4303,-2.3467,-2.3559,-2.3621,-2.3642,-2.3573,-2.2995,-2.2094,-2.1235,-2.1352,-2.1571,-1.9864,-1.9495,-1.9565,-1.8894,-1.837,-1.8008,-1.811,-1.8076,-1.8008,-1.8008,-1.7978,-1.7939,-1.7939,-1.7617,-1.7295,-1.7246,-1.6652,-1.6075,-1.6026,-1.5684,-1.541,-1.541,-1.5371,-1.5186,-1.4717,-1.3994,-1.3486,-1.3447,-1.3115,-1.2905,-1.2905,-1.2905,-1.2905,-1.2905,-1.2905,-1.2886,-1.2837,-1.2812,-1.2807,-1.2758,-1.2758,-1.2782,-1.2854,-1.3314,-1.3642,-1.3835,-1.4824,-1.5418,-1.561,-1.6139,-1.6386,-0.8993,-0.9611,-1.0466,0.0,-1.2734,-1.2954,-1.3675,-1.3714,-1.3779,-1.4385,-1.4512,-1.4775,-1.5664,-1.6006,-1.6445,0.0,-1.7588,-1.7812,-1.7988,-1.8008,-1.8008,-1.8008,-1.8008,-1.8008,-1.8008,-1.8623,-1.9092,-1.9277,-1.9912,-2.041,-2.0595,-2.0605,-2.1039,-2.1952,-2.1989,-2.2478,-2.3478,-2.2925,-2.2925,-2.3478,-2.2925,-2.2925,-2.3514,-2.3927,-2.412,-2.4145,-2.4588,-2.4181,-2.3257,-2.3257,-2.2999,-2.2627,-2.2627,-2.2627,-2.2652,-2.2942,-2.2763,-2.2323,-2.1697,-2.1366,-2.1086,-2.04,-1.9895,-1.9444,-1.8772,-1.8481,-1.8286,-1.8076,-1.8008,-1.8008,-1.8008,-1.8008,-1.8008,-1.8008,-1.7871,-1.7686,-1.7432,-1.7122,-1.6711,-1.6193,-1.5948,-1.5703,-1.5459,-1.541,-1.5352,-1.5176,-1.4424,-1.3763,-1.3545,-1.3145,-1.2905,-1.2905,-1.2905,-1.2905,-1.2905,-1.2905,-1.2905,-1.2905,-1.2905,-1.2905,-1.2905,-1.2905,-1.3065,-1.342,-1.3334,-1.3624,-1.4329,-1.448,-1.4903,-1.561,-1.5864,-1.616,-1.0539,0.0,0.0,-1.3246,-1.388,-1.4133,-1.426,-1.428,-1.4406,-1.4863,-1.4961,-1.5214,-1.5958,-1.6436,-1.6843,-1.7314,-1.7734,-1.8008,-1.8008,-1.8008,-1.8008,-1.8008,-1.8008,-1.8008,-1.8008,-1.8672,-1.916,-1.9277,-2.0008,-2.0478,-2.0595,-2.0605,-2.0895,-2.1593,-2.1593,-2.1962,-2.2675,-2.1962,-2.1962,-2.2675,-2.1962,-2.2,-2.2713,-2.2962,-2.3257,-2.3514,-2.3514,-2.2925,-2.1989,-2.1989,-2.1849,-2.1593,-2.1593,-2.1593,-2.1666,-2.1993,-2.2266,-2.2465,-2.2114,-2.1567,-2.0943,-2.0819,-2.0165,-1.9394,-1.9046,-1.8783,-1.8539,-1.8237,-1.8105,-1.8008,-1.8008,-1.8008,-1.8008,-1.8008,-1.8008,-1.793,-1.7627,-1.7461,-1.723,-1.6584,-1.6261,-1.5987,-1.5644,-1.5488,-1.541,-1.541,-1.4757,-1.4133,-1.3714,-1.3213,-1.2905,-1.2905,-1.2905,-1.2905,-1.2905,-1.2905,-1.2905,-1.2905,-1.2905,-1.2905,-1.2905,-1.2905,-1.3104,-1.3552,-1.3286,-1.3658,-1.4698,-1.4434,-1.4835,-1.5842,-1.5842,-1.6073,0.0,0.0,-1.1885,-1.3649,-1.4094,-1.4221,-1.4668,-1.4766,-1.4883,-1.5303,-1.5391,-1.5527,-1.6007,-1.6436,-1.6843,-1.7314,-1.7734,-1.8008,-1.8008,-1.8008,-1.8008,-1.8008,-1.8008,-1.8008,0.0,-1.8373,-1.8792,-1.9258,-1.9687,-2.0117,-2.0586,-2.0605,-2.0605,-2.0644,-2.0644,-2.0644,-2.0683,-2.0644,-2.0644,-2.0683,-2.0644,-2.0644,-2.0712,-2.1631,-2.259,-2.3514,-2.3514,-2.2925,-2.1989,-2.1989,-2.1441,-2.0644,-2.0644,-2.0644,-2.0634,-2.0663,-2.125,-2.2006,-2.1985,-2.1985,-2.1807,-2.0894,-2.0273,-1.9893,-1.9883,-1.926,-1.8598,-1.8588,-1.8286,-1.8008,-1.8008,-1.8008,-1.8008,-1.8008,-1.8008,-1.8008,-1.7988,-1.7666,-1.7373,-1.7386,-1.6682,-1.6085,-1.6075,-1.5693,-1.541,-1.541,-1.5039,-1.4609,-1.4143,-1.3389,-1.2905,-1.2905,-1.2905,-1.2905,-1.2905,-1.2905,-1.2905,-1.2905,-1.2905,-1.2905,-1.2905,-1.2905,-1.2905,-1.2929,-1.3481,-1.4073,-1.4698,-1.5276,-1.5864,-1.6466,-1.6466,-1.6466,-1.0412,0.0,-1.2473,-1.3505,-1.4611,-1.5381,-1.5234,-1.543,-1.5615,-1.5439,-1.5186,-1.5215,-1.5958,-1.5947,-1.6191,-1.7217,-1.75,-1.7695,-1.7969,-1.8217,-1.8286,-1.8047,-1.8252,0.0,0.0,0.0,0.0,-1.9248,-1.9678,-2.0098,-2.0576,-2.0605,-2.0605,-2.0605,-2.0605,-2.0605,-2.0605,-2.0605,-2.0605,-2.0605,-2.0869,-2.1016,-2.1006,-2.1342,-2.1647,-2.1968,-2.2364,-2.2102,-2.1509,-2.1869,-2.1451,-2.0605,-2.0605,-2.0605,-2.0605,-2.0605,-2.0789,-2.1155,-2.1773,-2.1593,-2.1116,-2.1451,-2.1016,-2.0293,-2.0,-1.9717,-1.9329,-1.8763,-1.85,-1.8325,-1.8086,-1.8008,-1.8008,-1.8008,-1.8008,-1.8008,-1.8008,-1.79,-1.7715,-1.7432,-1.6914,-1.6416,-1.6144,-1.5703,-1.541,-1.541,-1.5049,-1.4629,-1.4163,-1.3617,-1.3301,-1.3301,-1.3071,-1.2905,-1.2905,-1.2905,-1.2905,-1.2905,-1.2905,-1.2905,-1.2905,-1.2905,-1.2905,-1.2905,-1.3104,-1.3515,-1.4097,-1.471,-1.5298,-1.5908,-1.6303,-1.65,-1.0938,-1.2076,-1.3114,-1.4382,-1.5527,-1.6191,-1.5742,-1.5889,-1.5928,-1.5303,-1.4971,-1.4902,-1.5303,-1.5273,-1.5566,-1.675,-1.721,-1.7578,-1.8154,-1.8432,-1.8559,-1.8477,-1.8529,-1.8559,0.0,0.0,0.0,-1.9268,-1.9678,-2.0098,-2.0576,-2.0605,-2.0605,-2.0605,-2.0605,-2.0605,-2.0605,-2.0723,-2.0879,-2.1085,-2.1328,-2.1465,-2.1465,-2.1465,-2.1465,-2.1486,-2.1798,-2.1769,-2.1466,-2.1626,-2.1357,-2.0791,-2.0664,-2.0605,-2.0605,-2.0605,-2.0605,-2.0683,-2.1298,-2.1116,-2.0712,-2.1298,-2.1078,-2.0546,-2.0234,-2.0039,-1.9795,-1.9212,-1.8841,-1.8539,-1.8266,-1.8125,-1.8008,-1.8008,-1.8008,-1.8008,-1.8008,-1.8008,-1.793,-1.7656,-1.7256,-1.6826,-1.6377,-1.5811,-1.541,-1.541,-1.5186,-1.4853,-1.4424,-1.3968,-1.3646,-1.3525,-1.3271,-1.3071,-1.2915,-1.2905,-1.2905,-1.2905,-1.2905,-1.2905,-1.2905,-1.2905,-1.2905,-1.2905,-1.3104,-1.3515,-1.412,-1.4514,-1.513,-1.593,-1.6095,-1.6281,-1.237,-1.3155,-1.3786,-1.6002,-1.6634,-1.658,-1.6193,-1.6075,-1.5821,-1.4961,-1.4746,-1.4572,0.0,0.0,-1.5011,-1.5948,-1.6819,-1.7646,-1.8481,-1.8617,-1.8792,0.0,0.0,0.0,0.0,0.0,0.0,-1.9316,0.0,-2.0098,-2.0576,-2.0605,-2.0605,-2.0605,-2.0625,-2.0635,-2.0635,-2.1045,-2.1484,-2.1924,-2.1924,-2.1924,-2.1924,-2.1924,-2.1924,-2.1914,-2.1894,-2.1894,-2.1885,-2.1445,-2.121,-2.1151,-2.0762,-2.0625,-2.0605,-2.0605,-2.0605,-2.0605,-2.0605,-2.0605,-2.0605,-2.0605,-2.0605,-2.0605,-2.0605,-2.0273,-1.9941,-1.9922,-1.929,-1.8656,-1.8617,-1.8305,-1.8037,-1.8018,-1.8008,-1.8008,-1.8008,-1.8008,-1.8008,-1.8008,-1.7666,-1.7236,-1.6746,-1.5976,-1.5439,-1.5391,-1.541,-1.5264,-1.4873,-1.4406,-1.3977,-1.3558,-1.3516,-1.334,-1.2935,-1.2905,-1.2905,-1.2905,-1.2905,-1.2905,-1.2905,-1.2905,-1.2905,-1.2905,-1.3457,-1.405,-1.4652,-1.4652,-1.5265,-1.6445,-1.5864,-1.593,-1.1076,-1.2553,-1.4021,-1.4596,-1.5735,-1.658,-1.6193,-1.584,-1.543,-1.4921,-1.3889,-1.3296,0.0,0.0,0.0,-1.5809,-1.6533,0.0,-1.8442,-1.8916,0.0,-1.9277,0.0,-1.9512,-1.9307,-1.957,0.0,0.0,-1.9853,-2.0098,-2.0576,-2.0605,-2.0605,-2.0605,-2.0889,-2.1064,-2.1064,-2.1504,-2.1934,-2.2353,-2.2353,-2.2353,-2.2353,-2.2353,-2.2353,-2.2334,-2.2021,-2.206,-2.2314,-2.1894,-2.1533,-2.1181,-2.1103,-2.0859,-2.0605,-2.0605,-2.0605,-2.0605,-2.0605,-2.0605,-2.0605,-2.0605,-2.0605,-2.0605,-2.0605,-2.0527,-2.037,-2.0,-1.9756,-1.9407,-1.8773,-1.852,-1.8364,-1.8086,-1.8008,-1.8008,-1.8008,-1.8008,-1.8008,-1.8008,-1.7666,-1.7171,-1.6398,-1.6075,-1.5811,-1.5459,-1.541,-1.5371,-1.5264,-1.4883,-1.4453,-1.3997,-1.3665,-1.334,-1.2935,-1.2905,-1.2905,-1.2905,-1.2905,-1.2905,-1.2905,-1.2905,-1.2905,-1.2905,-1.3065,-1.342,-1.4027,-1.4027,-1.4641,-1.582,-1.5676,-1.593,-1.1582,-1.274,-1.3918,-1.4713,-1.5623,-1.6249,-1.5866,-1.537,-1.4687,-1.3755,-1.2987,0.0,-1.2635,0.0,0.0,0.0,0.0,0.0,-1.8422,-1.9014,-1.9424,0.0,-1.9893,0.0,-1.9891,-2.0059,-2.0195,0.0,-2.0195,-2.0303,-2.0595,-2.0605,-2.0693,-2.0859,-2.1064,-2.1375,-2.1756,-2.2041,-2.2373,-2.274,-2.274,-2.274,-2.274,-2.274,-2.274,-2.273,-2.2539,-2.2568,-2.2711,-2.2334,-2.2021,-2.1717,-2.1337,-2.1074,-2.083,-2.0674,-2.0605,-2.0605,-2.0605,-2.0605,-2.0605,-2.0605,-2.0605,-2.0605,-2.0605,-2.0605,-2.0556,-2.0273,-2.0059,-1.9805,-1.929,-1.889,-1.8539,-1.8305,-1.8144,-1.8008,-1.8008,-1.8008,-1.8008,-1.8008,-1.7666,-1.7168,-1.6475,-1.6222,-1.5948,-1.5478,-1.541,-1.541,-1.541,-1.5205,-1.4893,-1.4436,-1.4209,-1.3896,-1.3467,-1.3262,-1.3154,-1.3154,-1.3013,-1.2905,-1.2905,-1.2905,-1.2905,-1.2905,-1.3152,-1.3457,-1.3792,-1.3792,-1.4434,-1.5576,-1.532,-1.5666,-1.2677,-1.3227,-1.3723,-1.5206,-1.5657,-1.5627,-1.5188,-1.4646,-1.3764,-1.2181,0.0,-1.1863,-1.1027,-1.2119,-1.3423,-1.4155,0.0,-1.7096,-1.849,-1.9053,-1.9609,-2.0498,-2.0234,-2.0146,-2.0566,-2.0605,-2.0605,-2.0605,-2.0605,-2.0605,-2.0605,-2.0605,-2.0791,-2.1268,-2.1337,-2.1746,-2.2588,-2.2598,-2.274,-2.3091,-2.3091,-2.3091,-2.3091,-2.3091,-2.3091,-2.3091,-2.3091,-2.3091,-2.3062,-2.2701,-2.2568,-2.2432,-2.159,-2.1249,-2.1142,-2.0732,-2.0605,-2.0605,-2.0605,-2.0605,-2.0605,-2.0605,-2.0605,-2.0605,-2.0605,-2.0605,-2.0605,-2.0605,-2.0293,-1.999,-1.9932,-1.929,-1.8676,-1.8617,-1.8286,-1.8008,-1.8008,-1.8008,-1.8008,-1.8008,-1.7715,-1.7324,-1.6863,-1.6445,-1.6036,-1.5566,-1.5449,-1.541,-1.541,-1.541,-1.5254,-1.4834,-1.4813,-1.4609,-1.4143,-1.3724,-1.3506,-1.3506,-1.3115,-1.2905,-1.2905,-1.2905,-1.2905,-1.2905,-1.342,-1.3755,-1.3909,-1.3839,-1.4457,-1.5698,-1.5096,-1.5421,-1.1968,-1.2856,-1.3667,-1.3739,-1.4338,-1.4684,-1.3787,-1.335,0.0,0.0,-1.0659,-1.0405,-1.1157,-1.1376,-1.2252,-1.4772,0.0,0.0,0.0,0.0,-1.9609,0.0,0.0,0.0,0.0,0.0,0.0,0.0,-2.0605,-2.0605,-2.0605,-2.0605,-2.0977,-2.1748,-2.2109,-2.2529,-2.2984,-2.2984,-2.3023,-2.3091,-2.3091,-2.3091,-2.3091,-2.3091,-2.3091,-2.3091,-2.3091,0.0,-2.3091,-2.3013,-2.2779,-2.2461,-2.1973,-2.1553,-2.1142,-2.0732,-2.0605,-2.0605,-2.0605,-2.0605,-2.0605,-2.0605,-2.0605,-2.0605,-2.0605,-2.0605,-2.0605,-2.0605,-2.0546,-2.041,-2.001,-1.9551,-1.9082,-1.8685,-1.8286,-1.8008,-1.8008,-1.8008,-1.8008,-1.8008,-1.7949,-1.7764,-1.7344,-1.6904,-1.6465,-1.6046,-1.5644,-1.541,-1.541,-1.541,-1.5254,-1.4834,-1.4813,-1.4609,-1.4143,-1.3724,-1.3506,-1.3506,-1.3115,-1.2905,-1.2905,-1.2905,-1.2905,-1.2905,-1.2992,-1.3539,-1.4537,-1.405,-1.4687,-1.6324,-1.5732,-1.582,-1.1826,-1.2439,-1.2984,-1.3001,-1.3187,-1.3245,-1.2655,0.0,0.0,0.0,-0.9589,-0.9341,-0.9551,0.0,0.0,0.0,0.0,0.0,0.0,0.0,0.0,0.0,0.0,0.0,0.0,0.0,0.0,0.0,-2.0605,-2.0605,-2.0605,-2.1045,-2.1486,-2.1875,-2.251,-2.2886,-2.3091,-2.3091,-2.3091,-2.3091,-2.3091,-2.3091,-2.3091,-2.3091,-2.3091,-2.3091,-2.3091,-2.3091,-2.3091,-2.3091,-2.2974,-2.273,-2.2139,-2.1758,-2.1494,-2.086,-2.0605,-2.0605,-2.0605,-2.0605,-2.0605,-2.0605,-2.0605,-2.0605,-2.0605,-2.0605,-2.0605,-2.0605,-2.0605,-2.0556,-2.0303,-1.9775,-1.9238,-1.9023,-1.8486,-1.8008,-1.8008,-1.8008,-1.8008,-1.8008,-1.8008,-1.7881,-1.7461,-1.7021,-1.6551,-1.6163,-1.5693,-1.541,-1.541,-1.541,-1.5332,-1.5127,-1.5107,-1.5029,-1.4786,-1.4414,-1.4072,-1.3821,-1.3437,-1.3105,-1.2915,-1.2905,-1.2905,-1.2905,-1.2905,-1.3176,-1.3752,-1.3779,-1.426,-1.5096,-1.5432,-1.5754,-1.1806,-1.2084,-1.2303,-1.2398,-1.2237,-1.1969,-1.1535,-1.0645,0.0,0.0,-0.8684,-0.8543,-0.81,0.0,0.0,0.0,0.0,0.0,0.0,0.0,0.0,0.0,0.0,0.0,0.0,0.0,0.0,0.0,-2.0605,-2.0605,-2.0605,-2.1447,-2.1885,-2.1885,-2.2705,-2.3091,-2.3091,-2.3091,-2.3091,-2.3091,-2.3091,-2.3091,-2.3091,-2.3091,-2.3091,-2.3091,-2.3091,-2.3091,-2.3091,-2.3091,-2.3091,-2.3013,-2.2217,-2.1885,-2.1777,-2.0928,-2.0605,-2.0605,-2.0605,-2.0605,-2.0605,-2.0605,-2.0605,-2.0605,-2.0605,-2.0605,-2.0605,-2.0605,-2.0605,-2.0605,-2.0605,-1.9969,-1.9238,-1.9053,-1.8496,-1.8008,-1.8008,-1.8008,-1.8008,-1.8008,-1.8008,-1.791,-1.7578,-1.708,-1.658,-1.629,-1.5752,-1.541,-1.541,-1.541,-1.541,-1.541,-1.541,-1.541,-1.541,-1.5029,-1.4639,-1.427,-1.3851,-1.3447,-1.3062,-1.3042,-1.2993,-1.2905,-1.2905,-1.2968,-1.3079,-1.3576,-1.3873,-1.4027,-1.4983,-1.5477,-1.1752,-1.2084,-1.2164,-1.1639,-1.1579,-1.1338,-1.0165,0.0,0.0,-0.8237,-0.7987,-0.8077,-0.8397,-0.9052,0.0,0.0,0.0,-1.4894,0.0,0.0,0.0,0.0,0.0,0.0,0.0,0.0,0.0,-2.0605,-2.0605,-2.0605,-2.0605,-2.1447,-2.1885,-2.1885,-2.2705,-2.3091,-2.3091,-2.3091,-2.3091,-2.3091,-2.3091,-2.3091,-2.3091,-2.3091,-2.3091,-2.3091,-2.3091,-2.3091,0.0,-2.3091,-2.3091,-2.3013,-2.2217,-2.1885,-2.1777,-2.0928,-2.0605,-2.0605,-2.0605,-2.0605,-2.0605,-2.0605,-2.0605,-2.0605,-2.0605,-2.0605,-2.0605,-2.0605,-2.0605,-2.0605,-2.0605,-1.9969,-1.9092,-1.8311,-1.8066,-1.8008,-1.8008,-1.8008,-1.8008,-1.8008,-1.8008,-1.7998,-1.7959,-1.7243,-1.6687,-1.6648,-1.5917,-1.541,-1.541,-1.541,-1.541,-1.541,-1.541,-1.541,-1.541,-1.5029,-1.4766,-1.4727,-1.4289,-1.386,-1.3467,-1.3447,-1.3271,-1.2915,-1.2905,-1.3176,-1.3732,-1.3768,-1.4073,-1.4629,-1.4721,-1.5085,-1.1443,-1.1683,-1.1717,-1.1449,-1.1043,-1.0508,-0.9861,0.0,-0.8475,-0.8,-0.7604,-0.7398,-0.756,-0.8279,-0.929,-1.077,-1.1844,-1.3011,-1.4599,0.0,0.0,0.0,0.0,0.0,0.0,0.0,0.0,-2.0605,-2.0605,-2.0723,-2.0957,-2.1553,-2.2002,-2.2256,-2.2789,-2.3091,-2.3091,-2.3091,-2.3091,-2.3091,-2.3091,-2.3091,-2.3091,-2.3091,-2.3091,-2.3091,-2.3091,-2.3091,0.0,-2.2818,-2.2721,-2.2633,-2.1826,-2.1494,-2.1416,-2.083,-2.0605,-2.0605,-2.0605,-2.0605,-2.0605,-2.0605,-2.0605,-2.0605,-2.0605,-2.0605,-2.0605,-2.0605,-2.0605,-2.0546,-2.0244,-1.9531,-1.875,-1.8154,-1.8008,-1.8008,-1.8008,-1.8008,-1.8008,-1.8008,-1.8008,-1.8008,-1.8008,-1.7272,-1.6697,-1.6697,-1.5946,-1.541,-1.541,-1.541,-1.541,-1.541,-1.541,-1.541,-1.541,-1.5254,-1.5049,-1.4833,-1.4619,-1.4336,-1.387,-1.386,-1.3782,-1.3643,-1.3389,-1.3377,-1.363,-1.3748,-1.3909,-1.4167,-1.4537,-1.52,-1.1035,-1.1296,-1.1369,-1.1282,-1.0701,-0.999,0.0,-0.8685,-0.7879,-0.7792,-0.7359,-0.7,-0.7,-0.7781,-0.8698,-0.9478,-1.0505,-1.1625,-1.2794,-1.4304,0.0,0.0,0.0,0.0,0.0,0.0,-2.0605,-2.0605,-2.0605,-2.0762,-2.1171,-2.1523,-2.1943,-2.249,-2.2877,-2.3091,-2.3091,-2.3091,-2.3091,-2.3091,-2.2974,-2.2974,-2.3091,-2.2964,-2.2974,-2.3091,-2.2964,-2.2906,0.0,-2.25,-2.2324,-2.2256,-2.1483,-2.119,-2.1142,-2.0732,-2.0605,-2.0605,-2.0605,-2.0605,-2.0605,-2.0605,-2.0605,-2.0605,-2.0605,-2.0605,-2.0605,-2.0605,-2.0605,-2.0478,-1.9873,-1.9277,-1.8656,-1.8144,-1.8008,-1.8008,-1.8008,-1.8008,-1.8008,-1.8008,-1.8008,-1.8008,-1.8008,-1.7272,-1.6697,-1.6697,-1.5946,-1.541,-1.541,-1.541,-1.541,-1.541,-1.541,-1.541,-1.541,-1.541,-1.5283,-1.499,-1.4971,-1.4775,-1.4319,-1.4299,-1.4241,-1.4104,-1.3821,-1.3665,-1.3691,-1.3811,-1.3895,-1.3895,-1.4323,-1.5171,-1.0519,-1.0989,-1.1322,-1.1069,-1.0555,-0.993,0.0,-0.8538,-0.7819,-0.7558,-0.7235,-0.7,-0.7,-0.7716,-0.8439,-0.8852,-0.9986,-1.1227,-1.243,-1.4063,0.0,0.0,0.0,0.0,0.0,0.0,-2.0605,-2.0605,-2.0605,0.0,-2.1171,-2.12,-2.159,-2.248,-2.2877,-2.3091,-2.3091,-2.3091,-2.3091,-2.3091,-2.2715,-2.2691,-2.3081,-2.2705,-2.2701,-2.3071,-2.2705,-2.2519,0.0,-2.207,-2.1894,-2.1846,-2.1366,-2.119,-2.1142,-2.0732,-2.0605,-2.0605,-2.0605,-2.0605,-2.0605,-2.0605,-2.0605,-2.0605,-2.0605,-2.0605,-2.0605,-2.0605,-2.0605,-2.041,-1.9512,-1.9287,-1.9062,-1.8213,-1.8008,-1.8008,-1.8008,-1.8008,-1.8008,-1.8008,-1.8008,-1.8008,-1.8008,-1.7272,-1.6697,-1.6697,-1.5946,-1.541,-1.541,-1.541,-1.541,-1.541,-1.541,-1.541,-1.541,-1.541,-1.541,-1.5371,-1.5371,-1.5215,-1.4795,-1.4775,-1.458,-1.4114,-1.4104,-1.4104,-1.4104,-1.4094,-1.4094,-1.4094,-1.4094,-1.4867,-0.9856,-1.0094,-1.0214,-1.012,-0.9806,-0.9391,-0.9004,-0.8392,-0.7819,-0.7551,-0.7228,-0.7,-0.7,-0.7228,-0.7807,-0.9044,-0.9588,0.0,0.0,0.0,0.0,0.0,0.0,0.0,0.0,0.0,-2.0605,-2.0605,-2.0605,-2.0762,-2.1171,-2.119,-2.159,-2.248,-2.2363,-2.2422,-2.2705,-2.2432,-2.2285,-2.2275,-2.2148,-2.2158,-2.2275,-2.2139,-2.2158,-2.2275,-2.2139,-2.209,-2.2051,-2.1621,-2.1405,-2.1396,-2.0957,-2.0781,-2.0762,-2.0654,-2.0605,-2.0605,-2.0605,-2.0605,-2.0605,-2.0605,-2.0605,-2.0605,-2.0605,-2.0605,-2.0605,-2.0605,-2.0352,-1.999,-1.9434,-1.9072,-1.8666,-1.8144,-1.8008,-1.8008,-1.8008,-1.8008,-1.8008,-1.8008,-1.8008,-1.8008,-1.8008,-1.7549,-1.708,-1.6746,-1.623,-1.5752,-1.5449,-1.541,-1.541,-1.541,-1.541,-1.541,-1.541,-1.541,-1.541,-1.541,-1.541,-1.5352,-1.5215,-1.5215,-1.5146,-1.4981,-1.4727,-1.458,-1.458,-1.425,-1.4104,-1.4141,-1.5373,-1.6225,0.0,-0.9432,-0.9546,-0.9653,-0.9379,-0.8978,-0.8711,-0.8183,-0.7669,-0.7383,-0.7154,-0.7,-0.7,-0.7093,-0.7541,-0.8654,-0.8943,-0.9431,0.0,0.0,0.0,0.0,0.0,0.0,0.0,-1.9906,-2.0157,-2.0566,-2.0605,-2.0723,-2.0967,-2.0986,-2.1309,-2.2012,-2.1934,-2.2012,-2.2275,-2.2021,-2.1885,-2.1885,-2.1719,-2.1728,-2.1875,-2.1719,-2.1728,-2.1875,-2.1709,-2.1641,0.0,-2.1162,-2.0986,-2.0957,-2.0713,-2.0605,-2.0605,-2.0605,-2.0605,-2.0605,-2.0605,-2.0605,-2.0605,-2.0605,-2.0605,-2.0605,-2.0605,-2.0605,-2.0605,-2.0605,-2.041,-2.0019,-1.9434,-1.9082,-1.874,-1.8144,-1.8008,-1.8008,-1.8008,-1.8008,-1.8008,-1.8008,-1.8008,-1.8008,-1.8008,-1.7666,-1.7285,-1.7021,-1.6486,-1.5987,-1.5693,-1.5508,-1.541,-1.541,-1.541,-1.541,-1.541,-1.541,-1.541,-1.541,-1.541,-1.541,-1.541,-1.541,-1.541,-1.541,-1.5156,-1.5029,-1.5019,-1.4718,-1.4591,-1.4619,-1.6016,-1.6889,0.0,0.0,0.0,0.0,-0.9132,-0.8671,-0.8402,-0.7899,0.0,-0.7066,-0.7,-0.7006,-0.7026,-0.7281,-0.7605,-0.7912,-0.8243,0.0,0.0,0.0,0.0,0.0,0.0,0.0,-1.8092,-1.8614,-1.9313,-2.0401,-2.0489,-2.0527,-2.0605,-2.0605,-2.0752,-2.1132,-2.1582,-2.1807,-2.1836,-2.1807,-2.1797,-2.1787,-2.1377,-2.1396,-2.1777,-2.1377,-2.1406,0.0,-2.1367,-2.1142,-2.1112,-2.0732,-2.0605,-2.0605,-2.0605,-2.0605,-2.0605,-2.0605,-2.0605,-2.0605,-2.0605,-2.0605,-2.0605,-2.0605,-2.0605,-2.0605,-2.0605,-2.0605,-2.0605,-2.0605,-2.0605,-2.041,-1.9549,-1.9287,-1.9072,-1.8213,-1.8008,-1.8008,-1.8008,-1.8008,-1.8008,-1.8008,-1.8008,-1.8008,-1.8008,-1.7686,-1.7422,-1.7393,-1.6711,-1.6163,-1.6105,-1.5703,-1.5449,-1.5391,-1.541,-1.541,-1.541,-1.541,-1.541,-1.541,-1.541,-1.541,-1.541,-1.541,-1.541,-1.541,-1.541,-1.541,-1.541,-1.541,-1.541,-1.541,-1.6093,-1.681,-0.7685,0.0,-0.8172,-0.8053,-0.8063,-0.8032,0.0,-0.7614,-0.7404,0.0,0.0,0.0,-0.7343,-0.7437,-0.7739,-0.8477,-0.8818,-0.9321,0.0,0.0,0.0,0.0,0.0,-1.7151,-1.7483,-1.7647,-1.8189,-1.9274,-1.9362,-1.9717,-2.0566,-2.0605,-2.0654,-2.0723,-2.086,-2.1045,-2.1346,-2.1045,-2.0918,-2.0918,-2.0811,-2.0811,-2.0909,-2.0811,-2.082,-2.0909,-2.0811,-2.0723,-2.0713,-2.0644,-2.0605,-2.0605,-2.0605,-2.0605,-2.0605,-2.0605,-2.0605,-2.0605,-2.0605,-2.0605,-2.0605,-2.0605,-2.0605,-2.0605,-2.0605,-2.0605,-2.0605,-2.0605,-2.0605,-2.041,-1.9549,-1.9287,-1.9072,-1.8213,-1.8008,-1.8008,-1.8008,-1.8008,-1.8008,-1.8008,-1.8008,-1.8008,-1.8008,-1.793,-1.7754,-1.7465,-1.7239,-1.6858,-1.6183,-1.6007,-1.5811,-1.5449,-1.541,-1.541,-1.541,-1.541,-1.541,-1.541,-1.541,-1.541,-1.541,-1.541,-1.541,-1.541,-1.541,-1.541,-1.541,-1.541,-1.541,-1.541,-1.5584,-1.6065,-0.7221,-0.7566,-0.7899,-0.7913,-0.7903,-0.7866,-0.7715,0.0,0.0,0.0,0.0,0.0,0.0,0.0,0.0,0.0,-0.8911,0.0,0.0,0.0,0.0,0.0,0.0,-1.6041,0.0,-1.656,-1.705,-1.8149,-1.823,-1.8709,-1.9805,-1.9883,-2.0079,-2.0566,-2.0605,-2.0684,-2.0928,-2.0723,-2.0605,-2.0605,-2.0605,-2.0605,-2.0605,-2.0605,-2.0605,-2.0605,-2.0605,-2.0605,-2.0605,-2.0605,-2.0605,-2.0605,-2.0605,-2.0605,-2.0605,-2.0605,-2.0605,-2.0605,-2.0605,-2.0605,-2.0605,-2.0605,-2.0605,-2.0605,-2.0605,-2.0605,-2.0605,-2.0605,-2.0605,-2.0449,-1.9746,-1.9434,-1.9121,-1.8457,-1.812,-1.8008,-1.8008,-1.8008,-1.8008,-1.8008,-1.8008,-1.8008,-1.8008,-1.8008,-1.793,-1.7705,-1.751,-1.7239,-1.676,-1.6525,-1.6201,-1.5762,-1.5703,-1.5625,-1.543,-1.541,-1.541,-1.541,-1.541,-1.541,-1.541,-1.541,-1.541,-1.541,-1.541,-1.541,-1.541,-1.541,-1.541,-1.541,-1.541,-1.5806,-0.7053,-0.7479,-0.7952,-0.8208,-0.8083,-0.7905,0.0,0.0,0.0,0.0,0.0,0.0,0.0,0.0,0.0,0.0,0.0,0.0,0.0,0.0,0.0,0.0,-1.4088,0.0,-1.5379,-1.5455,-1.591,-1.6968,-1.705,-1.7536,-1.8678,-1.8758,-1.9155,-2.0079,-2.0274,-2.0362,-2.0362,-2.0527,-2.0605,-2.0605,-2.0605,-2.0605,-2.0605,-2.0605,-2.0605,-2.0605,-2.0605,-2.0605,-2.0605,-2.0605,-2.0605,-2.0605,-2.0605,-2.0605,-2.0605,-2.0605,-2.0605,-2.0605,-2.0605,-2.0605,-2.0566,-2.0401,-2.0489,-2.0566,-2.0401,-2.0479,-2.0605,-2.0605,-2.0479,-2.0265,-1.9792,-1.9367,-1.8952,-1.8482,-1.8172,-1.7974,-1.7828,-1.7794,-1.7794,-1.7794,-1.7794,-1.7828,-1.7974,-1.8008,-1.8008,-1.8008,-1.7705,-1.7461,-1.7425,-1.7061,-1.666,-1.6242,-1.6193,-1.6016,-1.5547,-1.5508,-1.5488,-1.5391,-1.541,-1.541,-1.541,-1.541,-1.541,-1.541,-1.541,-1.541,-1.541,-1.541,-1.541,-1.541,-1.541,-1.5719,-0.735,-0.7655,-0.7852,-0.7685,-0.7769,-0.7905,-0.7905,0.0,0.0,0.0,0.0,0.0,0.0,0.0,0.0,0.0,0.0,0.0,0.0,0.0,-1.3275,-1.4023,0.0,-1.4166,-1.4334,-1.4334,-1.4776,-1.5861,-1.5944,-1.6437,-1.7496,-1.7545,-1.7626,-1.7779,-1.8749,-1.9244,-1.9244,-2.0167,-2.0605,-2.0605,-2.0605,-2.0605,-2.0605,-2.0605,-2.0605,-2.0605,-2.0605,-2.0605,-2.0605,-2.0605,-2.0605,-2.0605,-2.0605,-2.0605,-2.0605,-2.0605,-2.0605,-2.0605,-2.0605,-2.0605,-2.044,-1.952,-1.9844,-2.044,-1.952,-1.9883,-2.0605,-2.0605,-1.9962,-1.9143,-1.8663,-1.8262,-1.7833,-1.7352,-1.764,-1.7794,-1.6991,-1.6793,-1.6811,-1.6819,-1.6819,-1.707,-1.7862,-1.8008,-1.8008,-1.8008,-1.7959,-1.7783,-1.7432,-1.7324,-1.7119,-1.6648,-1.6599,-1.6445,-1.6036,-1.5987,-1.5831,-1.5439,-1.541,-1.541,-1.541,-1.541,-1.541,-1.541,-1.541,-1.541,-1.541,-1.541,-1.541,-1.541,-1.541,-1.5468,-0.7188,-0.7552,-0.7872,-0.7749,-0.7943,-0.817,-0.817,0.0,0.0,0.0,0.0,0.0,0.0,0.0,0.0,0.0,0.0,-1.2004,-1.2872,-1.3133,-1.3447,0.0,0.0,-1.4088,-1.4088,-1.4088,-1.4292,-1.4817,-1.4852,-1.5304,-1.6396,-1.6437,-1.6683,-1.7302,-1.7827,-1.8069,-1.8069,-1.859,-1.9432,-2.0605,-2.0605,-2.0605,-2.0605,-2.0605,-2.0605,-2.0605,-2.0605,-2.0605,-2.0605,-2.0605,-2.0605,-2.0605,-2.0605,-2.0605,-2.0605,-2.0605,-2.0605,-2.0605,-2.0605,-2.0605,-2.0401,-1.9362,-1.9726,-2.0401,-1.9323,-1.9766,-2.0605,-2.0605,-1.9844,-1.8951,-1.8731,-1.8197,-1.7656,-1.744,-1.7694,-1.7759,-1.681,-1.6585,-1.6455,-1.5939,-1.6245,-1.674,-1.7182,-1.7647,-1.8008,-1.8008,-1.7579,-1.7357,-1.7677,-1.7293,-1.6997,-1.7064,-1.708,-1.6807,-1.6153,-1.6095,-1.5909,-1.5439,-1.541,-1.541,-1.541,-1.541,-1.541,-1.541,-1.541,-1.541,-1.541,-1.541,-1.541,-1.541,-1.541,-1.541,-0.7088,-0.7446,-0.7832,-0.7972,0.0,-0.8516,-0.8564,0.0,0.0,0.0,0.0,0.0,0.0,0.0,0.0,-1.0995,-1.1877,-1.2619,-1.3227,-1.346,-1.3713,-1.4048,-1.4088,-1.4088,-1.4088,-1.4088,-1.4088,-1.4088,-1.4088,-1.4454,-1.5296,-1.5338,-1.5703,-1.6527,-1.6805,-1.6927,-1.6927,-1.7172,-1.8261,-2.0206,-1.9952,-2.0118,-2.0605,-2.0323,-2.0362,-2.0605,-2.0605,-2.0605,-2.0605,-2.0605,-2.0605,-2.0605,-2.0605,-2.0605,-2.0605,-2.0605,-2.0605,-2.0605,-2.0605,-2.044,-2.004,-1.8957,-1.9155,-1.9678,-1.8829,-1.9353,-2.0245,-2.0245,-1.9432,-1.8572,-1.8514,-1.7873,-1.7224,-1.7224,-1.7466,-1.7398,-1.6463,-1.6088,-1.571,-1.4985,-1.5614,-1.6349,-1.6567,-1.7398,-1.8008,-1.8008,-1.7207,-1.6957,-1.7862,-1.7173,-1.6846,-1.7459,-1.7529,-1.7217,-1.6467,-1.631,-1.6065,-1.5596,-1.5469,-1.541,-1.541,-1.541,-1.541,-1.541,-1.541,-1.541,-1.541,-1.541,-1.541,-1.541,-1.541,-1.541,-0.731,-0.7491,-0.7658,-0.8228,-0.8564,0.0,-0.9091,-0.9372,0.0,-0.9559,0.0,0.0,0.0,0.0,0.0,-1.1739,-1.2355,-1.2965,-1.3487,0.0,-1.3713,-1.4048,-1.4088,-1.4088,-1.4088,-1.4088,-1.4088,-1.4088,-1.4088,-1.4124,-1.4208,-1.4208,-1.425,-1.4334,-1.5304,-1.582,-1.582,-1.6805,-1.7908,-1.9116,-1.8029,-1.8621,-2.0566,-1.9559,-1.9638,-2.0605,-2.0605,-2.0605,-2.0605,-2.0605,-2.0605,-2.0605,-2.0605,-2.0605,-2.0605,-2.0605,-2.0605,-2.0605,-2.0605,-1.9962,-1.8917,-1.7787,-1.7464,-1.7536,-1.7464,-1.823,-1.9116,-1.9116,-1.831,-1.7381,-1.7102,-1.6392,-1.5733,-1.5733,-1.6225,-1.6428,-1.5517,-1.4565,-1.389,-1.381,-1.4629,-1.5587,-1.6463,-1.7398,-1.8008,-1.8008,-1.7207,-1.6957,-1.7862,-1.7173,-1.6948,-1.7857,-1.7969,-1.7783,-1.7324,-1.6924,-1.6494,-1.6075,-1.5635,-1.541,-1.541,-1.541,-1.541,-1.541,-1.541,-1.541,-1.541,-1.541,-1.541,-1.541,-1.541,-1.541,-0.6975,-0.7462,-0.7809,-0.8043,0.0,0.0,0.0,-0.9472,-0.9733,-0.9913,-1.0187,0.0,0.0,0.0,-1.1396,-1.1839,-1.2563,-1.3173,-1.3547,-1.376,-1.3961,-1.4075,-1.4088,-1.4088,-1.4088,-1.4088,-1.4088,-1.4088,-1.4088,-1.4088,-1.4088,-1.4088,-1.4088,-1.4088,-1.4489,-1.4692,-1.4692,-1.5103,-1.5876,-1.696,-1.7172,-1.8101,-1.9599,-1.9195,-1.9599,-2.0605,-2.0605,-2.0605,-2.0605,-2.0605,-2.0605,-2.0605,-2.0605,-2.0605,-2.0605,-2.0605,-2.0605,-2.0489,-1.9844,-1.9362,-1.8718,-1.6887,-1.6764,-1.7302,-1.7302,-1.7489,-1.7817,-1.8509,-1.7262,-1.5779,-1.5897,-1.587,-1.5822,-1.5638,-1.6101,-1.6349,-1.5411,-1.4422,-1.3528,-1.2952,-1.4127,-1.5128,-1.4835,-1.6079,-1.6932,-1.6332,-1.5411,-1.5367,-1.6932,-1.6324,-1.6298,-1.7828,-1.7773,-1.7559,-1.7393,-1.6982,-1.6543,-1.6124,-1.5938,-1.5693,-1.542,-1.541,-1.541,-1.541,-1.541,-1.541,-1.541,-1.541,-1.541,-1.541,-1.541,-1.541,-0.68,-0.7446,-0.7952,0.0,0.0,0.0,0.0,0.0,-1.0154,-1.0354,-1.0555,0.0,0.0,0.0,0.0,0.0,-1.2685,-1.3273,-1.356,-1.3901,-1.4088,-1.4088,-1.4088,-1.4088,-1.4088,-1.4088,-1.4088,-1.4088,-1.4088,-1.4088,-1.4088,-1.4088,-1.4088,-1.4088,-1.4088,-1.4088,-1.4088,-1.4088,-1.4454,-1.522,-1.5959,-1.7058,-1.847,-1.847,-1.9076,-2.0079,-2.0079,-2.0284,-2.0566,-1.9835,-1.9756,-2.0079,-2.0079,-2.0284,-2.0605,-2.0605,-2.0605,-2.045,-1.9362,-1.8758,-1.8123,-1.619,-1.5909,-1.6324,-1.6469,-1.6452,-1.6521,-1.7153,-1.6126,-1.4747,-1.4567,-1.5188,-1.5747,-1.5141,-1.5587,-1.5895,-1.4914,-1.3954,-1.3062,-1.2409,-1.3875,-1.4879,-1.3882,-1.5296,-1.628,-1.534,-1.435,-1.4414,-1.6349,-1.579,-1.5913,-1.7794,-1.7754,-1.7578,-1.7578,-1.7305,-1.6953,-1.6545,-1.6515,-1.6193,-1.5439,-1.541,-1.541,-1.541,-1.541,-1.541,-1.541,-1.541,-1.541,-1.541,-1.541,-1.541,-0.6838,-0.7424,-0.8045,0.0,0.0,0.0,0.0,0.0,0.0,-1.1002,0.0,-1.1089,-1.1376,0.0,0.0,-1.2204,-1.2806,-1.3307,-1.3553,-1.3895,-1.4082,-1.4082,-1.4082,-1.4082,-1.4082,-1.4082,-1.4082,-1.4082,-1.4082,-1.4082,-1.4082,-1.4082,-1.4082,-1.4082,-1.4082,-1.4082,-1.4082,-1.4082,-1.4082,-1.4082,-1.4082,-1.522,-1.7302,-1.7302,-1.7948,-1.8997,-1.8997,-1.9599,-2.0401,-1.8221,-1.7989,-1.8997,-1.8997,-1.9638,-2.0605,-2.0605,-2.0605,-2.044,-1.9353,-1.8221,-1.7066,-1.5717,-1.4755,-1.417,-1.4651,-1.5027,-1.5223,-1.4884,-1.4794,-1.4488,-1.3157,-1.4186,-1.5279,-1.4002,-1.445,-1.4914,-1.3918,-1.2952,-1.2305,-1.2305,-1.3875,-1.4879,-1.3846,-1.5296,-1.6245,-1.5305,-1.4314,-1.4378,-1.6349,-1.5799,-1.5948,-1.7794,-1.8008,-1.8008,-1.7974,-1.7974,-1.7832,-1.7412,-1.7383,-1.6797,-1.5469,-1.542,-1.5391,-1.541,-1.541,-1.541,-1.541,-1.541,-1.541,-1.541,-1.541,-1.541,-0.6251,-0.6944,0.0,0.0,0.0,0.0,0.0,0.0,0.0,0.0,0.0,-1.1672,-1.1759,0.0,0.0,-1.2007,-1.2529,-1.2951,-1.3038,-1.3273,-1.3474,-1.3474,-1.3474,-1.3474,-1.3474,-1.3474,-1.3474,-1.3474,-1.3474,-1.3474,-1.3474,-1.3474,-1.3474,-1.3474,-1.3474,-1.3474,-1.3474,-1.3474,-1.3474,-1.3474,-1.3474,-1.4793,-1.7302,-1.7302,-1.8341,-2.0079,-1.9323,-1.9195,-1.9362,-1.79,-1.7504,-1.7868,-1.8678,-1.9195,-1.9559,-2.0323,-1.9975,-1.8968,-1.7891,-1.6655,-1.5348,-1.4216,-1.3667,-1.3628,-1.4518,-1.421,-1.3677,-1.4334,-1.3963,-1.3258,-1.2624,-1.3546,-1.4446,-1.3856,-1.3918,-1.4063,-1.3745,-1.2952,-1.2305,-1.2305,-1.331,-1.3846,-1.2879,-1.3738,-1.4235,-1.3302,-1.2915,-1.3411,-1.5376,-1.6507,-1.7373,-1.794,-1.8008,-1.7725,-1.7063,-1.7623,-1.7543,-1.6418,-1.6992,-1.6966,-1.5938,-1.5899,-1.5723,-1.542,-1.541,-1.541,-1.541,-1.541,-1.541,-1.541,-1.541,-1.541,-0.6614,0.0,0.0,0.0,0.0,0.0,0.0,0.0,0.0,0.0,0.0,-1.194,-1.206,-1.1986,0.0,-1.206,-1.2476,-1.2784,-1.2784,-1.3013,-1.3213,-1.3213,-1.3213,-1.3213,-1.3213,-1.3213,-1.3213,-1.3213,-1.3213,-1.3213,-1.3213,-1.3213,-1.3213,-1.3213,-1.3213,-1.3213,-1.3213,-1.3213,-1.3213,-1.3213,-1.3213,-1.4284,-1.6317,-1.6453,-1.7274,-1.8643,-1.8294,-1.7593,-1.6675,-1.6429,-1.6309,-1.6429,-1.7487,-1.7917,-1.8082,-1.9153,-1.8756,-1.7529,-1.6442,-1.5498,-1.4624,-1.3404,-1.3113,-1.3278,-1.37,-1.3352,-1.2909,-1.3411,-1.3084,-1.2563,-1.2351,-1.2871,-1.3407,-1.3177,-1.3419,-1.36,-1.3237,-1.2703,-1.2305,-1.2305,-1.3062,-1.3382,-1.2445,-1.3098,-1.3382,-1.2445,-1.2629,-1.3411,-1.4985,-1.6507,-1.7579,-1.7974,-1.7681,-1.7217,-1.6664,-1.7113,-1.707,-1.6215,-1.7097,-1.7314,-1.6643,-1.6281,-1.5889,-1.542,-1.541,-1.541,-1.541,-1.541,-1.541,-1.541,-1.541,-1.541,-0.7388,0.0,0.0,0.0,0.0,0.0,0.0,0.0,0.0,-1.2245,0.0,-1.2027,-1.2258,-1.2084,-1.2033,-1.2258,-1.2563,-1.2744,-1.2744,-1.2946,-1.3126,-1.3126,-1.3126,-1.3126,-1.3126,-1.3126,-1.3126,-1.3126,-1.3126,-1.3126,-1.3126,-1.3126,-1.3126,-1.3126,-1.3126,-1.3126,-1.3126,-1.3126,-1.3126,-1.3126,-1.3126,-1.3629,-1.4648,-1.5055,-1.537,-1.5673,-1.6389,-1.5387,-1.3286,-1.4265,-1.4647,-1.4763,-1.5695,-1.6152,-1.638,-1.7384,-1.7096,-1.6103,-1.5088,-1.4696,-1.4352,-1.3168,-1.2938,-1.3026,-1.2472,-1.2529,-1.269,-1.2378,-1.2305,-1.2305,-1.2305,-1.2305,-1.2305,-1.2305,-1.2952,-1.3346,-1.2482,-1.2305,-1.2305,-1.2305,-1.2989,-1.331,-1.2445,-1.3025,-1.3273,-1.2445,-1.3098,-1.4063,-1.5057,-1.6,-1.6922,-1.7794,-1.7104,-1.6523,-1.6349,-1.6498,-1.6567,-1.6498,-1.7432,-1.7822,-1.7435,-1.6604,-1.5948,-1.5478,-1.543,-1.541,-1.541,-1.541,-1.541,-1.541,-1.541,-1.541,0.0,-0.7288,0.0,0.0,0.0,0.0,0.0,0.0,0.0,-1.2137,-1.2251,-1.2225,-1.2291,-1.2251,-1.2231,-1.2291,-1.2358,-1.2398,-1.2398,-1.2458,-1.2498,-1.2498,-1.2498,-1.2498,-1.2498,-1.2498,-1.2498,-1.2498,-1.2498,-1.2498,-1.2498,-1.2498,-1.2498,-1.2498,-1.2498,-1.2498,-1.2498,-1.2498,-1.2498,-1.2498,-1.2498,-1.2763,-1.3261,-1.4408,-1.4945,-1.5005,-1.5164,-1.4487,-1.3206,-1.3437,-1.3548,-1.3666,-1.4678,-1.5134,-1.5288,-1.6342,-1.5904,-1.478,-1.4562,-1.376,-1.2807,-1.2493,-1.2438,-1.2472,-1.2345,-1.2345,-1.2385,-1.2318,-1.2305,-1.2305,-1.2305,-1.2305,-1.2305,-1.2305,-1.2445,-1.2556,-1.2335,-1.2305,-1.2305,-1.2305,-1.2445,-1.2556,-1.2342,-1.2482,-1.2519,-1.2342,-1.3098,-1.4063,-1.5057,-1.6,-1.6671,-1.6888,-1.6706,-1.5965,-1.445,-1.572,-1.6289,-1.5552,-1.7079,-1.7822,-1.7435,-1.6875,-1.6377,-1.5958,-1.5586,-1.541,-1.541,-1.541,-1.541,-1.541,-1.541,-1.541,0.0,0.0,0.0,0.0,0.0,0.0,0.0,0.0,0.0,-1.1354,-1.1959,-1.2305,-1.2305,-1.2305,-1.2305,-1.2305,-1.2305,-1.2305,-1.2305,-1.2305,-1.2305,-1.2305,-1.2305,-1.2305,-1.2305,-1.2305,-1.2305,-1.2305,-1.2305,-1.2305,-1.2305,-1.2305,-1.2305,-1.2305,-1.2305,-1.2305,-1.2305,-1.2305,-1.2305,-1.2305,-1.2305,-1.2385,-1.2583,-1.3561,-1.3959,-1.3841,-1.3841,-1.3425,-1.2772,-1.2772,-1.2772,-1.2887,-1.3885,-1.399,-1.3726,-1.4724,-1.4394,-1.3377,-1.3377,-1.2908,-1.2305,-1.2305,-1.2305,-1.2305,-1.2305,-1.2305,-1.2305,-1.2305,-1.2305,-1.2305,-1.2305,-1.2305,-1.2305,-1.2305,-1.2305,-1.2305,-1.2305,-1.2305,-1.2305,-1.2305,-1.2305,-1.2305,-1.2305,-1.2305,-1.2305,-1.2305,-1.2732,-1.3382,-1.4343,-1.4906,-1.5403,-1.586,-1.5508,-1.4799,-1.3781,-1.5057,-1.572,-1.5234,-1.6975,-1.791,-1.7695,-1.7275,-1.6738,-1.6105,-1.587,-1.5615,-1.541,-1.541,-1.541,-1.541,-1.541,-1.541,0.0,0.0,0.0,0.0,0.0,0.0,0.0,0.0,0.0,-1.034,-1.1354,-1.207,-1.2268,-1.2305,-1.2305,-1.2305,-1.2305,-1.2305,-1.2305,-1.2305,-1.2305,-1.2305,-1.2305,-1.2305,-1.2305,-1.2305,-1.2305,-1.2305,-1.2305,-1.2305,-1.2305,-1.2305,-1.2305,-1.2305,-1.2305,-1.2305,-1.2305,-1.2305,-1.2305,-1.2305,-1.2305,-1.2305,-1.2318,-1.2826,-1.2913,-1.2703,-1.2703,-1.2569,-1.2305,-1.2305,-1.2305,-1.2378,-1.3164,-1.2989,-1.2372,-1.3171,-1.2989,-1.2305,-1.2305,-1.2305,-1.2305,-1.2305,-1.2305,-1.2305,-1.2305,-1.2305,-1.2305,-1.2305,-1.2305,-1.2305,-1.2305,-1.2305,-1.2305,-1.2305,-1.2305,-1.2305,-1.2305,-1.2305,-1.2305,-1.2305,-1.2305,-1.2305,-1.2305,-1.2305,-1.2305,-1.2305,-1.2305,-1.2622,-1.3564,-1.3709,-1.4027,-1.4843,-1.4207,-1.3637,-1.3455,-1.4522,-1.5199,-1.5199,-1.6975,-1.8008,-1.8008,-1.7676,-1.708,-1.6232,-1.6134,-1.5919,-1.5527,-1.5449,-1.541,-1.541,-1.541,-1.541,0.0,0.0,0.0,0.0,0.0,0.0,0.0,0.0,0.0,0.0,-1.0303,-1.1279,-1.215,-1.2305,-1.2305,-1.2305,-1.2305,-1.2305,-1.2305,-1.2305,-1.2305,-1.2305,-1.2305,-1.2305,-1.2305,-1.2305,-1.2305,-1.2305,-1.2305,-1.2305,-1.2305,-1.2305,-1.2305,-1.2305,-1.2305,-1.2305,-1.2305,-1.2305,-1.2305,-1.2305,-1.2305,-1.2305,-1.2305,-1.2385,-1.2398,-1.2365,-1.2365,-1.2338,-1.2305,-1.2305,-1.2305,-1.2298,-1.2445,-1.2409,-1.2335,-1.2445,-1.2409,-1.2305,-1.2305,-1.2305,-1.2305,-1.2305,-1.2305,-1.2305,-1.2305,-1.2305,-1.2305,-1.2305,-1.2305,-1.2305,-1.2305,-1.2305,-1.2305,-1.2305,-1.2305,-1.2305,-1.2305,-1.2305,-1.2305,-1.2305,-1.2305,-1.2305,-1.2305,-1.2305,-1.2305,-1.2305,-1.2305,-1.2622,-1.3564,-1.3709,-1.3745,-1.3882,-1.3781,-1.3382,-1.2556,-1.4163,-1.5199,-1.5199,-1.6975,-1.8008,-1.8008,-1.7959,-1.7519,-1.6629,-1.629,-1.6065,-1.6007,-1.5596,-1.541,-1.541,-1.541,-1.541,0.0,0.0,0.0,0.0,0.0,0.0,0.0,0.0,-0.7094,-0.8214,-0.8799,-0.9583,-1.1168,-1.1465,-1.1657,-1.2224,-1.2305,-1.2305,-1.2305,-1.2305,-1.2305,-1.2305,-1.2305,-1.2305,-1.2305,-1.2305,-1.2305,-1.2305,-1.2305,-1.2305,-1.2305,-1.2305,-1.2305,-1.2305,-1.2305,-1.2305,-1.2305,-1.2305,-1.2305,-1.2305,-1.2305,-1.2305,-1.2305,-1.2305,-1.2305,-1.2305,-1.2305,-1.2305,-1.2305,-1.2305,-1.2305,-1.2305,-1.2305,-1.2305,-1.2305,-1.2305,-1.2305,-1.2305,-1.2305,-1.2305,-1.2305,-1.2305,-1.2305,-1.2305,-1.2305,-1.2305,-1.2305,-1.2305,-1.2305,-1.2305,-1.2305,-1.2305,-1.2305,-1.2305,-1.2305,-1.2305,-1.2305,-1.2305,-1.2305,-1.2305,-1.2305,-1.2305,-1.2305,-1.2305,-1.2305,-1.2305,-1.2305,-1.2445,-1.2842,-1.2915,-1.2915,-1.2915,-1.2915,-1.2732,-1.2335,-1.4091,-1.5199,-1.5199,-1.6975,-1.8008,-1.8008,-1.8008,-1.7832,-1.7428,-1.6787,-1.6191,-1.5693,-1.5508,-1.5537,-1.5781,-1.5781,-1.5781,0.0,0.0,0.0,0.0,0.0,0.0,0.0,0.0,-0.6248,0.0,-0.7371,-0.797,-0.9696,-1.026,-1.0677,-1.1434,-1.1552,-1.1626,-1.1885,-1.1922,-1.1996,-1.2268,-1.2305,-1.2305,-1.2305,-1.2305,-1.2305,-1.2305,-1.2305,-1.2305,-1.2305,-1.2305,-1.2305,-1.2305,-1.2305,-1.2305,-1.2305,-1.2305,-1.2305,-1.2305,-1.2305,-1.2305,-1.2305,-1.2305,-1.2305,-1.2305,-1.2305,-1.2305,-1.2305,-1.2305,-1.2305,-1.2305,-1.2305,-1.2305,-1.2305,-1.2305,-1.2305,-1.2305,-1.2305,-1.2305,-1.2305,-1.2305,-1.2305,-1.2305,-1.2305,-1.2305,-1.2305,-1.2305,-1.2305,-1.2305,-1.2305,-1.2305,-1.2305,-1.2305,-1.2305,-1.2305,-1.2305,-1.2305,-1.2305,-1.2305,-1.2305,-1.2305,-1.2305,-1.2305,-1.2305,-1.2305,-1.2305,-1.2305,-1.2305,-1.2305,-1.2305,-1.2305,-1.2305,-1.2305,-1.2305,-1.4091,-1.5199,-1.5199,-1.6975,-1.8008,-1.8008,-1.7759,-1.7599,-1.7451,-1.6839,-1.6302,-1.5908,-1.5684,-1.5801,-1.6261,-1.6261,-1.6261,0.0,0.0,0.0,0.0,0.0,0.0,0.0,0.0,0.0,-0.6078,-0.6232,-0.6718,-0.7744,-0.8732,-0.941,-0.9448,-0.9448,-0.9782,-1.0746,-1.0901,-1.1236,-1.2187,-1.2305,-1.2305,-1.2305,-1.2305,-1.2305,-1.2305,-1.2305,-1.2305,-1.2305,-1.2305,-1.2305,-1.2305,-1.2305,-1.2305,-1.2305,-1.2305,-1.2305,-1.2305,-1.2305,-1.2305,-1.2305,-1.2305,-1.2305,-1.2305,-1.2305,-1.2305,-1.2305,-1.2305,-1.2305,-1.2305,-1.2305,-1.2305,-1.2305,-1.2305,-1.2305,-1.2305,-1.2305,-1.2305,-1.2305,-1.2305,-1.2305,-1.2305,-1.2305,-1.2305,-1.2305,-1.2305,-1.2305,-1.2305,-1.2305,-1.2305,-1.2305,-1.2305,-1.2305,-1.2305,-1.2305,-1.2305,-1.2305,-1.2305,-1.2305,-1.2305,-1.2305,-1.2305,-1.2305,-1.2305,-1.2305,-1.2305,-1.2305,-1.2305,-1.2305,-1.2305,-1.2305,-1.2305,-1.2305,-1.4091,-1.5199,-1.5199,-1.6975,-1.8008,-1.8008,-1.7139,-1.6455,-1.6008,-1.5954,-1.6401,-1.7275,-1.6476,-1.626,-1.6668,-1.6668,-1.6668,0.0,0.0,0.0,0.0,0.0,0.0,0.0,-0.5413,-0.563,-0.5728,-0.5864,-0.6073,-0.6438,-0.7505,-0.8542,-0.9183,-0.9296,-0.941,-0.9782,-0.982,-0.997,-1.0346,-1.0389,-1.0645,-1.1279,-1.1354,-1.1583,-1.2261,-1.2305,-1.2305,-1.2305,-1.2124,-1.2024,-1.2024,-1.2024,-1.2118,-1.2298,-1.2305,-1.2305,-1.2305,-1.2305,-1.2305,-1.2305,-1.2305,-1.2305,-1.2305,-1.2305,-1.2305,-1.2305,-1.2305,-1.2305,-1.2305,-1.2305,-1.2305,-1.2305,-1.2305,-1.2305,-1.2305,-1.2305,-1.2305,-1.2305,-1.2305,-1.2305,-1.2305,-1.2305,-1.2305,-1.2305,-1.2305,-1.2305,-1.2305,-1.2305,-1.2305,-1.2305,-1.2305,-1.2305,-1.2305,-1.2305,-1.2305,-1.2305,-1.2305,-1.2305,-1.2305,-1.2305,-1.2305,-1.2305,-1.2305,-1.2305,-1.2305,-1.2305,-1.2305,-1.2305,-1.2305,-1.2305,-1.2305,-1.2305,-1.4091,-1.4914,-1.4279,-1.6044,-1.6828,-1.6228,-1.5869,-1.5625,-1.5453,-1.5751,-1.5954,-1.6044,-1.6347,-1.6719,-1.7148,-1.7148,-1.7148,-0.303,0.0,0.0,0.0,0.0,0.0,0.0,0.0,-0.5303,-0.5504,-0.563,-0.5745,-0.5793,-0.6515,-0.7351,-0.8087,-0.823,-0.8428,-0.8732,-0.8803,-0.8917,-0.9258,-0.9296,-0.9556,-1.0228,-1.0303,-1.0714,-1.1731,-1.1721,-1.1816,-1.2158,-1.1877,-1.1724,-1.1724,-1.1724,-1.181,-1.2004,-1.2004,-1.2004,-1.2011,-1.2111,-1.2158,-1.2164,-1.2258,-1.2305,-1.2305,-1.2305,-1.2305,-1.2305,-1.2305,-1.2305,-1.2305,-1.2305,-1.2305,-1.2305,-1.2305,-1.2305,-1.2305,-1.2305,-1.2305,-1.2305,-1.2305,-1.2305,-1.2305,-1.2305,-1.2305,-1.2305,-1.2305,-1.2305,-1.2305,-1.2305,-1.2305,-1.2305,-1.2305,-1.2305,-1.2305,-1.2305,-1.2305,-1.2305,-1.2305,-1.2305,-1.2305,-1.2305,-1.2305,-1.2305,-1.2305,-1.2305,-1.2305,-1.2305,-1.2305,-1.2305,-1.2305,-1.2305,-1.2305,-1.2305,-1.3774,-1.4422,-1.3745,-1.5226,-1.586,-1.5234,-1.4879,-1.47,-1.47,-1.5333,-1.5468,-1.5017,-1.6162,-1.6999,-1.7588,-1.7451,-1.7461,0.0,0.0,0.0,0.0,0.0,0.0,0.0,0.0,-0.4982,-0.5313,-0.5498,-0.5613,-0.5755,-0.5789,-0.5844,-0.5956,-0.6146,-0.6626,-0.7613,-0.7727,-0.8105,-0.9087,-0.9205,-0.92,-0.9243,-0.9243,-0.9648,-1.0685,-1.0531,-1.0832,-1.1779,-1.1577,-1.1375,-1.1375,-1.1375,-1.1382,-1.1389,-1.1389,-1.1389,-1.1395,-1.1717,-1.1893,-1.1899,-1.2144,-1.2278,-1.2285,-1.2285,-1.2291,-1.2305,-1.2305,-1.2305,-1.2305,-1.2305,-1.2305,-1.2305,-1.2305,-1.2305,-1.2305,-1.2305,-1.2305,-1.2305,-1.2305,-1.2305,-1.2305,-1.2305,-1.2305,-1.2305,-1.2305,-1.2305,-1.2305,-1.2305,-1.2305,-1.2305,-1.2305,-1.2305,-1.2305,-1.2305,-1.2305,-1.2305,-1.2305,-1.2305,-1.2305,-1.2305,-1.2305,-1.2305,-1.2305,-1.2305,-1.2305,-1.2305,-1.2305,-1.2305,-1.2305,-1.2305,-1.2305,-1.2305,-1.3164,-1.3673,-1.3673,-1.4593,-1.5128,-1.5128,-1.4171,-1.3673,-1.3673,-1.4629,-1.4955,-1.4532,-1.5997,-1.7155,-1.7978,-1.7588,-1.7627,-0.3104,0.0,0.0,0.0,0.0,0.0,0.0,0.0,0.0,-0.4816,-0.4996,-0.5148,-0.5258,-0.5498,-0.5661,-0.5705,-0.5833,-0.6035,-0.6324,-0.6361,-0.647,-0.6722,-0.6758,-0.7046,-0.7798,-0.7834,-0.8262,0.0,-0.9885,-1.0312,-1.0563,-1.0924,-1.1109,-1.1109,-1.1109,-1.1209,-1.1389,-1.1389,-1.1389,-1.1389,-1.1475,-1.155,-1.155,-1.163,-1.1784,-1.2027,-1.2027,-1.2104,-1.2305,-1.2305,-1.2305,-1.2305,-1.2305,-1.2305,-1.2305,-1.2305,-1.2305,-1.2305,-1.2305,-1.2305,-1.2305,-1.2305,-1.2305,-1.2305,-1.2305,-1.2305,-1.2305,-1.2305,-1.2305,-1.2305,-1.2305,-1.2305,-1.2305,-1.2305,-1.2305,-1.2305,-1.2305,-1.2305,-1.2305,-1.2305,-1.2305,-1.2305,-1.2305,-1.2305,-1.2305,-1.2305,-1.2305,-1.2305,-1.2305,-1.2305,-1.2305,-1.2305,-1.2305,-1.2305,-1.2305,-1.3164,-1.3419,-1.2739,-1.36,-1.381,-1.3127,-1.2842,-1.2696,-1.2696,-1.3629,-1.4403,-1.5006,-1.6767,-1.7627,-1.7559,-1.7744,-1.79,0.0,0.0,0.0,0.0,0.0,0.0,-0.4028,-0.4109,0.0,0.0,-0.4762,-0.4867,-0.4985,-0.5189,-0.5328,-0.5389,-0.5467,-0.5586,-0.5776,-0.58,-0.58,-0.58,-0.58,-0.6015,-0.6611,-0.6683,-0.7247,-0.8619,-0.9093,-0.9582,-1.0263,-1.064,-1.0847,-1.0847,-1.0847,-1.0928,-1.1062,-1.1062,-1.1062,-1.1062,-1.1189,-1.1243,-1.1249,-1.1335,-1.159,-1.1906,-1.1906,-1.2037,-1.2305,-1.2305,-1.2305,-1.2305,-1.2305,-1.2305,-1.2305,-1.2305,-1.2305,-1.2305,-1.2305,-1.2305,-1.2305,-1.2305,-1.2305,-1.2305,-1.2305,-1.2305,-1.2305,-1.2305,-1.2305,-1.2305,-1.2305,-1.2305,-1.2305,-1.2305,-1.2305,-1.2305,-1.2305,-1.2305,-1.2305,-1.2305,-1.2305,-1.2305,-1.2305,-1.2305,-1.2305,-1.2305,-1.2305,-1.2305,-1.2305,-1.2305,-1.2305,-1.2305,-1.2305,-1.2305,-1.2305,-1.2806,-1.2879,-1.2342,-1.2806,-1.2879,-1.2335,-1.2305,-1.2305,-1.2305,-1.3237,-1.4207,-1.5199,-1.6482,-1.701,-1.6793,-1.7209,-1.7432,0.0,0.0,0.0,0.0,0.0,0.0,-0.4089,-0.4082,-0.4109,0.0,-0.4616,-0.4663,-0.4786,-0.484,-0.4904,-0.5029,-0.5063,-0.5224,-0.5691,-0.5752,-0.5752,-0.5752,-0.5752,-0.5752,-0.5752,-0.5752,-0.6455,-0.8135,-0.8201,-0.8871,-1.0511,-1.0593,-1.0593,-1.0593,-1.0593,-1.0593,-1.0593,-1.0593,-1.0593,-1.0593,-1.0854,-1.0949,-1.0955,-1.1209,-1.149,-1.1806,-1.1806,-1.1957,-1.2258,-1.2258,-1.2271,-1.2305,-1.2305,-1.2305,-1.2305,-1.2305,-1.2305,-1.2305,-1.2305,-1.2305,-1.2305,-1.2305,-1.2305,-1.2305,-1.2305,-1.2305,-1.2305,-1.2305,-1.2305,-1.2305,-1.2305,-1.2305,-1.2305,-1.2305,-1.2305,-1.2305,-1.2305,-1.2305,-1.2305,-1.2305,-1.2305,-1.2305,-1.2305,-1.2305,-1.2305,-1.2305,-1.2305,-1.2305,-1.2305,-1.2305,-1.2305,-1.2305,-1.2305,-1.2305,-1.2305,-1.2305,-1.2305,-1.2305,-1.2305,-1.2305,-1.2305,-1.2305,-1.2305,-1.2305,-1.3237,-1.4135,-1.5021,-1.5514,-1.5788,-1.5842,-1.6258,-1.6498,-0.395,0.0,0.0,0.0,0.0,0.0,-0.3917,-0.3955,-0.4018,0.0,-0.4126,-0.4173,-0.4324,-0.4544,-0.4745,-0.4772,-0.488,-0.5074,-0.5436,-0.5481,-0.5481,-0.5481,-0.5481,-0.5481,-0.5481,-0.5481,-0.5615,-0.6015,-0.7263,-0.8787,-1.0498,-1.0593,-1.0593,-1.0593,-1.0593,-1.0593,-1.0593,-1.0593,-1.0593,-1.0593,-1.0646,-1.0673,-1.068,-1.0734,-1.0921,-1.1162,-1.1162,-1.1463,-1.1986,-1.1986,-1.2091,-1.2305,-1.2305,-1.2305,-1.2305,-1.2305,-1.2305,-1.2305,-1.2305,-1.2305,-1.2305,-1.2305,-1.2305,-1.2305,-1.2305,-1.2305,-1.2305,-1.2305,-1.2305,-1.2305,-1.2305,-1.2305,-1.2305,-1.2305,-1.2305,-1.2305,-1.2305,-1.2305,-1.2305,-1.2305,-1.2305,-1.2305,-1.2305,-1.2305,-1.2305,-1.2305,-1.2305,-1.2305,-1.2305,-1.2305,-1.2305,-1.2305,-1.2305,-1.2305,-1.2305,-1.2305,-1.2305,-1.2305,-1.2305,-1.2305,-1.2305,-1.2305,-1.2305,-1.2305,-1.3237,-1.381,-1.3991,-1.4514,-1.4974,-1.5337,-1.5448,-1.586,-0.428,0.0,0.0,-0.4191,0.0,0.0,0.0,-0.407,-0.4038,-0.4209,-0.4121,-0.4041,-0.4167,-0.4345,-0.4494,-0.4593,-0.4704,-0.4884,-0.5108,-0.5142,-0.5142,-0.5142,-0.5142,-0.5169,-0.524,-0.5247,-0.547,-0.6005,-0.7246,-0.8576,-0.9881,-0.9945,-1.0142,-1.0593,-1.0593,-1.0593,-1.0593,-1.0593,-1.0593,-1.0593,-1.0593,-1.0593,-1.0593,-1.0593,-1.0754,-1.0995,-1.0995,-1.1243,-1.1657,-1.1839,-1.1993,-1.2098,-1.2245,-1.2305,-1.2305,-1.2305,-1.2305,-1.2305,-1.2305,-1.2305,-1.2305,-1.2305,-1.2305,-1.2305,-1.2305,-1.2305,-1.2305,-1.2305,-1.2305,-1.2305,-1.2305,-1.2305,-1.2305,-1.2305,-1.2305,-1.2305,-1.2305,-1.2305,-1.2305,-1.2305,-1.2305,-1.2305,-1.2305,-1.2305,-1.2305,-1.2305,-1.2305,-1.2305,-1.2305,-1.2305,-1.2305,-1.2305,-1.2305,-1.2305,-1.2305,-1.2305,-1.2305,-1.2305,-1.2305,-1.2305,-1.2305,-1.2305,-1.2305,-1.2305,-1.2769,-1.2989,-1.2989,-1.3287,-1.3744,-1.445,-1.445,-1.4985,0.0,0.0,0.0,0.0,0.0,-0.4358,0.0,0.0,0.0,0.0,0.0,0.0,0.0,0.0,0.0,0.0,0.0,0.0,0.0,-0.4742,0.0,-0.4877,-0.4887,-0.4935,-0.5049,-0.5032,-0.5448,-0.6531,-0.7218,-0.8032,-0.8931,-0.9,-0.9406,-1.0333,-1.0333,-1.0428,-1.0593,-1.0593,-1.0593,-1.0593,-1.0593,-1.0593,-1.0593,-1.0593,-1.072,-1.0909,-1.0909,-1.1076,-1.1329,-1.1638,-1.1806,-1.1933,-1.2191,-1.2305,-1.2305,-1.2305,-1.2305,-1.2305,-1.2305,-1.2305,-1.2305,-1.2305,-1.2305,-1.2305,-1.2305,-1.2305,-1.2305,-1.2305,-1.2305,-1.2305,-1.2305,-1.2305,-1.2305,-1.2305,-1.2305,-1.2305,-1.2305,-1.2305,-1.2305,-1.2305,-1.2305,-1.2305,-1.2305,-1.2305,-1.2305,-1.2305,-1.2305,-1.2305,-1.2305,-1.2305,-1.2305,-1.2305,-1.2305,-1.2305,-1.2305,-1.2305,-1.2305,-1.2305,-1.2305,-1.2305,-1.2305,-1.2305,-1.2305,-1.2305,-1.2305,-1.2305,-1.2305,-1.2305,-1.2696,-1.3419,-1.3419,-1.4063,0.0,0.0,0.0,0.0,-0.4755,-0.4712,0.0,0.0,-0.4375,-0.4117,0.0,0.0,0.0,0.0,0.0,0.0,0.0,0.0,-0.4112,-0.4213,-0.4446,-0.484,-0.4887,-0.4894,-0.4911,-0.4819,-0.5151,-0.6181,-0.6227,-0.6721,-0.7825,-0.7871,-0.8353,-0.9428,-0.9466,-0.9817,-1.0593,-1.0593,-1.0593,-1.0593,-1.0593,-1.0593,-1.0593,-1.0593,-1.0613,-1.064,-1.064,-1.0807,-1.1042,-1.1076,-1.143,-1.1933,-1.2191,-1.2305,-1.2305,-1.2305,-1.2305,-1.2305,-1.2305,-1.2305,-1.2305,-1.2305,-1.2305,-1.2305,-1.2305,-1.2305,-1.2305,-1.2305,-1.2305,-1.2305,-1.2305,-1.2305,-1.2305,-1.2305,-1.2305,-1.2305,-1.2305,-1.2305,-1.2305,-1.2305,-1.2305,-1.2305,-1.2305,-1.2305,-1.2305,-1.2305,-1.2305,-1.2305,-1.2305,-1.2305,-1.2305,-1.2305,-1.2305,-1.2305,-1.2305,-1.2305,-1.2305,-1.2305,-1.2305,-1.2305,-1.2305,-1.2305,-1.2305,-1.2305,-1.2305,-1.2305,-1.2305,-1.2305,-1.2342,-1.2445,-1.2445,-1.3448,0.0,0.0,0.0,0.0,0.0,0.0,-0.4424,-0.4419,-0.4328,0.0,0.0,0.0,0.0,0.0,0.0,0.0,-0.4048,0.0,0.0,0.0,-0.4159,0.0,0.0,0.0,-0.4636,-0.4677,-0.4898,-0.5412,-0.5328,-0.5713,-0.6775,-0.6905,-0.7387,-0.8332,-0.8473,-0.871,-0.9096,-0.9096,-0.9358,-0.9849,-0.9849,-1.011,-1.0593,-1.0593,-1.0593,-1.0593,-1.0593,-1.066,-1.0787,-1.0922,-1.1136,-1.1403,-1.1906,-1.2151,-1.2305,-1.2305,-1.2305,-1.2305,-1.2305,-1.2305,-1.2305,-1.2305,-1.2305,-1.2305,-1.2305,-1.2305,-1.2305,-1.2305,-1.2305,-1.2305,-1.2305,-1.2305,-1.2305,-1.2305,-1.2305,-1.2305,-1.2305,-1.2305,-1.2305,-1.2305,-1.2305,-1.2305,-1.2305,-1.2305,-1.2305,-1.2305,-1.2305,-1.2305,-1.2305,-1.2305,-1.2305,-1.2305,-1.2305,-1.2305,-1.2305,-1.2305,-1.2305,-1.2305,-1.2305,-1.2305,-1.2305,-1.2305,-1.2305,-1.2305,-1.2305,-1.2305,-1.2305,-1.2305,-1.2305,-1.2305,-1.2305,-1.3339,-0.3305,0.0,-0.3545,-0.4353,-0.3992,-0.3676,-0.4465,-0.4494,-0.4358,-0.4477,0.0,0.0,0.0,0.0,0.0,0.0,0.0,-0.3967,0.0,-0.3931,0.0,0.0,0.0,0.0,0.0,-0.4429,-0.4524,-0.4692,-0.4592,-0.4887,-0.5749,-0.5886,-0.637,-0.7303,-0.7494,-0.7708,-0.7994,-0.7994,-0.8323,-0.8941,-0.8941,-0.9262,-0.9875,-0.9875,-0.9875,-0.9875,-0.9875,-0.9875,-0.9894,-1.0088,-1.0213,-1.0326,-1.0801,-1.1344,-1.1862,-1.2198,-1.2305,-1.2305,-1.2305,-1.2305,-1.2305,-1.2305,-1.2305,-1.2305,-1.2305,-1.2305,-1.2305,-1.2305,-1.2305,-1.2305,-1.2305,-1.2305,-1.2305,-1.2305,-1.2305,-1.2305,-1.2305,-1.2305,-1.2305,-1.2305,-1.2305,-1.2305,-1.2305,-1.2305,-1.2305,-1.2305,-1.2305,-1.2305,-1.2305,-1.2305,-1.2305,-1.2305,-1.2305,-1.2305,-1.2305,-1.2305,-1.2305,-1.2305,-1.2305,-1.2305,-1.2305,-1.2305,-1.2305,-1.2305,-1.2305,-1.2305,-1.2305,-1.2305,-1.2305,-1.2305,-1.2305,-1.32,-0.2473,-0.2725,-0.2867,-0.3484,-0.3625,-0.3748,-0.4366,-0.4604,-0.4636,-0.4518,-0.46,-0.4626,0.0,0.0,0.0,0.0,0.0,0.0,0.0,0.0,0.0,0.0,0.0,0.0,0.0,-0.3904,-0.3944,-0.4194,-0.4102,-0.4233,-0.4731,-0.4762,-0.5281,-0.6406,-0.6455,-0.6953,-0.7989,-0.7994,-0.8027,-0.8027,-0.8027,-0.8059,-0.8091,-0.8091,-0.8091,-0.8091,-0.8091,-0.8091,-0.8091,-0.8102,-0.8258,-0.8513,-0.8647,-0.9488,-1.0791,-1.1898,-1.2305,-1.2305,-1.2305,-1.2305,-1.2305,-1.2305,-1.2305,-1.2305,-1.2305,-1.2305,-1.2305,-1.2305,-1.2305,-1.2305,-1.2305,-1.2305,-1.2305,-1.2305,-1.2305,-1.2305,-1.2305,-1.2305,-1.2305,-1.2305,-1.2305,-1.2305,-1.2305,-1.2305,-1.2305,-1.2305,-1.2305,-1.2305,-1.2305,-1.2305,-1.2305,-1.2305,-1.2305,-1.2305,-1.2305,-1.2305,-1.2305,-1.2305,-1.2305,-1.2305,-1.2305,-1.2305,-1.2305,-1.2305,-1.2305,-1.2305,-1.2305,-1.2305,-1.2305,-1.2305,-1.2305,-1.2806,-0.1671,-0.1767,-0.195,-0.2697,-0.2413,-0.2141,-0.2821,-0.3012,-0.3036,-0.2988,-0.3437,-0.3806,-0.3716,0.0,0.0,0.0,0.0,0.0,0.0,0.0,0.0,0.0,0.0,0.0,0.0,0.0,-0.3877,-0.4055,-0.4024,-0.4172,-0.4549,-0.4665,-0.493,-0.5379,-0.5485,-0.5777,-0.6272,-0.6272,-0.6564,-0.7144,-0.7144,-0.7437,-0.7994,-0.7994,-0.7994,-0.7994,-0.7994,-0.7994,-0.7994,-0.7994,-0.8035,-0.8159,-0.8383,-0.9202,-1.0361,-1.104,-1.1731,-1.2305,-1.2305,-1.2305,-1.2305,-1.2305,-1.2305,-1.2187,-1.1502,-1.1768,-1.215,-1.1502,-1.1774,-1.2305,-1.2305,-1.2305,-1.2305,-1.2305,-1.2305,-1.2305,-1.2305,-1.2305,-1.2305,-1.2305,-1.2305,-1.2305,-1.2305,-1.2305,-1.2305,-1.2305,-1.2305,-1.2305,-1.2305,-1.2305,-1.2305,-1.2305,-1.2305,-1.2305,-1.2305,-1.2305,-1.2305,-1.2305,-1.2305,-1.2305,-1.2305,-1.2305,-1.2305,-1.2305,-1.2305,-1.2305,-1.2305,-1.2305,-1.2305,-1.2305,-1.2305,-1.2806,-0.0841,-0.0853,-0.1041,-0.1804,-0.1534,-0.1301,-0.2041,-0.226,-0.2279,-0.2221,-0.2663,-0.3034,-0.2918,0.0,0.0,0.0,0.0,0.0,0.0,-0.3375,0.0,0.0,0.0,0.0,0.0,0.0,-0.3718,-0.3974,-0.3944,0.0,0.0,-0.4583,-0.468,-0.4833,-0.4948,-0.5128,-0.5277,-0.5368,-0.5686,-0.6235,-0.6235,-0.6527,-0.7088,-0.7088,-0.7088,-0.7088,-0.7088,-0.7088,-0.7088,-0.7088,-0.7088,-0.711,-0.7376,-0.8146,-0.9233,-1.0319,-1.1384,-1.2261,-1.1885,-1.1768,-1.1694,-1.136,-1.1211,-1.1099,-1.0453,-1.072,-1.1174,-1.0901,-1.1279,-1.1848,-1.2224,-1.2305,-1.2305,-1.2305,-1.2305,-1.2305,-1.2305,-1.2305,-1.2187,-1.1842,-1.1768,-1.1657,-1.1285,-1.1545,-1.1885,-1.2261,-1.2305,-1.2305,-1.2305,-1.2305,-1.2305,-1.2305,-1.2305,-1.2305,-1.2305,-1.2305,-1.2305,-1.2305,-1.2305,-1.2305,-1.2305,-1.2305,-1.2305,-1.2305,-1.2305,-1.2305,-1.2305,-1.2305,-1.2305,-1.2305,-1.2305,-1.2629]}]]